GFSWCAN_sfc_rhum_000.txt.gz
RH
96 94 92 92 88 85 84 88 89 91 90 91 92 94 95 96 90 95 97 95 94 95 92 83 78 72 74 73 78 72 72 68 73 80 84 86 86 76 78 78 82 79 91 89 89 89 85 62 66 70 64 75 68 65
97 94 92 89 88 86 86 88 88 89 90 90 92 93 94 96 93 92 98 92 92 96 93 92 87 85 72 78 75 77 81 75 72 85 89 88 86 87 83 83 75 76 76 84 77 76 64 68 62 63 60 60 65 71
95 94 91 88 88 87 85 83 84 87 90 89 90 91 92 94 92 92 98 96 96 96 96 93 92 80 67 68 61 77 79 69 80 83 90 91 83 88 89 85 82 78 73 76 69 73 74 64 68 66 64 63 61 64
95 94 89 88 88 86 84 82 81 85 85 86 87 90 93 94 94 92 98 97 94 96 98 97 76 84 73 72 67 60 64 71 75 83 91 89 86 84 90 85 86 74 80 82 84 75 70 73 68 68 67 68 76 78
96 92 89 89 89 88 86 84 78 81 86 85 91 92 94 96 95 96 98 98 98 92 98 98 87 77 74 72 66 63 66 72 78 88 91 94 94 90 96 96 97 89 81 86 86 74 72 75 76 74 77 78 72 71
95 92 90 90 89 88 86 85 82 83 85 88 90 91 93 97 96 98 99 98 99 98 92 98 90 83 83 82 82 80 81 84 89 92 95 94 87 88 98 88 79 84 80 71 75 73 68 75 80 80 81 81 79 85
94 93 90 89 89 89 87 86 85 84 85 86 91 92 96 95 97 98 98 99 97 95 96 100 99 85 80 85 91 91 88 95 92 96 96 94 89 92 98 92 81 82 79 77 78 74 80 83 82 83 88 97 92 89
98 96 92 91 90 89 89 86 86 84 84 88 91 96 94 94 95 97 98 96 98 96 94 100 100 93 80 97 98 94 98 94 96 98 96 96 96 96 98 89 84 81 80 82 86 84 81 86 92 97 89 89 90 90
90 96 96 94 90 90 88 87 87 84 84 90 96 92 91 96 97 99 91 94 96 93 100 99 99 100 86 96 96 94 93 98 99 98 96 94 98 98 90 86 85 83 77 81 92 96 99 99 97 94 91 87 93 92
88 90 93 96 94 92 91 89 88 85 89 95 92 93 100 99 88 87 90 93 99 99 98 99 93 99 90 94 98 93 93 99 100 96 93 99 99 87 86 85 82 79 81 91 85 85 96 98 96 99 93 90 96 90
86 88 92 94 95 95 93 90 88 88 94 97 98 100 99 88 91 93 100 99 98 100 98 98 94 97 89 95 97 90 97 99 97 93 91 94 97 89 78 86 89 93 90 88 82 86 89 89 91 92 93 93 92 79
85 86 88 92 94 94 95 93 91 93 97 90 93 94 96 95 100 93 95 96 99 87 99 98 98 94 99 92 94 95 92 96 93 93 92 92 86 80 69 75 79 81 78 80 85 81 83 87 89 92 93 92 75 48
77 86 88 88 90 92 93 95 95 92 82 91 95 100 94 100 99 94 99 90 98 99 100 100 100 95 99 97 96 98 96 96 92 97 91 91 86 84 82 67 72 79 82 82 73 70 73 86 88 89 84 62 55 51
77 80 85 86 88 89 90 93 95 95 96 99 100 99 96 99 94 94 92 94 96 99 100 98 98 97 97 99 97 96 97 89 98 100 94 87 90 78 78 76 67 66 74 75 75 68 55 60 71 64 62 54 51 50
79 74 81 85 86 86 89 91 96 99 99 100 96 92 98 93 99 99 99 99 100 97 93 94 97 90 99 97 92 97 98 97 88 89 90 94 90 90 75 65 63 64 66 74 81 79 70 56 50 48 49 51 52 53
80 77 85 78 80 85 92 93 98 99 100 100 99 99 98 96 100 100 100 99 99 96 94 95 92 98 96 96 96 96 92 91 90 95 94 96 80 74 67 62 61 64 71 76 83 87 78 65 57 54 52 60 61 62
80 92 74 75 77 84 92 97 99 100 100 100 99 96 98 97 98 98 96 99 93 95 100 93 94 86 94 95 99 96 93 93 94 94 97 93 87 80 75 74 67 64 70 77 85 89 89 68 61 59 60 62 68 67
93 88 71 70 82 89 97 100 100 100 99 100 98 100 96 93 94 98 98 97 95 99 98 98 91 100 96 95 96 91 93 98 96 95 95 90 88 87 86 83 72 71 70 76 90 95 92 89 78 67 81 89 87 85
87 86 85 85 85 97 100 100 100 99 99 100 99 100 98 96 93 94 98 97 96 96 96 98 97 97 96 94 90 96 97 96 76 79 84 81 84 86 86 90 90 91 94 96 92 93 90 80 73 74 76 74 70 66
75 70 86 93 93 100 100 100 100 99 98 99 97 99 99 99 98 98 98 98 98 99 98 99 96 94 87 83 94 94 94 88 89 89 89 89 86 90 89 92 86 90 90 93 97 85 95 84 75 70 71 67 69 75
81 87 92 96 100 100 100 99 99 99 99 98 99 98 98 98 98 99 100 99 98 98 98 97 95 86 92 90 86 86 86 89 90 91 88 94 87 94 97 98 97 93 91 93 90 89 76 79 80 82 89 69 73 76
94 93 99 98 100 100 99 99 99 98 96 98 98 97 98 99 99 99 99 99 99 95 94 93 96 94 92 84 84 84 84 81 85 87 75 79 85 96 97 97 97 99 99 96 96 94 89 88 83 86 88 94 84 90
87 98 100 100 98 98 98 100 97 98 97 98 98 97 98 99 99 98 99 98 97 94 97 97 94 91 89 85 76 74 68 74 82 87 89 93 95 99 99 99 96 95 98 98 96 88 92 76 80 89 89 91 96 92
80 95 93 98 97 97 93 98 97 96 97 96 97 96 97 97 97 97 98 97 96 95 94 95 97 96 96 93 93 91 92 90 91 95 96 98 100 98 96 96 96 96 93 86 89 92 92 92 80 94 96 97 97 97
93 96 90 99 93 90 92 97 97 95 96 96 96 99 98 96 98 99 98 94 94 95 93 90 97 98 99 99 91 83 93 97 98 99 98 97 94 92 95 85 79 83 85 92 92 91 97 97 97 97 97 98 97 96
97 97 89 96 94 95 89 95 94 96 96 100 98 96 97 97 99 91 93 97 99 98 98 100 100 99 93 81 83 93 97 96 97 95 96 96 94 93 96 92 93 91 91 86 95 96 96 97 97 97 97 96 92 96
100 99 96 78 91 90 96 87 85 96 100 98 97 98 98 98 98 87 98 97 98 97 97 98 99 100 100 92 84 91 92 95 98 97 89 88 86 84 89 90 92 92 91 92 96 95 97 98 98 98 98 98 98 98
88 86 94 96 98 97 97 99 100 99 96 90 86 100 93 87 85 97 98 98 99 100 100 99 99 99 100 100 99 90 97 96 89 82 70 73 80 90 91 91 93 81 96 96 96 97 97 98 98 99 100 98 95 91
98 95 94 94 100 100 97 94 93 93 83 94 92 93 93 95 100 100 99 98 100 100 100 100 99 99 98 98 97 97 97 98 96 95 89 89 86 93 95 95 96 96 98 97 75 80 90 94 95 95 97 96 91 93
98 97 97 100 99 100 96 94 96 99 96 90 86 96 96 98 100 99 98 99 99 100 100 99 99 98 98 99 99 96 95 96 96 95 92 91 92 96 97 98 98 98 98 97 98 98 80 91 91 96 95 94 91 90
98 98 99 99 97 97 97 97 96 88 94 99 95 96 98 100 99 99 100 99 99 99 98 98 98 97 96 97 98 97 97 96 95 90 90 89 96 97 98 98 98 98 98 98 98 98 98 99 99 99 96 96 94 92
97 92 98 100 100 98 99 99 99 98 98 98 98 99 98 96 96 98 98 99 98 98 92 96 95 96 96 96 96 96 90 95 96 96 94 96 96 96 97 98 98 98 97 97 97 98 99 100 99 98 95 96 93 91
97 97 98 98 100 100 99 96 98 98 98 99 99 98 97 94 96 98 96 96 97 96 95 96 96 96 95 94 94 94 93 95 92 87 83 80 88 92 96 98 98 96 96 97 97 98 98 100 100 96 96 97 94 92

GFSWCAN_sfc_rhum_003.txt.gz
RH
88 87 86 96 94 93 91 90 88 91 94 95 96 96 95 96 92 95 96 94 94 94 92 86 81 72 74 73 75 68 69 68 75 81 85 86 83 72 76 79 72 70 81 81 87 86 76 65 64 68 68 77 66 65
86 89 85 95 94 93 91 90 91 94 95 94 96 96 94 95 91 92 96 91 93 94 91 93 89 86 79 77 74 78 80 73 73 88 91 90 88 86 81 80 82 79 71 75 73 74 69 76 66 68 63 64 66 74
86 89 87 95 94 93 90 90 92 93 95 95 94 95 94 94 91 90 97 97 95 96 96 93 94 82 74 77 63 79 85 72 86 81 89 90 80 88 88 83 82 79 76 76 75 80 79 69 71 68 68 67 70 73
83 87 86 92 94 92 92 89 88 90 92 92 91 93 95 96 92 91 97 98 95 95 97 96 80 86 77 79 67 67 72 83 86 93 93 93 88 86 91 83 83 77 81 83 83 84 80 75 77 74 72 77 77 78
82 86 87 94 93 92 90 86 85 88 91 89 91 93 95 96 92 95 98 99 98 91 97 99 88 82 84 78 73 72 72 78 89 90 92 93 96 89 96 97 96 90 82 84 80 73 72 76 75 77 77 79 80 83
86 90 90 94 93 90 88 86 86 85 91 92 95 95 96 97 93 97 96 98 98 98 91 100 89 86 90 88 90 91 89 88 95 92 96 95 89 83 97 96 82 84 82 73 73 77 69 72 80 82 81 88 94 92
88 93 95 93 93 89 88 86 84 86 90 93 94 94 98 97 97 96 92 98 98 96 93 100 98 84 80 87 92 90 88 97 93 95 95 93 92 89 97 96 80 82 84 78 78 75 81 81 85 92 97 96 91 89
90 89 96 93 93 90 88 86 85 87 91 92 94 97 94 92 94 97 98 96 96 94 89 100 100 94 80 96 98 94 97 95 97 98 95 93 93 95 93 88 87 84 81 83 85 86 86 89 92 98 95 92 92 86
91 91 93 97 95 91 89 86 84 87 91 94 96 94 91 95 98 99 92 92 94 90 99 99 100 99 88 96 96 93 93 98 97 98 95 87 98 98 88 87 85 83 81 80 96 99 98 99 98 98 98 96 92 87
91 91 90 94 97 95 91 88 86 89 95 94 91 94 100 99 90 88 89 93 99 99 98 99 93 99 90 95 98 92 93 99 100 98 93 99 98 88 88 85 82 82 82 91 90 86 94 98 98 95 93 94 89 89
88 90 89 92 96 96 95 91 88 91 92 96 99 99 100 90 89 91 99 99 99 99 95 97 94 97 90 95 97 90 98 98 98 90 95 95 96 91 82 88 91 93 88 87 82 84 81 81 82 88 90 92 95 95
86 89 90 89 92 97 96 94 92 95 96 90 94 95 96 95 99 95 94 97 94 88 99 98 97 95 99 89 95 92 94 94 85 93 93 90 90 84 78 82 83 84 81 78 84 82 81 83 86 90 92 93 92 91
86 87 90 88 90 93 97 96 93 93 84 93 96 100 94 100 99 95 97 91 94 96 100 100 100 96 99 92 97 94 93 93 92 93 90 93 92 86 88 72 76 80 80 81 79 81 76 78 84 91 93 91 85 61
80 82 84 87 90 90 92 96 96 96 96 99 100 99 98 99 94 93 93 93 93 100 100 95 99 98 97 98 98 96 96 96 99 100 97 95 89 77 82 74 62 63 73 72 72 71 66 59 66 82 87 82 66 61
77 78 78 85 88 89 90 91 94 99 98 100 99 98 98 96 99 99 97 98 99 96 93 94 97 92 100 98 92 97 99 96 92 92 94 94 90 88 80 72 65 61 63 65 73 78 79 75 65 57 52 56 58 56
79 78 84 79 84 87 89 92 94 98 100 100 99 99 96 96 99 99 99 99 99 91 94 94 98 98 98 96 98 95 94 95 90 95 95 95 83 81 67 64 63 65 67 68 72 77 81 85 80 69 58 56 57 55
79 95 82 76 82 87 89 95 99 100 100 100 99 96 98 98 97 96 93 97 93 81 99 95 97 92 95 98 99 94 92 90 95 97 97 90 81 78 72 72 75 76 71 69 75 79 82 87 84 71 66 61 64 64
92 91 79 72 84 92 98 100 100 100 99 100 99 99 97 95 95 98 98 92 91 97 97 95 91 99 96 98 96 94 97 98 98 95 96 90 88 85 86 84 84 85 75 72 86 93 97 94 89 78 80 88 88 86
87 90 82 85 93 98 100 100 100 99 99 99 99 100 98 97 97 97 96 94 93 93 95 96 94 97 93 93 91 96 98 97 85 84 87 82 83 85 87 93 94 94 92 92 85 89 92 91 88 79 77 78 75 72
77 77 85 88 92 100 100 100 100 99 99 99 99 99 99 99 99 98 97 96 96 99 98 99 85 84 85 89 96 95 95 87 90 89 88 89 88 93 92 94 90 88 89 94 97 88 96 89 80 73 73 69 69 71
86 93 92 95 100 100 100 99 99 99 99 98 99 99 99 99 99 99 99 99 97 99 100 95 91 91 95 93 88 86 89 91 91 90 89 95 89 96 97 98 97 93 90 92 91 92 82 83 79 80 88 70 74 76
96 95 99 99 100 100 99 100 99 98 98 98 98 98 98 98 99 100 99 98 99 95 93 90 96 95 93 85 88 86 85 85 86 89 78 84 89 95 97 98 97 98 98 98 97 96 94 88 83 81 83 91 84 90
82 93 99 99 98 97 98 99 97 97 97 98 98 97 98 98 98 99 98 98 96 95 98 96 93 92 91 86 81 82 83 79 85 87 87 93 95 99 99 99 98 98 99 98 97 88 94 84 81 89 93 94 95 93
79 93 92 97 97 97 96 97 96 96 97 96 97 96 97 100 96 98 98 98 96 94 90 95 98 97 96 93 95 94 97 94 93 96 96 98 100 99 97 98 97 95 94 90 89 91 94 94 84 95 96 97 97 98
85 90 88 96 94 91 94 97 97 95 96 96 96 96 96 96 96 98 97 94 91 93 91 88 96 97 98 99 93 90 95 98 99 100 93 92 94 96 98 92 86 88 88 92 90 90 97 97 97 97 97 97 98 98
99 94 97 98 96 91 94 98 97 97 95 96 95 95 96 95 95 89 93 97 97 97 98 99 99 98 90 82 87 95 97 96 97 94 97 97 95 92 99 97 97 95 90 85 93 94 96 97 98 98 98 98 92 97
100 99 96 79 92 91 96 86 84 91 97 95 97 98 96 94 94 88 95 90 92 96 95 97 98 98 98 92 88 90 93 96 100 99 90 89 89 93 96 93 91 95 90 88 91 93 97 97 98 99 100 98 98 98
88 88 95 88 99 98 98 100 100 99 96 89 86 99 90 84 84 97 98 96 96 98 99 96 97 99 99 100 100 92 97 97 95 90 80 80 85 95 95 93 88 80 95 96 97 97 97 97 99 98 98 98 97 96
99 93 95 92 99 99 97 95 94 95 84 94 92 93 94 95 100 100 99 99 100 99 99 99 99 99 98 98 98 98 98 98 95 94 92 97 95 97 96 93 94 94 95 94 74 80 92 94 95 97 97 96 94 95
95 96 97 100 100 100 98 96 96 99 96 90 87 96 96 98 99 99 98 99 100 100 100 99 100 99 100 99 99 98 98 98 98 97 97 95 91 96 98 97 97 98 98 96 93 93 77 91 90 96 95 94 92 92
98 98 100 99 98 98 99 97 97 92 96 100 98 97 98 100 99 99 100 100 100 100 100 100 100 99 99 98 98 98 98 96 96 96 95 91 94 96 97 98 98 98 97 97 97 97 98 99 100 100 97 98 96 94
96 94 95 100 100 98 98 99 99 99 99 99 100 99 99 98 98 96 98 100 99 99 95 98 97 99 97 96 97 98 89 97 97 96 93 94 96 96 94 95 97 97 97 97 97 98 99 100 99 98 96 97 95 93
97 97 96 97 100 100 99 96 98 99 98 100 99 98 98 97 98 98 97 97 98 98 97 97 97 96 96 95 96 95 94 97 92 89 86 86 89 90 95 98 98 97 96 97 97 98 98 100 100 98 96 98 96 92

GFSWCAN_sfc_rhum_006.txt.gz
RH
81 82 83 88 85 85 94 93 93 90 90 94 96 97 96 95 91 96 96 96 94 93 93 90 80 71 73 72 61 60 64 63 76 81 84 90 84 75 80 79 70 62 77 83 89 85 74 65 63 62 66 72 65 64
82 84 84 86 87 88 93 94 92 89 90 94 96 97 96 94 93 92 96 93 95 93 93 93 90 86 80 77 71 79 76 74 71 89 90 89 89 87 80 79 81 70 65 70 72 74 69 75 69 72 65 66 68 68
83 86 83 84 85 86 92 94 90 89 91 94 94 94 94 94 94 92 97 97 95 96 96 93 95 85 80 85 68 79 88 74 85 83 89 88 78 85 85 79 82 81 76 75 73 78 73 68 67 65 64 65 66 74
82 86 81 83 85 85 89 94 89 90 91 91 91 92 95 94 92 90 96 99 95 95 97 95 82 87 81 85 72 71 74 88 89 92 92 91 86 88 87 80 78 75 79 82 84 87 78 73 75 67 69 72 73 76
84 85 85 85 89 85 89 93 90 90 90 91 92 94 96 95 93 95 98 99 98 90 97 98 88 84 90 82 81 76 76 82 92 91 93 94 95 93 98 95 96 88 80 81 78 75 75 76 73 74 75 77 83 82
82 87 90 86 91 87 95 91 88 88 92 93 94 95 96 95 93 93 94 96 98 99 95 100 89 88 86 88 90 92 93 94 96 94 97 97 92 88 95 94 82 87 85 78 76 79 77 81 83 82 83 90 95 93
80 86 91 87 92 92 95 88 87 90 93 94 95 96 97 96 96 95 92 95 97 96 94 100 99 85 80 85 92 91 88 96 94 97 97 95 95 86 94 91 76 84 83 78 81 80 84 84 85 92 95 94 90 89
79 87 91 88 92 96 94 88 88 90 91 94 95 98 95 92 94 96 98 94 94 91 87 100 100 93 81 96 98 94 95 93 97 98 95 93 93 92 91 86 87 86 87 87 90 88 86 92 94 96 96 94 94 91
76 89 91 89 90 97 95 90 88 90 91 94 96 94 93 95 98 98 92 91 94 86 99 98 96 99 86 97 95 91 92 98 96 96 94 86 95 97 80 84 87 84 81 91 99 99 97 96 97 100 97 99 94 92
76 89 90 91 90 97 95 92 89 90 95 95 90 90 100 99 91 85 88 91 98 98 97 97 95 98 94 95 98 91 93 99 100 98 96 98 97 88 86 84 81 84 85 92 90 87 94 84 95 85 85 87 92 92
75 89 90 92 90 93 96 94 93 95 92 95 99 99 99 90 88 94 100 99 96 98 96 98 95 97 90 95 96 92 98 98 99 93 93 99 96 91 83 85 92 91 89 84 82 83 72 64 74 80 84 89 92 94
75 87 90 92 90 89 96 95 95 94 96 91 95 96 96 93 96 92 94 97 97 97 98 95 98 98 98 89 92 91 98 95 94 97 98 97 88 85 82 89 95 92 88 82 78 73 78 78 81 84 88 90 91 92
74 82 90 90 91 89 96 95 96 92 82 93 96 100 96 100 98 97 99 91 99 97 100 100 99 98 98 93 97 93 92 93 90 95 79 92 92 89 87 79 82 82 78 77 80 78 75 76 79 85 86 90 93 91
71 80 89 88 91 91 96 96 94 96 95 98 100 99 98 99 96 95 94 94 94 99 100 92 100 98 97 93 96 87 95 92 96 96 98 95 88 82 84 75 70 69 70 71 70 70 71 67 66 72 86 89 86 79
72 79 84 87 89 93 93 97 95 97 99 100 99 98 99 98 99 100 99 97 100 95 92 95 97 94 99 98 96 98 100 96 81 96 93 93 89 87 82 78 66 60 66 68 72 76 77 76 77 73 65 62 70 71
75 77 88 87 88 88 91 93 96 98 100 100 99 98 93 97 99 95 98 98 100 89 94 94 98 97 99 96 98 97 92 93 90 95 95 91 88 85 78 69 66 64 66 67 70 72 75 82 83 82 74 63 58 56
78 96 84 83 86 88 90 98 99 100 100 99 99 96 97 98 99 98 92 96 92 84 99 95 93 93 96 99 100 95 95 91 95 97 98 90 79 78 73 72 75 79 80 79 74 75 77 85 87 84 82 77 65 62
92 92 80 85 88 92 98 100 100 100 99 99 98 98 97 94 95 95 99 94 94 95 93 90 90 99 97 98 98 95 98 98 99 96 95 89 85 83 81 76 80 84 82 82 86 93 97 96 92 91 88 89 87 84
87 90 82 83 92 99 100 100 100 99 99 99 99 99 98 98 96 95 96 95 92 88 91 96 92 94 94 95 94 98 99 98 88 86 84 83 82 80 83 94 95 95 94 92 84 85 90 91 92 86 82 79 79 77
77 84 85 85 90 100 99 100 100 99 99 99 98 99 99 99 99 93 94 95 94 94 94 94 79 77 83 90 97 96 96 89 84 83 83 88 89 95 94 96 94 92 91 96 98 90 96 91 82 78 79 75 72 74
86 91 92 97 99 100 100 99 99 99 99 98 99 96 99 98 98 98 99 98 96 97 95 87 85 91 97 95 91 91 91 89 89 85 86 95 91 98 97 98 97 92 89 91 91 92 90 93 86 85 88 74 72 68
92 91 98 99 99 100 98 99 99 98 98 98 98 98 98 98 99 99 100 99 98 94 90 91 97 98 97 91 92 92 89 89 90 90 82 86 92 95 96 98 97 99 98 99 98 96 92 93 85 82 80 86 79 86
75 86 97 97 97 95 98 99 97 97 98 98 98 97 98 98 98 99 98 98 98 98 98 93 94 94 91 87 87 93 88 82 88 89 89 94 97 99 99 99 98 98 98 98 96 87 94 82 77 86 86 92 96 96
77 94 94 98 96 97 95 97 94 96 97 96 97 96 97 97 98 97 97 98 97 92 88 90 94 92 94 92 95 98 99 94 97 98 97 99 100 98 98 99 98 96 94 93 92 93 93 92 85 92 96 97 97 98
82 94 88 96 93 93 96 96 96 93 96 96 96 96 96 96 96 97 97 96 94 92 89 89 93 96 98 99 96 97 94 96 98 98 92 89 88 91 96 93 90 92 87 88 86 87 94 95 96 95 92 97 97 98
98 95 89 98 97 90 96 96 96 97 96 96 95 95 96 96 96 92 94 98 97 97 98 98 98 97 89 86 92 95 94 91 93 93 96 96 94 92 98 96 96 94 90 86 88 91 95 95 93 96 97 98 89 98
100 100 95 79 92 90 94 87 84 93 96 96 95 96 95 92 91 90 93 89 93 96 98 96 97 98 97 95 91 91 91 96 98 98 90 89 91 92 95 94 93 93 88 88 88 88 91 93 97 97 98 98 98 98
89 89 96 92 99 98 98 100 99 97 96 87 83 96 88 80 84 96 97 94 98 99 100 98 97 98 98 99 99 91 96 95 95 91 83 85 90 97 95 91 88 79 93 94 94 95 95 96 97 97 99 98 98 96
98 94 94 90 98 100 99 97 96 96 85 94 92 94 95 89 98 98 95 96 97 98 98 98 98 99 98 97 96 96 98 98 93 94 96 99 99 98 98 90 92 91 90 90 72 82 95 96 97 98 97 96 95 96
95 98 98 99 100 100 98 97 96 99 95 91 88 96 92 96 99 96 96 99 100 99 99 98 98 98 99 98 99 98 98 99 99 95 96 98 96 97 97 95 94 96 96 92 90 95 76 92 88 96 96 96 95 96
98 97 99 100 99 99 100 93 98 91 96 100 98 97 98 100 98 99 100 100 99 100 99 100 100 100 98 99 100 99 99 98 98 97 97 92 93 95 96 96 96 97 97 96 97 97 99 99 100 100 98 99 96 95
95 97 96 100 100 97 96 97 100 100 100 100 100 100 99 99 99 99 99 100 100 100 98 100 100 100 99 99 99 99 86 97 97 96 92 93 95 94 94 96 98 96 96 96 97 98 99 100 99 99 97 98 96 95
98 98 98 96 98 99 98 96 98 100 99 100 99 98 99 98 99 98 97 98 99 99 98 99 98 97 97 96 97 95 93 97 93 87 84 83 82 88 97 97 97 96 96 97 99 98 98 100 100 100 97 99 98 95

GFSWCAN_sfc_rhum_009.txt.gz
RH
62 71 74 79 80 82 83 82 85 94 92 90 91 93 96 96 95 95 97 97 93 91 94 92 84 72 72 64 58 57 56 56 82 84 85 83 77 74 76 67 61 59 71 72 83 78 61 59 58 58 62 70 64 63
60 74 75 78 81 83 83 84 86 94 92 90 92 95 96 96 96 94 98 95 96 93 94 94 91 88 83 77 68 79 68 67 66 84 91 90 86 85 78 74 80 63 57 66 66 67 72 73 69 71 64 65 66 64
59 72 75 79 80 84 84 85 85 92 91 91 93 94 96 94 95 94 97 98 96 97 96 94 95 87 82 89 80 77 89 74 83 84 89 90 79 86 85 79 82 81 76 78 70 78 76 72 69 65 63 64 65 65
60 71 72 80 80 83 85 86 84 88 90 91 91 91 94 95 96 93 96 98 95 95 97 90 83 89 84 84 77 75 76 90 88 91 92 92 83 86 85 76 75 70 73 82 88 86 74 72 72 70 73 72 72 71
58 70 70 82 82 83 87 91 86 90 90 91 91 93 95 95 95 95 98 99 97 91 96 98 87 87 91 87 83 79 80 86 93 90 92 94 94 94 97 92 89 87 77 78 76 75 74 72 72 72 74 79 78 77
60 68 70 83 87 85 86 91 87 93 91 93 94 93 95 96 95 98 98 98 98 94 94 100 89 88 88 89 90 91 93 95 96 95 98 98 93 90 95 93 78 87 85 73 73 78 84 83 82 81 86 89 89 90
61 68 71 84 89 88 88 90 92 92 92 93 93 94 96 97 96 95 92 97 97 96 93 100 100 86 82 86 94 94 89 96 94 97 96 96 96 89 92 88 72 85 86 85 82 77 83 84 85 90 93 94 88 93
62 69 73 85 89 89 88 90 94 92 93 93 94 97 95 92 93 97 97 93 93 89 87 100 100 96 81 96 98 93 94 94 96 97 96 93 97 94 92 84 86 88 88 88 90 87 82 91 94 97 96 96 92 87
64 70 75 86 89 89 89 96 93 93 92 94 97 94 93 94 98 96 90 90 92 85 98 96 99 100 87 97 95 89 93 98 96 95 94 89 95 95 81 88 90 92 85 93 98 95 92 90 95 99 98 98 88 86
65 69 76 86 88 90 90 96 94 92 94 96 91 90 100 99 88 82 86 89 96 97 96 97 95 99 92 94 98 92 94 99 100 99 93 98 96 87 84 84 85 87 90 96 94 99 100 98 96 97 88 82 86 89
66 69 77 88 88 92 92 96 95 94 96 96 98 100 100 90 86 93 100 99 97 98 96 97 94 98 92 94 94 91 97 97 98 94 93 98 98 92 89 89 92 92 88 85 80 83 70 60 70 76 82 87 90 92
66 69 76 83 87 91 92 95 95 96 96 91 96 96 94 89 95 89 97 98 96 96 99 96 99 98 97 88 90 91 98 94 94 93 96 98 89 86 86 88 91 92 87 78 67 70 73 71 75 77 81 85 88 91
66 70 77 82 89 90 91 95 93 93 85 93 95 100 94 100 99 92 95 91 100 99 100 100 99 95 96 94 98 92 92 94 93 98 92 90 90 87 87 93 96 92 84 77 78 76 72 75 78 81 82 87 91 92
65 72 78 83 90 90 92 97 95 95 94 98 100 99 98 99 97 94 93 94 95 99 99 97 97 98 97 93 94 85 94 89 94 93 91 94 89 88 83 85 90 89 79 79 77 70 66 64 65 70 80 85 88 86
65 75 80 86 89 91 93 95 94 96 98 100 99 98 99 97 100 99 98 97 100 95 93 98 98 96 99 94 91 98 99 90 80 93 93 94 93 92 82 72 72 75 76 74 76 74 74 73 74 75 73 68 77 78
68 77 91 87 87 89 92 93 97 98 100 100 99 98 92 98 100 99 98 99 100 90 95 94 99 99 99 95 97 99 90 92 89 94 95 92 87 82 78 71 64 64 64 65 68 70 72 78 79 80 79 73 64 60
76 96 82 80 81 88 93 98 99 100 100 100 98 91 96 98 99 96 88 92 85 83 98 96 91 91 97 98 100 96 94 91 94 96 94 84 79 80 73 70 70 73 76 78 77 76 78 84 87 84 82 81 68 61
96 94 79 78 86 93 98 100 100 100 99 99 98 100 92 89 93 94 99 97 92 94 95 90 91 98 99 99 99 95 98 99 99 97 92 82 81 79 77 79 82 85 85 85 90 95 97 96 91 93 92 92 87 84
86 89 81 81 90 99 100 100 100 98 99 99 99 98 98 97 95 96 96 94 89 87 89 96 90 96 95 96 94 98 99 98 88 92 91 89 85 84 87 96 95 96 94 95 86 91 94 92 92 89 83 79 81 78
79 79 83 85 90 100 99 99 100 98 98 99 99 99 99 99 99 94 91 93 93 96 92 91 80 80 84 90 97 96 96 88 74 82 86 90 92 96 95 97 94 93 94 97 97 91 96 90 82 80 81 78 78 77
84 90 87 93 100 100 99 99 99 99 99 97 99 98 98 99 99 99 98 98 98 99 95 85 90 97 96 96 90 90 86 79 80 72 80 94 93 95 97 98 98 89 90 93 94 94 93 90 92 91 90 73 71 66
94 80 90 91 99 98 98 99 99 99 98 99 98 99 98 98 99 99 100 99 99 98 94 94 98 97 94 94 93 92 92 88 90 91 89 86 92 95 96 98 97 100 99 100 98 94 95 96 91 87 83 91 85 95
84 85 95 94 92 89 97 98 97 97 97 98 98 97 98 98 98 99 98 98 97 97 95 94 98 91 88 89 86 89 84 81 86 89 92 96 96 97 98 97 95 97 98 99 96 89 94 83 76 88 89 92 93 95
71 91 96 99 95 97 91 97 93 96 97 96 97 97 97 97 98 98 97 97 97 96 91 94 91 93 93 92 96 99 98 95 96 96 97 97 98 94 94 96 92 94 94 95 94 92 87 89 83 93 96 97 97 98
81 89 88 96 93 92 96 96 96 95 96 96 96 97 97 96 97 97 96 96 96 95 94 92 88 92 96 98 93 92 90 93 98 97 92 90 94 93 95 91 89 92 87 92 90 89 96 96 96 96 97 97 97 98
97 97 88 99 97 89 97 96 96 96 96 96 96 96 96 97 96 96 96 96 95 95 95 96 97 94 90 92 96 96 96 93 93 94 96 95 91 91 97 96 98 94 94 88 88 90 93 96 96 97 98 97 84 98
99 99 95 82 93 91 93 86 82 95 96 97 96 96 95 96 97 91 95 92 93 94 90 90 90 91 96 96 90 91 92 97 97 97 91 91 93 89 94 94 94 96 90 89 90 90 93 95 97 97 98 98 98 98
88 90 97 93 99 98 98 100 99 96 97 89 83 94 88 86 89 96 96 93 95 96 96 94 93 95 96 98 97 91 96 95 94 90 83 86 90 97 94 90 88 79 94 96 95 94 95 96 97 97 98 98 97 97
98 94 94 94 99 100 100 96 97 97 89 96 94 96 96 86 96 96 93 95 96 97 96 97 98 98 97 96 96 96 95 95 92 94 96 100 99 98 98 95 95 95 96 94 74 92 97 96 97 97 97 96 97 98
94 98 98 97 100 100 99 98 98 98 93 92 85 94 92 93 95 92 93 96 98 99 98 98 99 98 99 97 99 98 98 99 98 93 95 98 96 97 98 96 96 97 95 92 91 95 80 93 90 97 96 96 95 98
97 98 100 100 100 99 99 92 96 90 96 100 98 97 99 100 96 94 98 98 98 98 98 100 100 99 97 98 100 100 99 98 99 98 98 93 92 95 95 97 98 97 96 95 96 97 99 100 100 100 99 100 98 96
92 97 98 100 100 98 96 96 100 100 99 99 100 100 100 99 100 98 97 98 98 98 94 96 96 98 97 98 96 99 86 99 99 96 92 92 91 95 94 97 98 97 96 96 97 98 99 100 100 99 98 100 97 96
98 98 97 98 100 100 98 96 98 100 99 100 100 100 100 98 98 98 96 98 98 98 98 98 98 97 96 97 97 96 93 98 94 78 79 81 84 92 98 97 97 97 97 97 98 98 98 100 100 100 98 99 98 96

GFSWCAN_sfc_rhum_012.txt.gz
RH
58 58 55 61 75 74 76 78 85 87 84 88 92 91 91 95 97 95 92 83 77 72 73 81 68 55 57 66 82 59 72 71 92 90 81 83 74 64 48 45 45 50 59 55 59 83 67 45 45 42 48 51 48 48
58 59 55 60 76 75 78 76 85 86 84 88 92 90 92 95 97 94 98 83 85 80 81 84 77 72 66 58 62 64 62 61 81 91 76 66 61 62 50 48 54 46 44 41 42 43 58 54 51 52 45 49 48 48
60 60 56 59 76 74 79 79 85 86 84 87 92 90 94 95 97 94 97 92 90 88 85 79 80 73 68 73 67 55 64 51 60 61 69 74 66 61 56 52 54 56 56 48 54 59 57 55 53 48 44 49 48 48
63 59 57 59 76 75 81 81 85 86 85 85 91 91 94 95 95 96 97 92 86 82 82 80 70 76 70 67 64 60 58 64 60 59 70 72 66 66 64 55 51 49 54 56 65 64 57 54 50 51 54 53 54 53
66 60 60 60 76 77 83 82 84 87 88 85 91 93 94 95 95 96 97 96 90 84 83 85 76 73 72 67 66 62 61 61 60 70 73 75 72 72 78 65 60 53 50 49 46 48 46 48 51 53 54 57 54 57
65 62 62 61 78 76 84 85 86 89 88 91 94 94 94 95 97 97 99 99 97 90 91 98 79 76 72 72 72 73 72 70 73 75 84 81 79 66 81 70 55 53 55 49 45 47 56 48 53 54 58 62 62 59
64 64 62 63 78 78 86 86 86 92 92 94 94 94 95 97 96 97 95 97 98 96 90 99 99 79 73 75 77 73 72 80 75 83 83 80 79 69 70 66 49 59 58 60 57 57 67 58 62 60 63 66 69 66
65 65 63 64 77 80 86 86 87 90 96 93 93 95 97 94 95 96 95 90 94 94 89 100 99 95 76 88 86 79 80 79 84 84 83 75 82 74 77 61 60 64 63 61 64 64 54 63 68 75 76 75 71 64
65 65 64 66 74 78 85 87 87 93 95 94 96 96 96 94 97 96 89 86 91 85 97 94 100 100 82 94 91 87 90 94 89 83 84 79 78 92 70 60 65 69 66 73 82 84 86 87 96 93 86 71 58 59
66 65 64 68 73 77 87 86 91 96 95 95 92 93 100 96 90 88 82 86 97 96 91 88 82 99 90 90 96 89 90 98 100 97 91 95 84 68 65 59 61 68 73 78 91 100 99 100 99 89 61 57 54 60
66 66 65 71 74 83 88 88 95 95 94 94 96 98 100 89 81 89 99 97 90 99 86 88 79 94 84 91 91 87 97 97 100 87 86 92 88 76 76 78 77 80 77 68 64 66 62 59 59 58 60 62 65 68
66 66 66 73 75 86 88 90 95 94 96 89 95 95 91 85 92 96 98 99 98 94 96 91 91 81 87 83 89 86 96 88 92 80 91 91 76 73 75 76 72 70 68 62 57 51 44 46 48 51 57 62 65 70
66 66 68 75 80 84 90 91 94 94 88 92 94 100 92 99 98 94 99 100 99 99 100 99 99 85 81 78 86 80 89 87 82 92 86 76 74 75 73 76 78 70 57 52 53 53 54 57 60 57 60 64 69 73
67 65 72 78 81 86 91 93 95 95 95 98 100 100 98 100 93 89 83 92 88 99 99 95 98 90 78 90 79 87 79 75 89 93 82 62 70 66 70 79 76 64 54 53 55 55 58 57 56 59 58 60 64 65
66 67 76 84 77 86 94 92 95 97 98 100 99 99 100 94 96 92 94 97 99 94 95 96 97 81 92 91 77 90 94 89 73 75 71 76 81 77 76 81 75 61 60 55 52 51 52 52 52 55 54 53 59 60
65 78 84 77 77 86 95 94 97 98 100 100 100 96 92 97 98 96 98 100 99 85 88 91 96 94 97 88 89 91 82 84 77 88 79 75 64 64 68 70 62 56 51 51 51 52 56 57 58 60 59 55 50 48
74 90 80 78 78 84 94 98 99 100 100 100 98 82 90 93 93 90 84 88 80 81 92 91 88 91 91 95 94 83 88 80 85 81 76 76 72 63 55 55 56 55 55 56 57 56 60 67 67 63 65 62 51 46
89 90 84 77 83 92 97 100 100 100 98 98 96 95 84 82 85 83 92 88 86 84 82 88 86 98 96 98 96 85 86 93 87 80 79 70 65 65 67 66 71 71 70 68 76 81 83 83 74 72 74 69 69 66
86 84 76 81 89 99 100 100 100 98 98 97 95 93 91 94 94 91 90 85 84 81 88 85 81 86 78 78 81 92 93 85 76 71 69 65 64 68 78 89 89 87 84 80 71 69 72 72 69 66 59 57 57 56
74 78 79 83 92 100 99 99 100 98 98 99 98 97 96 97 99 96 92 91 92 99 96 83 61 61 64 72 78 80 78 71 69 73 78 75 74 88 89 85 76 78 76 82 83 77 71 67 63 61 60 58 58 58
82 86 80 88 99 100 99 98 98 99 98 96 98 97 98 100 100 100 100 99 100 99 86 74 82 84 84 80 74 71 71 60 59 57 68 79 75 76 81 83 83 75 72 74 73 75 70 68 68 66 74 55 52 60
94 76 88 88 97 98 97 98 98 97 96 97 97 98 98 98 99 99 100 99 98 92 81 78 85 82 83 82 80 78 80 79 80 76 74 74 77 81 82 84 80 88 86 86 80 78 73 68 63 60 60 65 66 64
81 82 89 89 87 87 96 97 97 96 96 97 97 97 97 97 98 99 97 96 93 91 87 86 88 81 81 78 76 78 73 72 78 79 77 79 81 84 86 81 83 91 92 85 74 75 80 70 65 63 62 64 63 62
66 88 95 95 92 97 83 96 93 95 96 94 95 94 95 96 97 97 95 93 93 88 85 86 79 82 80 87 83 86 85 77 83 85 81 81 89 87 82 80 76 79 77 79 81 82 74 69 69 69 70 73 73 65
79 86 87 92 90 89 95 95 96 93 95 95 94 95 95 94 96 96 94 94 93 93 90 83 80 81 90 92 85 87 84 80 82 89 85 75 82 82 88 83 81 83 77 89 82 78 78 74 73 75 76 76 78 74
94 97 92 98 95 90 93 95 96 96 94 95 94 94 95 95 95 95 91 93 94 93 94 94 88 84 81 77 81 81 86 81 76 84 88 78 75 84 92 91 91 89 76 74 80 75 75 76 76 83 78 78 75 74
88 97 91 79 88 86 86 81 78 87 96 96 94 94 94 95 95 90 89 90 92 92 92 91 92 82 84 84 82 83 84 87 88 87 84 83 80 74 84 88 89 80 72 72 71 70 74 76 78 78 80 80 78 75
82 87 91 92 95 93 96 95 96 94 90 83 92 95 94 89 91 90 91 91 92 93 92 88 85 86 88 89 86 85 89 88 89 85 78 79 81 86 85 81 80 76 77 77 74 76 77 79 80 81 80 76 77 74
96 93 88 99 99 100 100 94 91 90 86 88 86 89 92 84 91 91 89 90 91 88 88 89 93 91 91 88 89 88 88 85 86 90 91 92 90 93 89 87 86 84 82 80 80 89 93 87 84 79 79 73 75 79
93 96 97 97 100 100 99 94 98 94 86 85 80 87 86 89 90 87 88 89 90 92 94 92 93 92 94 92 94 93 91 90 84 81 89 91 90 90 88 85 82 79 77 82 87 82 76 80 80 78 79 78 75 79
94 96 99 100 100 98 96 90 92 84 93 96 94 93 93 94 89 87 89 90 91 93 93 94 95 93 90 91 93 93 94 90 93 91 88 86 87 87 86 84 81 79 76 74 76 78 83 84 86 87 84 91 92 85
93 95 96 100 100 96 94 95 98 99 98 97 98 98 97 94 98 91 91 94 94 93 91 93 91 92 89 90 89 91 84 93 92 90 88 85 84 86 86 84 86 82 81 82 84 85 89 91 88 88 86 92 92 89
97 97 97 97 100 100 97 96 96 99 97 100 98 97 97 94 98 92 89 92 95 93 92 92 92 92 93 94 95 92 90 91 88 79 77 79 83 87 84 83 83 84 85 85 86 87 91 94 92 93 93 95 94 90

GFSWCAN_sfc_rhum_015.txt.gz
RH
65 62 61 56 56 58 64 76 73 76 81 84 85 86 94 92 94 95 96 89 74 65 59 64 57 55 89 93 80 66 89 74 85 90 82 76 66 52 52 54 70 69 82 89 76 84 84 37 41 39 46 42 36 35
66 61 62 57 56 58 63 78 74 77 81 84 87 86 94 92 96 94 99 90 72 85 77 70 67 66 66 70 85 65 68 75 84 96 76 71 74 56 44 54 42 59 45 44 43 52 50 42 45 43 40 42 42 43
68 63 62 61 57 59 63 74 75 78 81 84 87 88 93 92 96 94 98 96 90 94 80 74 70 70 62 69 75 89 86 63 74 79 85 73 72 58 59 50 41 42 44 39 40 47 48 44 46 44 39 42 42 42
69 66 63 62 59 60 66 74 75 80 82 85 85 88 93 93 95 94 97 96 86 72 77 76 62 71 64 62 66 62 71 62 53 61 90 82 64 58 56 50 44 42 46 45 47 56 53 50 46 46 46 45 46 45
70 67 65 62 61 61 67 72 78 80 82 87 90 91 93 95 96 96 97 98 84 85 76 77 70 69 63 58 60 58 51 52 53 70 74 76 68 66 64 56 51 46 41 45 39 42 40 44 44 46 49 51 51 54
68 67 65 63 62 61 68 72 77 80 83 88 93 93 95 96 96 97 99 99 89 88 84 89 74 70 68 59 59 61 61 60 60 64 74 70 66 63 78 66 44 40 41 42 39 39 43 44 47 45 50 52 50 52
66 67 65 63 63 62 69 70 73 79 85 90 94 96 95 97 95 98 95 98 94 91 90 99 90 73 68 67 68 64 62 73 68 74 74 69 67 67 64 64 44 43 44 48 46 47 54 51 56 49 53 55 56 52
66 66 66 64 63 63 71 71 77 79 87 90 94 95 96 95 96 98 98 96 97 95 87 100 99 90 71 77 81 71 74 73 79 78 74 68 72 67 74 56 43 47 49 50 50 52 48 48 52 58 62 63 61 53
69 69 69 65 64 65 71 74 79 81 89 92 96 96 96 97 98 97 91 95 94 96 99 99 100 100 76 88 79 74 77 82 80 78 73 74 68 91 67 55 51 55 57 60 68 69 69 74 84 84 76 59 48 50
70 71 68 65 65 70 72 79 81 85 90 97 93 98 100 98 94 90 94 97 99 99 94 92 79 99 86 88 95 86 87 93 100 89 81 86 84 64 58 52 48 56 59 76 92 100 100 100 96 69 48 40 42 49
70 71 67 66 66 72 75 81 87 89 96 99 99 98 99 90 83 89 100 100 94 100 83 81 73 92 80 90 91 88 98 100 100 87 85 85 81 67 65 61 60 64 68 63 56 65 64 66 59 47 49 50 52 55
70 69 67 65 70 74 79 86 90 96 98 94 96 92 90 87 92 98 99 98 97 93 92 84 83 70 80 82 90 89 98 92 99 76 90 88 70 66 64 64 64 60 58 58 56 53 51 46 41 45 51 55 55 58
71 67 67 65 73 78 77 90 91 92 94 98 96 100 89 99 99 100 98 99 97 99 100 98 98 77 76 83 91 83 99 92 77 89 84 76 76 76 70 66 64 58 54 50 45 46 48 49 52 51 52 53 58 63
68 68 64 72 74 74 80 90 90 95 97 100 100 100 100 100 91 90 82 96 87 99 99 93 92 85 70 90 76 98 77 74 88 90 79 58 67 67 69 68 64 56 48 47 52 53 57 56 55 52 53 54 56 59
68 64 71 72 75 75 82 92 91 98 99 100 99 100 100 94 96 95 100 98 97 93 91 94 95 73 92 94 73 88 93 90 76 72 72 79 78 75 75 66 53 48 47 48 49 52 50 51 50 52 52 53 54 55
64 69 70 75 76 74 91 96 97 98 100 100 100 99 92 98 99 96 99 100 95 86 90 91 98 98 96 88 87 87 81 82 82 96 81 72 65 67 71 59 51 49 47 47 47 48 50 51 52 54 52 49 48 49
66 70 75 69 74 80 92 99 100 100 100 100 100 75 89 96 95 88 82 92 75 83 99 95 95 95 83 90 84 76 82 87 94 83 71 72 78 74 68 58 56 51 47 47 50 50 52 58 56 56 60 56 46 44
69 78 72 75 81 92 97 100 100 100 98 100 96 91 76 75 81 80 84 81 81 81 83 100 86 97 92 92 85 86 87 90 82 76 72 66 66 63 59 55 58 60 59 61 76 81 83 81 69 66 75 71 70 61
75 76 75 77 86 99 100 100 100 98 98 95 93 88 83 89 87 85 86 81 79 78 89 84 93 89 78 77 88 96 92 80 72 61 55 51 54 62 77 87 85 83 82 78 61 61 64 63 62 58 54 51 52 49
69 72 75 80 88 100 99 99 100 100 97 99 97 95 95 97 98 84 86 90 94 99 100 96 58 54 60 69 75 77 76 64 62 67 72 68 72 87 90 81 73 76 72 76 76 70 66 62 58 56 55 53 54 55
71 73 76 80 94 100 99 97 98 98 98 94 98 98 98 100 100 100 100 100 100 100 93 71 72 79 77 70 65 66 64 53 52 54 70 78 71 77 82 83 80 70 66 66 64 66 63 62 62 63 73 53 53 53
80 74 79 77 94 95 97 98 98 98 97 97 97 99 99 99 100 100 100 100 98 96 93 86 91 83 78 76 75 72 70 69 70 71 73 69 74 81 82 82 80 86 83 84 78 75 70 64 58 56 59 64 59 50
69 69 79 84 86 81 94 95 96 96 96 96 97 96 96 97 98 100 97 96 94 93 81 81 82 74 73 69 69 70 64 64 67 68 68 73 76 81 85 80 84 92 91 80 72 74 76 65 61 61 63 64 60 54
58 81 89 86 84 91 74 93 92 94 94 93 94 93 93 96 96 97 93 90 93 86 81 81 73 77 74 80 75 77 74 70 74 73 70 76 84 78 73 74 75 78 76 75 77 78 71 66 65 62 63 65 62 58
74 84 83 85 83 86 91 90 94 91 94 94 95 95 95 95 95 95 93 94 93 93 88 76 75 72 83 85 78 81 76 68 75 80 74 70 77 78 83 77 76 75 72 85 80 77 75 70 69 70 68 67 70 75
87 94 91 89 89 85 86 92 93 95 94 95 94 94 95 95 94 95 90 92 94 94 94 93 84 80 76 71 77 79 82 71 70 82 80 69 71 84 92 90 89 88 72 72 77 74 73 73 73 81 78 76 70 70
79 89 80 72 78 75 75 70 70 83 94 95 94 94 94 94 94 86 84 89 91 92 92 92 91 77 81 82 79 79 77 84 84 84 75 72 71 74 83 87 90 82 70 71 70 68 71 70 71 71 75 73 73 70
72 78 91 86 84 84 90 83 87 91 84 83 91 95 95 93 91 86 87 89 92 93 93 92 92 92 90 88 85 83 87 86 86 80 73 73 75 78 81 78 78 73 74 72 71 71 70 72 73 72 75 73 76 71
88 82 80 98 95 91 93 89 87 84 80 82 86 91 90 83 90 89 89 91 93 93 93 92 93 92 89 85 85 85 82 80 84 88 88 90 86 90 82 79 79 77 77 76 73 80 86 80 76 74 76 70 73 77
93 87 90 97 98 92 92 87 91 88 77 78 74 81 81 87 91 91 91 92 92 93 94 94 94 92 92 90 92 90 87 84 81 79 87 88 89 89 87 85 84 85 85 81 81 83 79 78 77 74 76 75 74 76
87 90 94 90 97 92 90 84 86 76 86 90 86 88 89 90 88 88 89 91 92 94 94 94 94 91 87 87 89 89 92 88 89 87 85 85 87 86 84 80 77 76 78 81 78 77 81 80 82 85 82 90 91 81
87 94 94 100 97 91 91 92 94 93 93 91 92 90 91 88 91 85 85 89 88 88 87 86 86 88 85 84 84 86 82 90 88 86 84 81 80 81 79 79 83 79 76 76 78 79 86 89 85 85 80 90 92 90
94 93 95 94 96 96 92 92 92 95 92 94 93 91 94 90 94 88 79 85 90 89 88 89 89 86 90 89 89 86 86 88 87 77 75 77 79 81 82 82 80 79 79 78 80 81 88 92 90 92 92 94 93 91

GFSWCAN_sfc_rhum_018.txt.gz
RH
67 66 65 64 61 60 56 58 63 73 72 75 79 84 90 89 95 97 97 93 96 96 82 72 63 67 95 95 93 89 86 81 96 94 96 89 78 72 86 84 81 87 96 96 96 99 92 46 48 54 59 54 49 54
64 60 67 64 63 62 56 57 64 73 72 76 78 82 88 88 95 96 99 94 95 100 93 76 70 71 72 91 91 90 88 80 86 95 93 85 88 69 64 90 70 77 70 73 81 81 56 54 56 56 50 53 59 63
68 66 67 66 65 62 58 58 63 73 72 76 77 81 88 85 94 94 99 99 99 98 93 89 82 75 71 83 87 92 94 89 82 92 93 89 86 78 74 68 70 63 54 58 52 62 62 57 57 58 54 58 59 58
71 70 67 67 66 61 60 59 63 74 70 74 79 82 88 87 93 95 98 97 98 96 95 90 68 78 68 77 84 88 91 79 88 94 96 93 84 70 78 68 61 56 56 59 63 67 62 58 58 58 57 56 57 58
71 70 67 65 66 61 62 60 64 75 70 75 80 84 90 90 93 95 97 96 96 100 96 88 76 74 69 69 79 88 86 92 77 96 93 94 81 77 78 72 68 55 52 58 58 50 52 61 58 55 58 62 63 63
71 70 69 62 66 63 62 61 65 73 73 78 80 88 93 94 95 99 100 99 97 97 99 94 81 79 76 67 70 71 70 74 79 84 90 84 76 82 89 85 54 49 51 51 53 54 55 55 57 57 62 64 67 69
68 70 69 62 66 65 62 62 67 70 76 76 82 90 93 96 97 99 96 98 94 94 96 99 95 81 77 77 79 80 76 88 91 91 92 90 86 87 85 87 60 54 59 59 55 54 66 63 67 62 64 64 64 64
70 71 71 70 69 66 62 64 70 72 75 77 86 90 94 96 95 97 99 98 95 96 92 100 100 94 79 88 95 85 91 92 93 93 91 89 88 85 91 74 61 60 62 64 66 65 64 64 66 73 72 70 72 71
74 73 72 71 69 64 63 69 72 78 80 83 90 94 98 98 99 100 95 94 95 96 99 99 100 100 82 91 90 89 90 91 93 92 92 92 90 97 82 75 65 66 72 80 88 82 76 82 88 87 80 70 65 67
73 74 72 70 67 65 66 72 77 81 83 87 98 100 100 99 94 92 94 98 100 100 99 98 93 100 91 90 97 94 97 98 100 94 93 98 96 81 75 71 67 71 83 85 96 100 98 98 91 80 63 57 63 67
75 74 70 69 66 64 71 73 74 87 86 99 100 100 99 92 89 93 100 100 100 100 96 95 95 98 86 94 94 93 99 100 99 96 96 98 90 87 80 75 77 83 83 81 82 89 85 82 70 58 64 66 69 71
74 71 70 67 65 67 70 74 76 95 99 97 99 97 96 93 99 100 100 100 100 98 96 94 95 84 89 86 93 92 99 98 99 92 95 91 90 80 79 82 84 81 78 77 75 74 72 59 57 62 68 73 78 82
72 70 68 66 65 71 69 74 80 90 92 98 100 100 97 100 100 98 97 96 94 99 100 98 98 90 88 90 94 95 98 97 90 91 89 93 92 87 82 84 82 76 66 58 58 56 58 61 64 63 70 74 80 86
69 68 64 67 71 72 67 74 86 95 99 100 100 100 97 100 95 98 94 94 96 100 100 95 94 94 88 96 93 91 93 90 97 99 91 95 86 88 86 83 69 61 54 56 60 61 63 63 68 70 71 74 76 80
66 63 67 69 69 68 72 83 89 97 99 100 100 100 98 99 98 99 100 98 100 94 92 95 95 89 98 95 92 89 95 99 90 90 94 97 93 91 88 73 63 59 57 57 56 62 64 65 68 72 72 72 71 68
64 66 71 67 69 71 77 94 96 98 100 100 100 99 96 97 99 95 99 100 98 88 98 96 99 96 96 95 97 94 94 92 88 98 98 93 91 90 78 64 60 57 54 55 59 62 65 65 65 66 64 64 65 65
66 77 68 71 72 75 86 99 100 100 100 100 99 86 97 98 97 96 89 95 79 83 98 97 92 92 92 96 97 89 91 96 99 97 97 92 92 81 66 69 67 59 56 60 63 67 73 70 70 68 67 62 59 57
78 77 70 71 75 81 97 100 100 100 98 100 99 96 88 90 93 93 93 86 91 96 97 99 92 96 96 95 96 95 99 99 97 96 96 92 88 73 67 70 69 66 74 83 87 90 87 85 82 80 82 82 75 71
74 70 69 73 82 98 100 100 100 99 99 99 99 97 94 95 95 93 94 85 87 90 91 96 93 97 96 96 98 99 96 97 86 84 83 76 67 77 84 85 83 83 83 86 81 83 84 80 77 73 70 68 66 65
62 66 71 75 81 94 98 99 100 99 98 99 100 99 99 99 98 90 90 92 97 100 95 92 81 79 83 88 95 96 94 72 71 86 94 91 81 83 84 80 82 85 84 85 82 77 77 72 70 71 71 67 67 69
75 79 74 82 90 94 99 98 98 99 99 99 99 99 99 100 100 100 100 100 100 100 97 85 89 89 89 87 80 80 73 60 68 71 84 92 84 84 89 90 86 79 79 78 78 77 76 79 86 81 80 63 60 60
87 71 89 85 97 95 98 99 98 98 99 99 99 100 99 99 99 100 100 99 99 99 99 90 93 88 85 85 85 82 77 74 74 77 80 81 90 91 91 92 86 91 92 92 88 87 85 82 72 76 79 77 66 62
72 74 93 91 89 87 96 96 97 97 98 98 98 98 98 99 99 99 98 98 97 98 98 96 97 94 85 77 74 74 72 71 77 78 81 89 92 91 93 95 93 93 94 94 85 82 85 74 71 81 78 79 73 72
59 88 90 94 94 96 82 96 94 96 97 97 97 97 97 98 98 98 97 98 97 97 96 97 94 84 79 84 86 82 77 72 76 78 77 82 89 89 87 89 89 91 90 88 87 86 82 83 77 83 86 84 86 85
78 78 87 87 91 90 93 93 96 96 96 96 96 97 97 97 98 97 96 97 96 95 96 97 82 81 89 91 87 87 82 75 78 86 82 78 83 87 92 89 88 91 87 87 87 85 88 88 90 89 89 87 85 88
72 88 92 93 95 92 98 99 96 96 97 97 97 97 98 98 96 96 94 96 96 96 96 96 95 87 83 81 86 85 88 81 76 85 84 86 89 90 95 96 97 98 95 85 84 85 89 91 90 91 92 82 69 90
77 84 86 77 90 82 90 80 79 92 97 97 96 97 97 96 96 92 94 93 94 95 95 95 94 86 91 90 83 84 84 85 87 86 79 82 85 92 93 93 96 97 90 86 86 82 85 88 90 90 91 93 94 93
80 84 91 93 96 97 98 96 96 98 95 87 93 96 96 95 94 93 94 94 95 95 96 95 95 90 91 91 89 87 89 86 85 82 80 84 84 89 88 85 82 74 84 88 88 88 88 89 90 90 90 94 95 93
95 88 92 99 98 99 100 99 99 97 85 94 98 96 94 88 95 94 93 94 95 96 95 94 95 95 94 94 94 94 90 90 88 91 95 98 98 97 96 88 88 88 91 82 74 86 89 90 90 89 90 92 95 95
99 98 97 100 96 98 100 99 99 96 87 86 82 91 91 92 94 94 94 94 94 96 96 96 96 96 96 94 95 93 91 89 90 88 92 94 98 97 95 94 94 93 94 94 93 86 79 90 85 93 93 95 95 96
97 97 98 97 100 100 100 96 98 90 96 98 97 97 98 98 94 94 94 95 96 96 96 96 96 96 95 94 94 93 97 94 93 91 89 89 91 91 90 90 92 94 91 90 92 92 93 95 97 97 96 98 96 94
94 99 99 100 100 99 99 100 100 100 100 98 100 99 98 98 97 96 94 95 96 95 94 95 94 95 93 93 93 92 87 95 92 89 87 87 87 87 87 89 92 89 88 89 91 93 96 97 97 98 96 97 98 97
99 99 99 100 100 100 100 98 99 100 98 100 100 100 100 99 98 99 96 97 99 96 96 97 97 96 96 96 96 94 91 91 83 77 78 78 79 84 88 89 88 89 88 92 94 94 94 98 98 96 97 100 98 96

GFSWCAN_sfc_rhum_021.txt.gz
RH
67 64 67 65 66 66 63 63 56 58 64 71 72 74 80 88 91 98 98 94 95 97 87 76 72 78 97 95 96 95 95 94 98 98 95 92 91 93 92 76 85 88 94 96 95 98 91 52 49 52 57 61 70 72
65 68 68 67 66 66 64 59 58 58 63 70 72 72 78 85 89 95 99 95 95 99 96 85 76 73 70 86 93 98 96 89 91 95 96 93 88 79 92 91 85 85 77 88 80 74 60 62 61 60 58 62 73 72
65 64 68 68 66 65 65 59 58 60 62 70 71 73 78 86 88 96 99 99 98 99 92 95 89 84 77 84 90 95 96 94 90 94 93 87 91 84 78 76 86 79 63 72 66 63 67 64 63 60 62 67 68 66
67 66 69 69 67 63 66 60 59 60 63 70 72 76 79 87 90 94 98 97 97 96 99 94 77 88 78 86 90 93 94 89 91 96 96 92 93 80 88 71 69 64 59 63 67 75 69 66 65 66 66 65 68 68
71 69 69 69 68 64 65 65 60 60 65 72 74 74 79 91 93 94 97 96 96 99 98 94 84 82 77 86 90 92 92 95 96 96 94 94 86 80 81 72 72 61 58 63 64 56 53 61 65 61 62 68 66 68
68 70 64 66 69 69 69 67 60 61 67 71 75 74 79 89 94 99 100 99 95 97 99 100 85 86 83 83 91 93 94 93 93 95 92 89 78 79 86 83 61 60 55 50 52 56 61 62 64 65 69 73 71 71
74 73 70 70 71 69 69 64 61 64 71 75 74 75 81 91 98 99 95 96 92 95 99 98 98 84 80 82 87 91 84 93 92 94 93 93 89 85 92 93 66 61 63 63 60 57 68 68 72 69 70 71 70 72
75 74 72 71 71 70 67 63 64 68 76 71 74 80 82 89 97 99 99 97 94 97 98 100 100 96 80 94 94 91 95 94 93 95 91 93 90 89 91 78 67 69 69 70 71 70 65 69 70 73 70 71 76 76
76 74 73 72 70 68 64 63 69 71 71 74 79 85 97 99 100 100 95 94 96 96 99 99 100 100 86 92 92 92 95 97 95 96 95 94 94 96 81 77 72 72 71 83 88 82 77 78 82 80 77 76 74 78
74 73 72 70 69 66 64 67 69 74 78 84 96 100 100 99 96 91 96 98 100 100 98 98 94 97 92 93 97 96 98 99 100 95 94 97 96 84 83 79 71 78 84 82 87 98 90 89 84 76 68 68 69 73
72 71 71 69 66 64 64 67 66 78 85 96 99 100 99 94 92 95 100 100 100 100 98 96 93 97 90 94 94 96 100 100 99 93 94 98 98 88 82 77 85 88 83 81 83 85 80 74 70 66 73 73 72 76
72 70 68 67 64 66 69 67 67 88 98 96 98 97 99 96 100 100 96 100 100 99 99 98 97 92 98 93 94 95 98 97 97 93 95 94 89 82 83 91 94 90 87 90 86 85 77 65 64 68 73 77 85 89
68 68 65 63 66 67 65 68 71 84 89 97 100 100 99 100 100 98 99 100 99 100 100 99 98 85 93 96 96 95 95 98 91 95 93 90 92 87 88 91 91 87 84 82 74 62 63 71 70 72 84 88 89 91
67 65 65 65 69 67 68 67 77 89 99 100 100 99 99 99 97 92 86 94 94 99 99 93 96 92 86 94 91 89 95 91 99 99 90 92 88 91 91 89 73 74 66 60 62 62 66 70 78 79 80 84 84 88
66 67 66 70 64 68 69 74 85 97 100 100 100 99 99 98 99 99 100 99 100 94 88 92 95 86 98 92 92 92 98 100 89 86 90 97 96 93 84 70 70 66 60 60 59 63 68 71 74 79 77 74 70 67
67 67 74 62 69 69 70 92 96 98 100 100 100 99 97 97 99 98 99 100 99 86 95 93 98 94 96 94 98 93 89 89 82 94 98 98 95 89 79 72 67 58 56 58 60 64 68 69 70 72 72 71 70 65
68 86 66 71 68 72 79 99 100 100 100 100 99 97 97 99 100 98 96 96 82 82 92 95 85 78 94 99 98 93 89 88 98 99 99 97 93 80 72 72 69 60 59 61 64 66 69 66 63 62 67 67 63 63
90 81 74 67 73 79 96 100 100 100 99 99 99 99 88 92 97 96 96 90 94 98 95 89 92 98 95 92 95 93 100 100 99 98 97 92 85 78 70 73 70 68 70 72 80 82 81 81 74 70 76 77 74 69
78 71 68 69 80 96 98 98 100 99 99 99 99 99 97 97 96 95 96 88 90 92 92 96 94 97 95 96 98 100 99 98 96 97 94 81 74 78 82 83 81 81 81 83 80 84 86 80 71 66 66 63 65 65
63 67 70 71 76 91 98 97 99 99 98 98 99 99 99 99 99 94 94 93 98 97 88 88 86 86 89 93 97 98 96 85 87 93 94 93 85 82 80 74 74 82 82 83 81 76 76 72 68 68 68 64 66 72
82 83 74 85 95 92 100 99 97 99 99 98 99 99 99 100 100 100 100 100 100 99 96 90 93 94 94 95 91 85 72 73 81 84 86 94 84 81 84 85 82 77 80 82 81 79 75 75 82 77 78 63 63 61
91 72 92 89 94 92 97 98 99 98 99 98 98 99 99 99 99 99 100 98 98 98 99 96 98 96 88 86 90 80 78 78 79 81 81 80 86 85 84 85 82 91 92 92 87 88 84 79 76 74 74 75 62 56
76 77 92 89 80 84 85 96 96 96 98 97 97 98 98 98 98 99 98 97 96 97 97 97 97 89 83 80 79 83 79 79 85 85 84 91 92 88 90 93 88 90 94 96 84 81 84 77 73 75 70 76 72 73
62 88 86 91 92 90 83 94 95 97 98 96 97 96 97 98 97 98 97 98 97 93 95 97 97 96 92 90 89 88 82 77 83 83 80 83 94 97 91 91 89 91 86 84 85 86 85 85 80 78 76 77 82 82
66 68 81 86 92 88 96 96 96 96 97 97 96 96 97 97 97 96 97 97 95 94 94 94 96 96 96 95 93 94 82 75 80 87 84 80 88 89 93 92 92 89 76 84 84 86 90 85 84 82 83 82 85 90
63 76 74 95 96 90 98 100 99 98 98 97 97 97 98 97 96 96 94 96 96 95 95 96 96 96 93 93 93 94 93 77 75 87 90 82 80 86 93 94 95 94 88 76 81 82 84 84 83 84 84 77 72 92
73 79 89 80 92 88 91 84 81 96 100 98 96 96 96 96 95 92 92 92 94 95 94 95 96 94 94 93 91 86 82 86 89 92 86 85 86 85 88 91 94 95 81 79 76 74 79 84 88 88 90 93 95 92
78 79 84 90 97 98 97 98 100 100 99 86 91 96 96 95 93 93 94 94 95 95 95 95 95 95 94 94 93 89 90 87 87 83 79 82 85 87 86 84 82 78 83 83 81 79 80 82 84 86 86 90 97 96
97 91 91 100 99 100 100 99 100 99 90 99 99 96 93 88 95 94 93 94 95 96 96 95 95 95 95 94 94 93 88 88 82 90 93 95 93 95 94 87 87 82 80 77 73 86 90 87 86 87 90 92 95 97
98 97 98 100 95 96 97 98 99 96 91 92 86 93 89 91 94 94 94 95 95 96 96 96 96 96 96 94 95 95 94 94 94 86 89 93 94 96 91 89 88 87 82 80 79 78 76 86 85 95 92 92 96 96
98 98 99 99 100 100 99 98 98 93 96 100 99 98 95 97 94 94 94 95 95 96 96 96 96 96 95 95 95 94 95 93 92 88 85 88 91 92 93 92 92 88 86 83 84 87 89 94 94 95 92 96 97 95
98 100 97 100 100 98 99 100 100 100 100 100 100 100 97 96 97 94 94 95 96 95 94 95 94 95 95 95 94 88 87 91 89 85 85 86 88 89 89 88 86 83 81 82 86 88 90 92 95 94 93 99 98 97
100 99 100 100 100 100 100 97 100 100 100 100 100 100 100 99 96 94 93 95 95 95 95 95 95 95 95 94 92 89 88 88 81 77 78 79 82 85 85 84 82 80 82 84 89 89 91 94 98 97 98 98 98 97

GFSWCAN_sfc_rhum_024.txt.gz
RH
67 68 63 60 67 69 66 66 64 57 56 62 65 72 73 80 88 97 99 95 94 97 86 71 67 88 98 94 96 95 99 93 98 97 94 94 92 94 93 72 90 87 91 95 95 98 89 60 48 56 52 77 78 80
67 64 66 64 66 68 65 65 64 58 58 60 65 72 74 76 84 93 99 97 96 98 95 87 76 71 69 80 93 98 97 92 90 93 95 95 93 95 92 98 88 93 82 93 82 81 66 71 69 70 63 70 77 82
67 70 71 69 67 68 66 62 66 62 58 59 64 71 73 74 83 93 99 99 97 98 92 93 88 78 77 84 87 96 96 94 96 91 93 90 91 76 91 92 92 86 77 85 78 73 77 66 67 67 67 73 76 74
71 68 66 70 66 68 67 64 67 66 59 61 66 70 73 74 84 92 99 97 95 96 98 91 80 88 80 86 92 94 97 96 98 98 96 90 89 84 84 74 85 82 70 68 72 76 73 71 74 72 75 74 75 75
71 70 72 72 69 66 68 67 68 64 60 64 69 74 72 75 86 94 97 96 94 98 99 96 84 84 83 88 91 94 94 97 99 99 94 93 89 81 87 83 82 65 67 70 75 57 55 60 70 69 70 75 74 73
72 68 71 73 71 68 68 67 67 62 63 65 70 74 70 74 85 98 99 99 96 95 98 100 86 83 89 91 93 95 96 95 98 97 94 94 80 82 89 86 60 57 55 55 54 63 67 67 69 70 72 74 74 75
74 74 73 74 72 70 68 67 63 62 67 69 72 71 72 77 95 99 94 93 92 94 100 99 97 85 80 88 94 95 96 98 98 96 96 90 84 83 92 95 68 64 66 68 64 59 68 69 74 71 72 74 75 78
76 73 72 72 71 68 68 64 63 67 68 68 72 73 76 79 92 99 99 95 90 98 98 100 100 95 81 94 96 95 98 97 92 97 93 94 90 91 93 79 70 74 73 73 77 72 68 76 75 78 74 74 81 86
73 72 70 69 69 66 63 63 66 66 67 74 77 82 92 98 100 99 96 94 94 94 99 100 100 100 87 94 92 92 96 99 95 97 96 95 94 95 78 75 74 76 72 88 90 82 78 80 83 83 81 80 81 85
72 71 70 68 66 64 64 67 64 62 73 84 95 99 100 99 96 93 97 99 100 100 98 98 94 99 92 93 98 94 98 99 100 94 93 97 97 85 84 83 73 77 84 82 86 94 90 89 86 84 75 73 72 76
72 70 68 66 64 64 67 64 65 70 85 98 99 99 96 96 95 98 100 100 100 100 99 96 95 98 92 94 94 94 99 100 98 94 94 98 98 91 84 84 83 86 82 84 82 82 78 74 74 76 80 80 78 70
70 68 67 65 65 66 66 65 66 83 98 96 98 98 98 99 100 100 97 100 100 98 99 98 98 95 96 93 95 94 97 98 96 94 96 98 90 83 85 92 94 91 88 88 83 81 75 68 67 72 76 79 74 78
69 68 67 66 65 67 65 67 66 75 87 97 99 100 100 100 100 99 99 100 100 100 100 99 99 92 97 95 98 94 96 98 91 98 93 90 91 86 89 95 95 92 92 89 76 70 69 73 72 72 77 78 80 84
70 69 69 67 59 62 69 68 69 88 100 100 100 98 99 99 98 96 94 96 94 98 99 92 96 93 87 96 94 94 94 90 100 100 85 94 89 90 93 93 92 94 83 74 72 70 70 72 77 76 77 79 87 91
70 71 74 68 62 70 68 71 82 96 100 99 100 98 100 99 99 99 99 99 100 95 90 93 95 84 96 93 88 94 98 100 88 82 90 96 94 96 91 83 81 77 72 69 64 67 74 76 82 88 85 85 84 82
71 71 76 62 72 68 72 89 96 98 100 99 100 99 99 99 99 98 100 100 100 92 95 93 93 89 93 93 97 92 90 88 80 94 97 98 95 89 85 81 77 67 64 62 65 68 71 73 77 77 72 70 68 65
71 87 67 74 69 71 77 98 96 99 99 99 99 98 99 99 98 97 93 94 92 87 94 94 84 81 94 99 94 91 86 86 95 99 99 98 93 84 78 76 72 66 64 65 65 67 70 69 66 66 70 70 66 67
91 84 77 68 71 87 85 100 98 99 99 99 99 98 99 90 95 96 94 96 95 98 91 84 90 99 95 87 91 90 100 100 99 98 99 93 88 83 74 74 71 68 67 68 75 76 76 76 72 72 78 78 75 69
83 76 66 68 78 82 98 92 98 100 97 99 98 99 99 98 95 97 97 90 89 93 91 94 90 94 91 94 94 100 100 99 98 98 93 86 79 79 83 85 81 79 80 78 70 71 75 69 66 65 63 60 64 61
68 69 70 69 74 88 98 96 96 99 99 98 99 99 99 99 99 98 93 91 94 95 86 90 82 86 91 93 98 98 98 96 93 94 91 89 90 86 84 78 76 80 80 83 83 77 74 70 67 65 66 64 62 64
81 82 75 86 97 90 100 99 99 99 99 100 99 99 99 100 100 100 100 100 100 99 95 91 90 94 94 96 93 93 90 85 90 88 79 87 88 84 88 84 78 72 74 80 78 74 71 71 75 75 81 69 64 57
89 73 90 84 92 89 98 98 100 97 100 98 98 98 98 99 99 99 100 99 98 98 96 98 99 98 96 92 90 84 87 87 86 80 79 79 85 85 83 83 79 86 88 90 86 86 87 83 73 70 70 73 67 64
76 73 90 88 74 77 74 96 97 98 99 96 97 97 98 98 98 99 98 97 96 93 95 96 99 94 89 87 86 88 85 85 88 85 81 85 88 86 86 85 84 89 92 95 84 84 86 73 71 71 68 68 69 72
60 87 83 85 89 82 79 92 88 98 97 97 98 96 97 98 97 97 96 96 95 92 92 95 98 98 91 92 91 92 92 86 86 84 81 82 91 90 84 84 83 88 83 81 84 87 83 78 73 74 74 75 77 79
66 62 76 70 91 85 98 95 97 97 100 99 98 96 97 98 97 96 94 95 94 94 94 92 94 96 96 97 97 95 87 82 85 95 90 82 88 88 91 87 83 82 78 86 88 87 89 80 76 75 74 74 81 89
72 71 69 84 92 84 95 99 99 100 99 100 98 97 98 97 96 95 93 95 96 96 95 96 95 94 93 93 93 94 98 84 77 87 96 92 83 85 91 91 92 91 86 76 83 84 81 76 74 79 79 72 73 92
78 77 88 80 91 90 92 85 83 97 100 100 98 97 98 97 96 92 90 92 94 95 94 95 95 95 95 94 93 94 94 95 95 94 92 88 84 84 87 87 88 86 75 77 77 74 74 73 76 82 90 91 92 92
78 77 89 93 98 98 94 99 100 100 100 90 87 98 98 96 95 95 95 95 94 94 95 96 96 96 95 95 95 94 94 94 94 87 81 83 83 85 86 83 81 78 80 81 76 74 73 76 81 83 82 86 95 96
99 92 92 100 100 100 100 97 98 99 90 100 100 97 97 89 99 97 90 93 94 96 96 96 96 96 95 95 95 96 96 94 92 95 92 93 93 94 88 85 83 81 79 76 73 84 86 80 77 77 83 85 93 98
97 96 98 100 98 96 96 98 100 97 94 93 89 98 94 98 98 97 95 94 95 96 96 97 97 97 96 95 96 95 95 96 96 91 92 93 94 93 88 85 84 82 78 76 75 72 70 80 83 92 93 95 96 93
97 98 99 99 98 100 99 95 97 92 96 100 99 99 99 97 96 95 95 95 96 96 96 96 96 96 96 96 96 96 95 95 95 94 92 88 87 87 88 88 89 87 86 85 86 86 89 92 90 89 90 96 96 92
99 100 98 99 100 98 98 100 100 100 100 100 100 100 99 99 98 96 94 96 95 95 94 95 95 95 96 95 95 95 94 94 92 88 86 88 91 90 88 86 85 83 81 81 82 83 86 90 92 91 89 96 96 96
99 99 100 100 100 100 100 98 100 100 100 100 100 100 100 99 97 98 96 95 96 95 95 95 96 95 95 95 95 94 91 88 83 79 81 83 85 88 84 81 79 77 79 81 85 85 87 90 95 94 95 96 98 97

GFSWCAN_sfc_rhum_027.txt.gz
RH
68 68 67 70 68 64 66 66 63 64 63 57 57 62 71 76 80 94 96 97 98 97 89 74 74 92 98 93 96 91 98 96 98 98 97 93 86 88 87 70 90 91 90 87 95 97 85 62 51 56 54 78 82 82
66 65 68 66 69 68 62 67 64 66 66 60 59 61 70 72 78 88 99 98 96 95 94 91 83 76 74 83 91 98 96 93 92 90 93 92 95 94 92 96 90 91 82 90 86 82 68 75 73 75 68 72 83 88
70 70 68 69 65 69 65 66 67 65 66 60 60 62 69 72 74 87 98 99 97 98 93 94 89 80 74 84 86 94 96 91 97 94 91 90 92 93 98 96 92 88 83 89 82 76 78 75 75 72 73 80 85 83
74 69 67 65 66 70 68 68 67 66 65 60 63 66 70 71 72 81 99 98 97 96 98 90 80 87 79 90 95 94 96 95 98 98 96 92 94 86 91 82 90 85 82 81 80 71 74 75 73 74 78 76 76 76
70 72 72 71 71 70 70 69 67 67 62 62 64 69 75 70 72 88 96 98 95 98 99 96 84 88 89 90 95 96 97 98 99 99 99 96 92 87 92 88 90 70 77 77 78 61 56 61 71 75 75 76 74 73
73 73 72 70 71 72 69 67 66 63 62 65 68 68 70 72 74 97 100 99 95 94 98 100 88 85 93 94 95 96 97 97 99 100 97 95 82 76 90 93 70 68 61 63 61 68 74 75 74 75 77 76 73 73
74 72 69 68 68 67 68 64 62 62 64 66 65 65 68 72 89 98 98 99 95 92 99 100 98 88 86 94 96 96 96 98 99 98 98 93 86 87 88 94 72 69 64 68 72 66 74 74 75 76 76 78 79 80
72 70 69 68 66 64 63 62 64 65 62 64 67 70 75 79 83 98 97 93 94 97 99 100 100 95 83 96 98 98 98 99 96 98 93 96 90 91 93 80 76 76 77 75 80 77 67 74 76 80 78 77 83 87
72 71 69 67 65 63 63 65 64 63 62 70 79 82 90 97 99 99 96 93 94 94 100 100 100 99 89 95 93 95 97 99 95 96 96 95 94 95 77 71 77 78 76 85 90 85 80 82 87 88 86 84 87 92
73 72 68 67 66 65 65 65 63 65 70 82 91 99 100 99 94 98 99 100 100 100 97 98 95 99 95 95 98 95 97 99 100 95 94 99 98 86 83 81 77 77 85 82 86 95 92 92 90 86 81 81 81 87
73 71 69 67 67 65 63 64 63 69 76 97 98 99 97 89 99 98 100 100 100 100 99 97 95 98 93 94 95 95 99 100 98 94 96 95 98 92 85 85 84 86 83 84 80 81 78 76 79 82 84 83 80 74
74 71 70 69 68 62 62 63 66 84 94 94 98 98 98 98 100 100 100 100 99 96 99 98 98 94 97 94 95 95 97 98 94 95 96 98 93 86 86 92 92 90 86 84 83 79 78 74 73 76 78 80 73 67
73 72 71 70 69 58 64 68 66 72 87 98 99 100 100 100 100 99 99 99 100 100 100 99 99 96 98 93 97 95 94 95 92 98 97 93 91 86 89 95 96 92 90 86 80 75 73 76 74 73 81 76 67 66
73 72 72 71 60 65 69 68 70 86 99 100 100 98 99 99 99 98 98 98 97 100 99 95 97 94 90 97 97 98 94 91 100 100 88 93 86 86 94 95 94 96 86 80 78 74 74 74 76 76 75 70 69 72
72 72 74 66 66 71 67 72 83 96 100 100 100 98 99 100 99 98 100 99 98 99 95 93 96 82 96 96 88 95 97 99 90 84 91 93 91 98 96 94 93 86 81 78 75 76 78 76 82 88 84 79 76 72
72 74 68 66 74 68 70 87 96 98 100 100 99 99 99 99 98 98 99 99 100 98 96 95 92 93 91 92 97 94 93 91 82 94 96 98 96 93 92 89 85 78 73 74 75 76 78 79 85 84 78 78 74 64
73 87 65 77 70 71 75 97 99 99 99 97 99 98 99 99 98 99 93 93 90 96 98 92 89 81 93 98 94 91 87 86 94 97 99 99 96 92 89 84 82 76 75 73 72 72 74 74 74 74 77 72 67 66
92 87 82 69 72 85 84 100 98 98 97 99 99 98 94 96 99 96 90 90 98 98 91 87 91 99 93 88 90 88 96 98 99 99 99 94 92 88 80 82 80 77 75 72 78 78 78 77 73 75 80 77 74 70
87 82 70 68 77 93 92 95 98 99 98 95 94 97 93 94 98 98 98 95 90 93 92 92 91 94 91 92 91 97 99 99 98 98 94 90 86 85 86 86 84 84 81 78 69 70 72 68 68 66 63 59 62 61
72 70 70 70 75 96 98 96 94 96 100 96 96 98 98 95 98 99 98 96 94 97 96 92 86 82 85 87 91 98 97 95 96 97 97 95 94 90 88 82 79 80 78 75 75 73 71 67 63 62 63 59 58 61
78 81 75 83 96 90 97 97 100 98 94 98 98 100 98 99 99 99 100 100 100 100 99 88 87 89 90 91 88 94 94 93 94 93 93 99 95 90 91 87 78 70 70 70 73 72 71 71 73 71 79 64 58 54
88 72 84 80 91 89 97 95 98 97 95 99 98 99 100 99 99 99 99 99 98 96 94 94 95 92 88 88 88 89 91 91 89 82 79 83 91 92 87 84 78 84 80 82 81 82 83 82 78 73 69 68 63 62
72 70 88 88 72 73 71 96 97 100 100 98 97 98 98 98 98 98 98 97 95 93 92 94 94 93 90 89 91 93 91 91 94 91 84 87 89 84 88 88 84 87 91 91 82 80 83 75 72 73 68 67 65 66
60 85 79 80 85 76 78 91 87 98 97 96 100 98 95 98 97 97 96 95 95 92 90 93 90 93 90 92 94 94 94 92 94 88 81 84 92 91 82 82 82 81 79 80 79 81 80 78 73 74 73 75 74 72
68 63 78 62 90 81 97 95 100 97 100 100 100 98 97 99 98 96 95 96 95 95 94 92 92 93 96 96 93 94 89 86 88 94 95 79 83 82 87 83 80 79 75 85 82 80 84 80 75 74 73 72 76 85
78 75 76 75 89 79 93 92 99 100 99 100 98 96 98 98 98 97 94 96 96 96 96 95 95 94 91 94 95 96 96 89 87 92 92 80 78 83 90 90 91 90 84 75 81 81 79 76 75 78 74 69 71 87
80 78 84 76 90 89 93 86 84 97 100 100 99 99 98 97 97 94 90 92 94 95 94 94 95 94 94 95 94 94 95 96 92 93 94 96 96 90 84 86 88 85 78 77 75 73 74 74 73 74 83 88 84 85
79 80 90 95 98 98 91 99 100 98 99 91 91 100 99 94 92 96 98 96 93 93 94 94 95 96 96 96 96 95 96 95 95 95 94 93 94 95 90 83 80 78 78 76 72 70 69 70 75 80 82 82 91 95
99 92 93 100 100 100 99 92 96 97 90 97 98 98 97 93 98 99 96 97 94 96 95 96 96 97 96 96 96 96 97 96 95 96 94 94 95 97 88 86 89 89 83 77 70 77 82 77 76 75 79 81 89 92
97 97 98 100 98 94 96 98 100 99 94 92 89 97 96 98 98 98 100 99 99 98 96 96 97 97 97 97 96 96 95 96 97 90 91 91 94 94 94 94 94 87 79 77 75 73 71 78 80 80 85 90 92 90
97 98 100 100 98 99 99 95 96 90 96 100 99 99 98 99 96 98 100 98 97 97 97 96 96 96 96 96 96 96 96 95 96 95 91 91 93 94 94 92 82 76 76 79 81 82 84 84 85 88 87 88 88 86
99 100 98 99 100 98 99 100 100 100 100 100 100 100 99 99 98 98 97 97 97 95 94 95 95 95 96 96 96 96 93 95 94 94 94 94 94 93 86 83 83 81 81 81 81 78 81 84 85 85 86 89 91 94
99 99 100 100 100 100 100 98 100 100 100 100 100 100 100 99 97 98 97 98 97 95 95 96 96 96 96 95 95 95 94 95 95 94 94 91 86 84 81 80 77 74 74 76 78 79 82 84 86 88 88 91 96 96

GFSWCAN_sfc_rhum_030.txt.gz
RH
65 68 64 68 66 65 65 67 66 66 65 66 63 59 61 70 75 88 96 95 100 98 93 82 75 90 97 92 96 93 97 98 98 96 97 95 93 84 90 76 90 89 95 90 88 96 82 64 60 66 58 75 79 81
68 70 66 65 68 61 66 67 66 67 66 66 62 60 63 71 72 80 98 89 98 99 95 93 86 73 78 83 92 98 94 97 90 93 96 93 94 95 91 96 90 93 84 86 86 86 67 77 75 74 71 75 84 86
72 72 69 70 69 69 68 68 68 67 65 65 60 61 64 73 71 77 97 94 98 98 92 96 91 86 84 88 90 96 97 88 97 97 94 90 95 94 98 97 93 88 85 90 84 76 77 75 76 80 79 88 89 84
73 71 71 70 67 68 70 70 67 67 65 63 60 62 68 69 72 73 97 92 98 96 98 90 81 89 88 92 95 94 94 94 97 99 98 93 90 82 92 87 92 86 85 83 84 77 76 72 80 85 85 80 79 77
73 71 70 67 66 66 66 67 67 64 62 61 62 66 67 66 68 81 92 94 96 100 99 96 86 89 89 95 97 98 97 97 98 99 99 97 91 85 94 91 94 80 79 82 79 67 63 68 78 78 80 80 76 74
73 70 68 67 65 63 62 61 61 61 63 66 64 62 64 66 68 92 98 99 97 96 97 100 90 89 94 94 96 97 97 98 99 99 98 95 84 80 93 94 75 72 68 68 67 74 76 78 75 78 80 79 76 72
72 70 69 68 65 63 62 62 63 64 61 63 66 64 66 68 86 96 97 97 90 97 100 100 97 91 88 93 97 98 97 98 99 99 99 96 87 87 90 94 67 76 73 76 79 75 77 81 80 79 77 78 75 73
73 71 70 68 66 65 63 63 63 62 64 65 66 72 77 77 82 95 92 89 90 99 99 100 100 95 85 96 98 98 99 99 99 98 95 96 91 90 94 81 81 81 80 81 80 76 73 81 81 84 76 74 76 78
73 72 71 69 68 67 65 62 63 63 68 70 79 83 90 95 99 98 95 95 97 96 100 99 100 97 89 96 94 96 96 99 96 98 96 96 94 97 82 75 82 79 76 84 92 87 85 85 88 86 82 80 80 84
72 73 72 70 69 69 66 62 63 66 68 76 88 96 100 99 86 96 100 94 100 99 98 99 92 98 96 95 98 96 98 99 100 96 94 99 98 84 83 79 78 79 85 84 87 96 94 94 92 88 80 77 75 80
72 74 73 71 71 70 67 61 66 66 76 95 98 99 96 86 99 98 100 100 100 100 99 96 95 98 94 96 95 95 99 100 98 94 96 92 97 92 86 88 85 85 84 83 82 82 78 75 80 85 90 88 81 75
73 74 73 72 71 68 59 67 66 85 94 93 97 97 97 97 100 100 100 100 100 96 99 98 96 94 96 93 95 95 98 98 96 95 97 96 93 87 87 91 91 89 85 81 84 82 80 78 76 80 83 81 73 62
74 74 73 72 70 59 68 68 67 70 87 97 98 100 100 100 99 94 99 100 100 100 100 99 99 98 98 94 96 94 92 95 90 98 97 94 90 86 87 94 95 91 86 85 84 81 78 80 77 76 77 65 60 59
73 74 73 73 64 70 71 67 70 85 97 98 98 98 99 99 99 100 99 99 97 100 100 98 98 96 92 98 97 100 94 88 99 100 88 92 82 86 94 95 94 94 89 86 84 80 79 78 80 73 63 59 59 62
72 73 73 65 71 73 69 70 74 96 99 99 98 97 99 99 100 100 100 100 98 99 98 94 97 84 97 97 86 96 98 99 95 87 91 94 89 98 97 96 95 92 88 86 80 79 81 77 76 74 67 64 62 61
72 74 66 67 76 68 70 82 96 99 100 99 99 98 99 99 98 99 98 98 99 99 97 97 94 93 90 94 98 99 96 94 84 94 96 98 96 95 95 94 91 86 81 81 80 80 81 78 79 81 72 65 62 61
72 93 66 78 71 71 72 94 97 99 99 93 99 97 99 99 99 99 99 92 90 98 99 96 91 84 93 98 98 91 89 87 94 96 99 98 97 94 93 91 90 86 85 83 81 77 79 76 72 69 72 70 66 65
92 89 81 74 74 83 90 100 97 97 95 95 99 98 96 94 94 96 98 93 98 100 94 91 89 99 93 91 91 89 96 98 100 99 99 95 94 91 88 91 88 86 83 81 83 86 83 82 79 77 80 78 76 72
88 87 72 68 78 94 92 94 97 96 95 95 87 89 89 88 85 89 95 98 97 95 98 98 92 95 93 95 95 96 99 100 97 98 96 92 90 91 90 92 90 89 88 86 79 75 76 71 71 68 64 61 64 62
74 69 70 70 77 96 95 96 96 94 97 96 96 92 97 92 91 95 97 99 100 100 100 99 90 82 93 93 98 98 98 95 97 97 96 95 95 93 92 88 84 84 81 79 75 73 71 67 63 62 62 60 60 62
77 80 73 82 96 89 96 95 100 97 95 92 96 100 97 99 94 98 99 99 100 100 99 97 94 88 88 94 89 93 94 95 95 93 94 99 96 94 95 92 84 75 73 73 71 71 68 67 67 64 76 60 56 54
88 69 80 77 91 90 98 94 98 98 93 92 99 100 99 99 100 99 98 99 97 95 93 91 93 92 89 87 87 87 89 92 90 90 85 88 96 96 93 88 81 86 82 79 76 77 77 78 72 66 63 64 61 63
69 69 87 89 73 72 69 94 98 100 99 100 99 98 98 99 98 98 98 97 95 93 92 92 94 94 94 91 88 93 90 91 95 95 94 95 94 92 91 91 85 88 90 86 78 77 81 73 68 69 66 66 67 67
59 82 73 78 81 69 77 92 89 99 98 97 100 99 94 99 97 98 98 98 94 93 92 94 92 92 94 98 97 95 92 91 95 95 93 92 95 96 85 79 78 78 76 76 76 77 77 74 70 70 70 74 72 70
70 66 76 63 90 80 87 94 100 97 100 100 100 99 97 99 100 99 99 98 94 95 94 92 90 91 95 95 95 96 96 91 93 95 98 87 88 86 89 80 77 76 71 83 81 78 81 77 73 73 72 70 72 79
79 75 79 74 85 75 87 83 98 97 99 100 99 97 99 99 100 97 97 98 98 96 95 95 95 92 87 92 93 94 96 96 94 93 96 82 78 84 91 91 92 89 82 72 80 82 79 76 76 77 74 70 70 81
86 79 79 71 87 87 95 87 84 96 100 100 99 99 99 100 98 93 94 98 98 97 90 93 94 94 92 91 92 94 95 96 98 97 96 98 93 87 88 88 86 84 76 79 75 72 76 75 74 74 80 82 80 76
82 83 89 96 98 97 89 99 100 98 96 91 92 100 100 94 91 96 96 97 98 94 94 92 94 95 95 94 95 95 96 96 96 96 95 94 95 96 96 93 89 88 83 74 73 71 70 72 76 78 80 80 87 88
97 90 92 100 100 100 98 89 90 95 88 96 95 97 96 94 98 98 96 97 97 99 98 95 91 96 96 96 96 96 97 96 96 96 94 94 94 96 96 95 94 83 77 79 78 85 85 76 76 77 77 77 83 86
97 96 97 100 97 92 94 97 100 99 95 92 89 97 96 97 97 98 99 100 100 99 97 96 96 97 97 97 97 96 96 96 98 95 92 94 95 95 95 95 92 92 91 92 87 78 73 78 79 77 81 84 88 89
97 97 98 99 97 99 99 95 97 90 96 100 100 99 98 98 95 98 100 100 100 98 98 98 98 96 96 96 97 97 96 96 96 96 94 94 94 95 94 92 93 94 92 87 84 79 78 76 78 82 83 86 84 81
98 99 98 100 100 99 99 100 100 100 100 100 100 100 100 99 99 98 98 100 99 98 92 95 96 95 95 96 96 96 93 96 95 94 94 94 94 94 94 94 94 92 84 78 75 73 76 78 79 79 82 86 84 84
99 100 100 100 100 100 100 99 100 100 100 100 100 100 100 99 96 96 97 100 100 97 95 95 96 96 96 96 96 95 94 95 95 94 94 94 94 94 92 86 76 71 69 69 72 73 76 80 81 82 84 85 86 87

GFSWCAN_sfc_rhum_033.txt.gz
RH
65 63 69 66 68 66 66 66 65 67 66 64 65 60 60 66 78 84 94 94 99 98 91 86 79 89 93 92 97 94 98 98 98 99 98 91 97 86 88 84 92 87 93 98 94 91 90 71 64 65 62 70 73 73
64 66 68 68 67 64 65 67 69 66 64 66 63 60 59 66 72 78 97 87 88 100 94 93 86 78 74 74 90 96 94 93 92 94 97 94 96 93 91 96 88 94 86 79 77 80 68 76 69 73 77 78 81 83
65 70 70 69 65 63 64 64 65 66 66 63 61 60 61 67 67 73 96 96 98 99 93 94 91 92 83 85 84 96 98 90 97 95 93 91 97 87 95 97 92 87 86 91 82 71 75 69 73 80 83 88 88 83
66 70 68 68 66 63 61 60 60 60 60 59 59 61 64 64 65 68 92 92 97 98 98 90 85 91 89 92 95 93 95 96 96 99 99 95 91 88 93 88 92 85 88 85 85 77 75 74 79 82 82 80 76 71
72 71 67 68 66 64 62 61 61 60 60 62 60 60 61 63 65 74 87 92 92 99 98 95 88 93 90 96 98 98 97 96 97 99 99 98 91 90 91 90 95 86 81 82 77 67 65 66 77 77 78 79 72 68
72 69 70 69 67 65 63 63 62 61 60 60 65 66 64 65 66 90 98 99 96 98 99 99 91 90 96 96 98 98 97 98 98 98 96 96 89 87 95 94 75 79 72 70 68 74 78 78 76 74 77 76 70 65
73 69 69 70 69 66 65 65 63 62 61 61 67 69 69 68 85 96 96 97 88 93 100 99 97 91 90 93 96 98 98 99 99 98 98 99 91 90 95 95 71 74 75 72 75 76 79 81 78 75 73 72 69 64
73 69 68 71 70 68 67 66 63 63 64 66 66 74 80 79 80 94 90 89 88 99 99 100 100 95 86 96 98 96 99 99 99 99 98 98 93 92 96 84 83 81 82 82 80 80 74 81 81 81 73 69 72 70
74 71 70 71 71 70 68 67 62 64 66 68 74 80 87 92 98 98 91 95 96 98 100 99 100 95 90 96 95 97 97 99 98 99 98 96 96 98 85 81 79 82 78 80 91 88 83 86 86 82 78 74 73 73
75 72 72 73 72 71 70 64 64 66 68 74 86 92 94 97 85 92 99 100 100 100 99 99 95 96 96 96 98 98 98 99 100 96 95 99 98 84 85 82 79 81 81 84 91 98 99 95 91 82 72 68 67 70
74 73 74 74 72 72 63 66 67 68 75 95 97 99 94 86 99 98 100 100 100 100 98 96 95 96 94 98 96 96 99 100 99 93 97 95 96 91 86 87 87 85 85 82 79 83 80 75 76 80 81 78 73 67
73 74 75 74 73 72 63 70 67 87 93 92 97 94 97 96 100 100 100 100 99 94 99 99 96 94 96 96 95 96 98 98 96 94 98 96 90 84 86 92 91 89 84 80 82 83 80 77 75 78 79 75 68 64
73 74 74 74 73 65 71 70 68 71 86 95 98 100 97 100 99 96 99 99 100 99 100 99 99 96 97 93 95 94 92 95 90 97 96 95 90 83 86 93 94 91 84 86 87 85 81 82 79 75 72 65 60 59
72 73 74 74 67 73 71 69 70 78 95 97 96 97 95 98 99 99 99 100 98 100 100 99 98 97 93 98 98 87 94 90 98 99 92 93 81 84 92 94 93 92 89 89 88 84 83 80 76 68 62 58 58 59
73 73 74 67 74 73 68 72 75 96 98 95 95 98 100 98 100 100 100 100 97 99 100 97 98 85 97 97 89 95 97 97 97 92 92 94 88 98 96 96 95 93 93 91 86 84 82 74 70 68 62 58 56 56
72 74 70 66 77 69 67 77 94 99 100 99 98 99 96 96 98 97 99 98 98 100 99 99 96 96 91 96 96 98 99 97 86 94 96 98 93 95 96 95 93 92 90 87 84 80 76 72 70 70 64 62 58 55
71 93 70 78 73 73 73 92 97 98 99 96 99 94 98 97 98 97 98 98 89 99 100 99 98 88 94 100 99 94 91 90 95 95 98 98 98 94 95 93 92 92 91 89 85 81 81 71 64 63 70 69 62 60
91 89 78 78 76 82 89 100 91 92 91 96 98 99 91 94 96 89 89 97 99 100 99 100 92 99 96 94 93 92 96 98 98 100 98 96 94 93 91 93 93 93 92 91 89 83 80 76 70 71 78 78 76 72
87 89 75 68 78 94 94 94 94 96 95 94 86 84 85 84 82 86 83 85 97 99 100 99 98 96 94 97 96 96 96 99 97 97 96 93 91 92 93 95 94 94 93 92 84 76 73 68 69 68 65 61 65 64
73 70 68 70 76 96 98 98 94 92 95 96 95 91 92 91 94 89 84 95 98 100 99 99 98 94 95 98 97 94 96 94 97 97 95 95 95 96 95 95 92 90 87 86 83 77 74 70 63 61 62 62 62 64
72 81 70 82 96 93 95 96 100 96 92 91 90 98 97 98 99 99 98 99 99 99 99 96 95 85 94 92 84 90 93 96 97 95 92 99 96 97 97 96 93 82 81 82 80 73 69 67 68 64 75 61 57 55
89 65 78 75 92 95 98 95 98 98 95 92 96 100 98 97 98 100 98 99 97 98 91 86 87 90 88 91 93 91 88 94 94 94 85 89 98 98 97 91 86 90 87 85 79 78 73 72 68 62 62 62 60 62
68 68 83 86 76 72 71 94 100 98 100 100 99 98 98 100 98 97 99 98 99 98 96 90 92 94 94 89 95 96 98 95 95 92 95 96 95 94 93 93 89 86 90 84 75 77 80 69 65 65 64 65 65 64
58 81 76 77 80 66 77 94 89 99 98 100 100 99 92 100 97 100 99 99 97 98 97 95 89 86 85 95 95 95 95 96 96 96 93 93 97 98 88 86 82 84 75 76 77 76 73 70 68 67 68 72 70 66
76 71 78 64 91 81 80 90 99 97 100 100 100 100 97 100 100 100 100 96 98 99 98 97 94 88 94 92 90 91 95 96 96 97 95 90 92 90 91 82 76 76 70 80 80 76 77 74 71 72 71 69 70 74
79 78 79 74 86 71 81 81 98 96 99 100 100 98 99 99 100 98 96 97 98 98 98 99 98 95 85 91 91 91 92 94 94 96 96 91 83 87 92 91 90 90 74 69 78 82 81 76 74 76 73 70 70 82
86 81 74 67 82 84 95 88 83 96 100 100 100 99 99 100 100 90 98 98 98 98 98 98 97 96 93 88 89 88 93 95 96 96 97 97 94 81 83 86 86 82 76 78 79 77 78 76 74 73 77 81 83 72
82 82 86 96 98 97 89 98 100 97 94 90 91 99 98 94 89 93 94 96 98 99 98 95 94 95 95 92 92 94 94 96 97 97 96 96 96 98 97 95 94 93 91 86 84 77 73 71 75 80 82 80 79 74
94 87 92 100 100 100 96 86 88 93 86 95 92 95 95 93 96 97 95 97 100 100 100 97 94 96 93 93 95 95 96 96 96 96 96 95 96 97 97 96 96 96 94 94 82 73 79 78 81 82 75 73 80 82
97 96 96 100 95 93 92 96 98 99 95 92 89 96 96 96 96 98 98 100 100 100 100 99 97 98 96 96 95 96 96 96 96 96 96 95 95 96 96 95 95 95 94 86 83 86 88 92 86 73 76 79 81 84
96 97 98 99 96 99 99 95 97 90 96 100 100 99 98 98 94 98 100 99 100 100 100 100 97 98 98 97 96 96 96 96 96 96 96 95 95 96 95 95 95 94 91 87 86 89 89 81 77 78 80 84 82 79
98 100 98 100 99 99 99 100 100 100 100 100 100 100 99 99 99 97 98 100 100 99 98 99 99 95 94 96 96 96 93 96 97 96 96 95 95 95 95 95 94 90 89 92 93 91 82 75 75 76 80 85 81 82
100 100 100 100 100 100 100 100 100 100 100 100 100 100 100 99 96 95 97 100 98 99 100 98 96 96 96 96 96 96 94 96 94 93 93 93 93 94 94 94 94 93 92 87 76 71 74 78 78 80 81 81 83 84

GFSWCAN_sfc_rhum_036.txt.gz
RH
61 62 62 61 63 62 60 61 63 65 66 66 64 62 61 62 70 81 93 93 99 97 81 77 70 76 80 78 94 91 94 96 98 99 98 72 71 65 68 58 66 72 81 96 97 89 82 52 48 56 52 54 55 58
64 63 67 65 64 62 60 59 59 61 62 62 60 60 60 62 67 71 96 86 87 99 83 81 74 70 67 68 79 91 87 88 88 97 89 73 79 69 65 63 65 70 58 60 60 54 49 53 54 52 58 60 61 65
65 63 66 63 65 63 62 60 59 58 58 58 58 59 63 62 61 67 91 91 88 95 80 78 72 75 70 70 74 91 95 87 93 94 93 70 85 68 71 66 67 61 60 63 64 49 52 49 52 60 62 66 67 66
65 68 70 66 65 64 63 62 61 59 59 59 59 59 58 61 63 65 87 89 92 98 95 76 75 81 83 88 91 90 88 93 91 95 93 96 70 65 68 64 64 53 64 64 63 51 48 54 58 61 65 61 59 56
64 71 67 67 67 65 64 64 63 62 61 61 59 59 58 63 64 69 80 89 88 98 98 86 82 82 85 90 94 97 97 96 97 97 98 80 79 79 68 71 70 58 54 57 52 49 50 50 61 62 63 63 58 58
65 70 68 66 68 67 66 66 65 64 62 61 63 64 66 70 64 79 96 97 94 96 100 95 90 85 89 89 96 98 97 97 97 96 96 89 84 75 84 76 55 53 54 48 48 53 59 61 62 62 63 60 56 55
68 73 70 65 68 68 67 67 67 64 63 63 68 69 70 72 81 93 96 97 89 93 99 98 96 83 82 88 91 96 98 98 98 95 95 94 90 81 85 74 49 51 53 51 50 55 62 62 62 61 59 57 55 50
71 74 72 66 68 69 69 68 67 63 65 66 70 74 80 78 73 90 90 90 90 96 99 100 98 84 81 91 92 92 98 99 99 98 97 97 89 93 96 67 58 55 55 56 56 59 59 61 64 64 58 56 58 55
73 74 72 70 72 70 70 69 63 67 67 69 75 78 85 85 93 94 90 93 89 100 99 98 100 95 82 89 91 92 95 99 98 98 97 97 96 95 70 63 61 60 61 63 74 72 71 72 75 69 64 60 58 56
73 75 72 73 73 72 71 67 67 67 69 73 80 91 96 95 88 92 99 100 100 100 96 99 84 84 83 87 94 93 95 98 100 97 94 99 96 73 68 68 64 62 64 74 83 97 99 100 89 72 62 57 54 52
74 75 73 74 73 72 71 65 69 69 76 86 92 95 92 88 99 98 99 100 98 100 90 86 89 81 82 91 88 91 97 99 100 89 88 92 84 74 71 74 73 72 70 68 64 68 78 67 65 64 62 58 54 49
77 73 73 73 73 72 67 71 68 83 88 89 94 91 97 96 100 100 100 100 99 95 94 94 88 82 86 85 90 92 100 97 99 81 93 93 78 73 69 77 77 70 67 65 64 66 64 63 60 60 61 58 51 48
77 72 73 73 73 70 72 69 68 66 82 88 95 100 95 100 100 99 96 100 100 99 100 99 99 90 88 86 94 92 100 95 81 96 89 81 75 70 71 78 80 76 68 70 74 70 66 65 64 61 58 53 49 47
76 73 73 73 71 74 71 68 69 75 90 95 99 95 94 98 97 97 98 100 95 99 100 98 98 97 91 99 93 99 87 86 96 98 89 61 67 64 76 83 82 78 73 73 75 73 72 69 64 57 53 48 48 50
75 73 73 69 73 75 68 68 71 93 94 92 95 98 94 98 98 100 100 100 95 94 100 98 99 84 99 98 86 94 97 95 88 88 78 79 72 78 81 82 80 77 75 73 72 71 68 63 59 58 53 50 48 48
73 74 74 64 77 70 68 74 89 97 100 98 98 98 89 97 98 94 98 100 95 97 99 99 99 99 98 96 96 97 94 95 87 97 83 76 73 83 84 85 82 76 73 73 71 67 63 60 58 58 53 51 50 48
70 88 68 76 75 72 72 88 93 99 99 90 94 89 87 93 95 88 90 89 83 96 100 100 100 100 92 97 99 93 93 93 93 82 80 83 85 84 84 83 82 79 76 74 70 64 63 60 56 55 59 55 50 49
87 84 77 79 77 77 83 98 93 92 84 92 96 93 84 84 90 83 79 84 98 98 94 100 97 99 95 96 88 84 84 89 84 87 88 83 80 79 83 81 83 83 81 78 80 77 74 72 64 60 68 68 68 62
83 83 76 68 79 85 92 94 94 95 91 86 86 79 80 82 76 75 79 77 85 98 99 100 99 96 90 87 93 95 93 91 88 82 80 79 79 80 83 92 91 90 89 85 72 66 64 59 60 59 58 53 56 55
73 75 73 71 73 90 93 97 90 92 93 91 91 90 86 86 81 81 77 86 94 99 100 99 92 87 86 89 90 90 86 83 87 86 77 74 77 90 90 88 81 84 79 77 75 70 67 63 59 56 54 54 55 56
74 79 73 82 90 90 90 93 99 92 90 88 83 93 93 89 92 97 95 96 100 96 97 85 81 76 76 75 75 84 88 84 86 88 87 86 75 82 85 86 86 77 74 71 67 66 65 63 60 59 70 54 52 50
85 66 73 72 89 94 95 93 94 93 94 90 88 95 98 96 94 95 96 98 97 90 80 76 76 80 79 77 75 82 85 88 89 87 87 84 87 88 88 86 86 88 85 83 74 73 67 63 63 58 58 59 56 56
68 64 76 82 77 75 80 86 98 96 99 99 96 97 97 100 96 94 96 94 90 81 81 84 86 85 87 79 80 83 86 88 86 89 86 83 83 84 86 85 83 90 90 81 73 74 77 67 62 60 60 61 61 63
56 76 81 78 78 75 73 90 83 94 96 98 100 97 89 95 93 98 96 94 85 86 86 89 81 80 74 86 77 78 79 83 82 82 93 95 92 85 80 78 75 76 75 76 76 73 69 66 66 65 64 66 66 62
79 81 76 70 89 82 84 89 95 92 93 99 100 98 94 96 100 100 98 90 90 90 86 84 81 80 91 87 73 70 77 87 87 86 81 95 95 94 90 78 73 73 70 82 78 74 73 70 68 67 67 65 67 70
82 83 76 75 85 74 76 84 92 93 94 100 98 94 95 97 100 99 90 88 90 89 89 90 90 89 81 76 80 82 77 82 88 89 85 95 95 96 96 90 88 82 68 69 75 75 76 72 72 74 68 68 67 70
89 85 69 56 69 73 84 80 76 86 100 91 94 96 95 99 98 80 79 86 86 87 88 87 89 90 90 86 79 78 78 84 93 90 88 93 95 96 96 94 88 76 69 70 73 81 81 73 73 68 71 70 70 69
79 76 81 91 91 87 86 92 93 89 81 80 84 97 90 87 81 79 85 82 87 91 91 89 89 91 92 90 88 88 89 86 92 93 93 95 95 97 97 97 90 82 92 93 93 92 73 73 70 72 75 76 80 75
87 79 86 100 98 97 90 81 80 79 76 88 88 84 86 81 86 85 81 86 92 93 94 93 90 92 93 90 90 91 93 94 93 93 93 93 95 96 97 96 96 96 96 96 95 82 82 75 75 75 75 74 75 76
95 89 88 97 91 89 89 90 92 94 89 86 83 88 88 88 89 89 89 92 94 93 94 97 97 99 98 97 95 90 86 93 93 93 93 93 94 95 97 97 96 96 96 95 94 95 87 84 83 79 79 76 72 77
91 90 94 93 93 96 97 92 94 86 94 97 97 96 94 94 87 88 92 92 94 99 100 99 97 95 97 97 97 96 92 86 94 95 95 94 96 96 96 96 96 95 94 94 93 90 90 89 88 90 85 79 78 73
94 97 95 98 99 97 96 100 100 100 100 99 97 99 95 95 96 89 90 97 97 97 96 97 99 96 93 94 93 93 88 91 92 93 96 96 95 95 95 96 96 95 94 93 93 90 88 91 92 87 80 82 79 78
96 97 99 100 100 100 98 97 99 99 100 100 99 98 99 95 94 89 86 96 94 93 95 96 96 95 95 96 96 95 88 94 95 93 92 93 93 94 95 95 94 93 93 93 92 91 93 93 87 83 80 79 81 83

GFSWCAN_sfc_rhum_039.txt.gz
RH
64 62 62 67 66 63 61 60 59 58 58 58 58 59 59 62 65 73 90 92 98 98 82 74 63 60 66 65 81 86 89 94 97 98 96 66 52 48 51 48 60 69 83 97 98 99 87 43 43 56 52 49 48 66
63 62 63 67 64 64 62 61 60 59 58 57 57 56 60 60 60 65 94 83 85 99 90 81 69 69 66 69 80 79 82 83 82 95 94 74 61 56 50 56 52 63 48 83 75 61 39 39 47 44 51 54 55 59
65 65 63 70 65 65 64 63 62 60 60 58 58 56 58 57 61 66 83 92 90 96 73 67 63 68 66 64 60 86 90 82 86 85 94 65 75 60 59 52 51 49 46 56 57 46 42 40 41 50 53 57 57 59
65 66 67 73 62 66 66 65 63 63 62 61 58 58 61 57 59 63 75 89 88 96 98 73 64 70 70 75 84 86 88 89 91 95 95 95 69 55 60 60 58 48 53 50 52 44 41 47 52 53 56 53 53 52
67 66 65 72 62 66 68 66 65 64 63 62 60 62 66 62 59 62 64 87 80 97 97 83 70 76 75 86 92 95 96 94 97 98 97 82 79 65 57 64 60 45 48 46 45 46 47 49 52 56 56 56 54 55
68 66 66 72 67 65 65 68 67 66 64 63 62 68 70 70 61 72 97 96 90 92 99 90 80 80 79 82 90 95 95 96 95 94 91 82 63 66 71 64 45 38 38 40 41 46 49 52 55 54 56 54 52 53
68 66 70 73 70 68 69 68 68 66 64 66 68 70 70 70 70 90 96 97 90 93 99 97 84 77 75 82 88 96 97 97 96 92 91 88 90 80 79 71 42 38 42 44 44 48 54 55 57 55 53 52 50 47
68 68 73 73 70 70 71 70 68 66 68 68 71 77 80 75 72 89 90 88 92 98 98 100 93 77 76 84 86 87 97 98 99 96 97 94 82 92 97 64 52 45 44 47 46 46 48 51 55 56 52 53 59 56
70 71 74 74 71 71 71 70 68 68 68 71 73 75 72 75 84 95 89 92 93 99 98 96 100 94 75 77 85 90 96 98 98 98 97 97 95 94 65 55 52 50 55 53 55 58 59 62 65 60 58 55 52 50
71 72 77 73 72 73 71 70 68 69 68 73 73 88 94 92 85 89 99 100 100 100 97 98 78 75 75 76 87 88 94 98 100 98 96 99 96 68 59 55 58 55 54 63 76 92 98 99 82 63 55 50 49 47
68 71 77 73 74 73 72 69 70 69 67 76 84 89 90 86 97 98 100 96 99 100 81 87 85 80 74 84 82 84 95 98 100 91 93 92 80 64 63 61 64 63 61 60 58 61 66 67 62 58 56 50 46 43
70 75 75 73 73 72 70 71 68 72 81 84 88 88 96 95 100 99 100 100 98 96 91 94 87 81 78 79 91 88 100 95 100 77 88 90 71 68 61 64 70 67 62 61 56 58 62 58 55 55 54 50 45 41
72 77 74 73 73 71 72 68 68 66 75 79 88 100 92 99 100 100 98 100 100 99 100 99 98 88 84 86 94 93 100 96 76 93 86 76 76 57 64 70 71 69 64 62 65 61 60 58 57 56 52 45 42 41
72 77 74 74 72 73 70 66 66 70 82 91 100 97 99 100 93 98 94 100 95 99 98 98 98 96 87 99 93 99 82 82 95 96 92 60 66 59 62 71 74 70 67 66 70 66 64 64 60 52 47 42 41 41
74 76 74 72 71 74 65 66 67 80 86 100 97 96 92 94 100 100 100 100 97 91 98 98 100 84 99 100 89 95 93 90 83 86 86 82 74 72 72 71 71 68 64 65 65 66 64 59 55 51 46 42 41 42
75 74 73 68 76 69 66 69 78 85 100 100 100 97 88 97 100 99 98 100 94 95 100 100 100 100 100 98 95 95 89 93 93 98 85 74 70 68 71 75 75 70 65 65 64 63 60 56 53 49 46 44 44 43
74 79 65 73 74 68 72 80 84 100 100 96 91 85 88 93 92 84 83 80 74 96 100 100 100 100 96 97 99 88 94 96 94 88 77 78 86 85 82 79 79 75 69 66 63 60 57 54 51 50 54 51 47 47
82 73 73 76 73 70 74 97 100 97 85 96 92 90 81 81 84 76 70 75 90 99 99 100 100 100 97 99 91 90 88 91 83 76 75 68 68 70 76 79 80 81 75 72 77 75 72 70 61 57 64 65 64 58
78 74 75 70 72 76 91 94 98 91 87 84 84 79 80 78 74 68 72 70 75 87 99 99 100 96 87 89 92 92 90 88 87 76 69 59 64 72 80 94 92 90 89 83 70 64 62 59 58 61 60 55 56 54
77 76 70 72 68 84 85 94 90 88 90 84 84 89 83 81 75 77 72 74 84 99 100 98 84 79 76 82 87 88 82 80 82 82 73 61 62 84 88 90 80 82 77 75 73 65 63 62 58 56 54 54 54 55
78 76 75 75 84 85 86 90 96 88 85 85 81 85 89 84 89 92 90 91 97 93 91 80 70 66 70 71 68 68 74 72 78 79 82 86 76 75 77 80 87 79 74 70 67 64 64 62 58 55 69 53 50 48
79 68 67 66 83 89 90 91 90 87 88 86 86 89 94 93 91 87 94 96 92 82 73 65 66 71 69 66 63 65 68 74 81 80 79 78 84 84 82 82 87 89 86 85 76 72 66 62 60 60 56 57 54 55
67 60 73 76 72 70 84 83 92 91 92 93 94 92 94 97 92 92 95 84 83 70 69 72 77 79 76 68 66 68 70 77 80 74 72 73 76 81 87 85 85 92 92 84 76 72 76 64 62 58 59 58 61 65
56 76 78 78 74 74 71 86 77 88 89 87 90 85 86 90 90 95 94 86 80 77 78 86 72 66 61 81 68 59 60 65 74 72 68 74 85 80 87 81 74 80 82 81 78 76 73 67 65 68 65 67 68 66
94 93 80 79 83 77 81 86 89 86 88 89 90 82 88 91 94 96 91 82 84 84 80 77 73 71 82 79 62 59 68 65 76 82 73 71 78 82 88 94 85 73 74 85 81 77 76 70 68 69 67 68 69 70
96 90 80 76 81 76 70 84 90 88 82 92 86 84 90 90 96 92 79 81 84 85 86 86 83 78 71 65 69 69 66 63 70 82 77 73 81 92 94 94 95 95 77 73 81 83 87 83 72 75 71 71 68 69
95 92 66 51 58 60 66 65 62 72 88 82 82 93 90 96 90 71 66 71 78 81 78 78 78 77 78 76 70 68 70 76 86 84 75 79 81 83 93 94 94 94 94 90 84 89 92 88 83 78 79 72 70 66
78 70 81 79 74 75 82 78 84 84 69 64 75 95 91 81 72 70 73 76 80 82 82 79 80 82 85 84 83 81 84 83 86 88 87 83 82 86 92 94 96 97 96 96 95 96 95 93 93 90 76 77 76 71
83 75 74 92 89 84 83 76 71 62 61 76 84 79 76 66 76 78 74 77 84 85 86 85 84 88 88 85 86 88 90 90 94 95 94 88 82 86 96 97 97 97 97 97 95 94 96 94 94 84 81 80 78 79
92 77 78 90 88 84 83 78 82 86 78 78 76 76 75 78 79 80 81 84 87 88 87 89 91 95 94 94 92 89 83 84 88 93 94 90 84 92 97 97 97 97 97 97 96 97 96 96 92 87 86 82 80 82
83 84 86 81 87 89 90 83 85 77 84 90 89 91 84 87 78 78 81 80 85 91 92 92 93 92 94 93 95 94 91 81 92 93 93 91 90 90 94 96 97 97 97 96 95 95 94 93 87 85 81 83 87 86
91 92 90 92 93 92 90 93 93 92 92 92 90 95 89 89 90 79 81 90 92 91 90 89 92 88 88 90 91 91 90 91 91 89 90 91 90 91 96 97 97 96 96 96 94 93 93 93 93 88 90 93 94 86
94 93 93 91 94 95 93 92 92 94 94 93 90 91 90 88 90 79 76 86 88 86 87 88 89 92 93 95 94 93 90 94 96 86 83 84 88 92 96 96 96 95 94 94 94 94 94 94 94 94 94 93 87 84

GFSWCAN_sfc_rhum_042.txt.gz
RH
65 65 62 63 63 71 64 63 62 61 60 59 59 58 58 61 61 70 90 90 98 98 92 76 69 70 69 74 83 93 93 94 94 97 96 89 69 63 67 70 82 88 96 97 87 95 94 55 56 76 72 69 66 84
67 67 65 62 64 72 66 63 63 62 62 61 60 59 57 59 60 65 91 84 84 99 94 79 73 72 74 78 85 86 86 87 88 94 95 92 86 71 73 65 63 72 65 84 81 78 56 52 62 64 65 71 75 80
67 66 64 63 68 72 66 62 64 64 63 62 59 58 58 59 58 64 84 92 93 98 89 90 80 81 69 73 72 90 91 83 85 86 94 87 88 79 77 71 70 65 60 74 74 60 56 59 59 62 65 67 67 70
70 67 64 64 65 72 65 65 65 65 64 62 61 59 58 57 57 60 78 90 92 96 99 89 68 80 78 81 84 86 86 92 92 95 96 94 92 78 83 78 81 69 69 69 68 59 60 64 66 65 62 59 61 62
69 69 66 63 66 73 64 64 66 67 66 64 63 61 60 66 59 65 75 86 83 96 98 92 76 84 80 86 93 94 92 95 98 99 98 88 87 86 81 84 85 65 68 70 66 60 62 68 67 63 62 63 62 66
69 68 67 66 70 73 69 67 68 68 67 65 66 71 72 72 70 75 98 96 88 93 99 98 89 89 87 88 93 96 98 97 98 97 94 88 77 85 92 85 56 51 51 50 60 62 65 65 64 62 64 63 61 63
70 68 66 65 70 73 69 67 70 69 68 67 70 73 74 72 82 91 98 98 89 94 99 98 96 88 80 87 92 98 99 98 97 91 93 90 91 88 93 89 57 54 54 68 60 61 72 67 73 61 61 58 56 54
70 70 66 70 74 72 68 70 70 70 68 69 73 78 79 70 73 91 94 85 89 98 97 100 99 90 82 91 94 94 99 99 96 96 94 97 94 95 98 84 70 62 63 66 62 61 65 64 63 62 58 62 67 63
73 70 70 69 75 66 71 71 71 70 70 69 73 75 79 83 94 97 88 90 96 99 100 98 100 100 89 89 93 98 99 99 95 98 97 97 95 99 84 72 72 69 74 72 74 71 71 74 73 68 69 63 57 56
73 70 70 71 76 73 73 72 70 71 69 72 83 98 97 94 83 89 99 100 100 100 99 98 91 93 89 82 96 96 97 99 100 98 98 99 98 78 73 75 76 75 75 79 87 95 93 93 82 70 61 54 52 51
72 69 70 75 74 74 73 72 71 69 68 87 89 96 92 83 99 97 100 100 99 100 96 94 91 94 87 91 94 94 98 100 100 96 96 99 96 82 70 71 77 79 78 77 79 80 84 78 66 64 60 54 50 46
71 69 72 77 73 71 72 71 69 82 87 87 91 89 97 96 100 100 99 100 100 100 99 98 97 92 93 94 96 96 100 99 99 88 94 96 86 77 72 75 80 80 75 77 70 73 73 68 61 57 54 51 48 45
72 70 73 77 74 73 73 72 66 68 73 86 97 100 100 100 100 100 99 100 100 100 100 99 99 96 91 97 98 98 100 99 87 98 93 95 82 68 68 78 83 75 71 70 73 71 69 67 64 58 54 48 45 46
71 71 76 76 74 72 74 67 68 76 95 95 99 99 97 99 98 96 99 100 100 100 100 99 99 98 93 100 98 98 95 91 96 92 95 95 83 77 78 79 80 80 74 74 77 74 72 69 64 56 49 44 45 46
71 69 76 77 71 74 70 64 68 88 96 96 97 97 96 98 100 100 100 100 100 99 100 100 100 94 100 99 97 98 94 87 82 97 100 95 90 86 82 82 85 84 80 77 78 76 71 65 59 55 48 45 45 47
71 72 79 72 75 70 65 73 84 90 100 98 96 95 92 99 100 100 98 100 97 96 100 100 100 100 99 96 95 87 86 89 99 99 98 93 91 90 88 86 87 86 80 79 78 76 71 66 60 55 51 49 49 48
71 87 67 69 73 65 69 92 97 97 97 84 88 88 95 97 97 96 87 85 77 98 100 100 97 96 99 97 92 85 88 99 99 98 97 90 91 88 89 88 91 88 83 80 76 74 72 66 61 56 61 64 60 58
90 82 72 74 75 73 87 100 98 87 85 85 89 85 83 83 88 81 73 79 92 99 99 100 100 99 96 98 96 99 96 95 97 96 93 88 83 85 85 93 94 96 92 89 92 89 89 83 75 73 78 74 68 63
84 85 75 73 75 89 96 97 99 95 93 84 87 78 88 83 78 71 74 74 75 90 97 99 99 99 95 99 97 98 98 96 93 90 89 83 81 85 90 95 95 96 96 94 85 82 83 78 76 73 65 58 59 60
82 81 74 73 68 94 91 98 97 96 96 94 94 94 83 81 77 79 85 89 82 98 98 99 94 85 85 94 97 97 96 92 91 88 91 89 88 91 93 97 96 96 92 89 92 80 89 77 72 63 61 60 59 61
87 88 74 79 92 93 95 97 96 96 94 97 92 90 88 86 90 92 94 89 97 98 98 95 91 88 90 88 82 82 86 85 92 88 84 88 84 84 81 88 97 95 94 92 90 85 76 78 73 73 73 60 57 57
96 68 77 74 93 94 96 95 98 94 95 97 94 90 94 96 94 92 97 97 90 94 96 91 93 92 91 82 87 85 82 81 84 85 80 76 81 85 86 84 97 98 96 94 91 83 89 77 68 75 62 63 58 59
76 68 84 88 86 84 90 90 98 96 97 97 98 100 98 95 92 97 94 88 95 94 93 94 93 92 93 88 81 78 80 90 94 91 87 88 79 76 81 82 91 97 97 96 96 87 82 67 65 65 62 63 66 68
67 92 96 96 94 91 78 95 83 91 95 94 97 95 98 99 99 96 94 94 97 96 96 96 96 93 92 90 96 92 85 85 90 93 94 95 93 91 87 83 86 95 89 95 95 86 76 73 68 67 68 72 73 71
96 97 96 97 94 86 90 95 93 92 93 94 96 94 96 99 100 100 99 96 98 98 97 97 95 95 96 98 94 90 88 91 94 92 93 95 92 88 90 86 85 93 95 97 91 87 80 75 73 72 72 74 81 89
96 95 94 87 90 85 83 90 92 90 90 97 94 97 98 99 100 96 94 95 97 96 95 94 94 97 95 88 92 94 92 92 94 93 89 90 90 90 93 95 94 86 98 96 97 96 92 86 89 91 86 80 91 94
97 98 82 57 69 69 74 71 68 84 90 88 94 99 98 99 95 86 93 94 96 97 97 95 93 92 91 96 94 93 94 95 93 92 86 86 86 86 91 94 93 85 95 96 97 97 96 95 94 93 95 95 95 91
86 75 81 78 77 86 86 85 84 84 83 81 85 98 96 85 75 90 95 97 98 97 97 96 96 96 97 97 97 97 96 95 94 93 91 89 90 90 90 90 87 85 86 92 97 97 96 96 95 95 95 95 95 92
91 81 80 93 91 88 86 78 80 82 74 92 90 92 90 92 94 95 95 96 98 97 98 98 97 99 99 98 97 95 96 99 100 98 97 94 90 92 94 95 95 95 95 96 95 97 97 96 96 94 95 94 94 88
96 82 87 90 86 84 90 93 96 95 88 88 86 94 94 95 96 97 97 99 98 96 97 98 99 99 99 100 98 96 95 94 94 96 95 93 92 96 97 95 92 93 96 97 97 98 96 97 97 96 95 95 94 94
88 92 92 89 92 96 96 89 93 86 93 98 98 99 98 96 93 97 98 98 98 99 99 100 99 99 100 100 100 99 94 94 94 91 93 94 94 94 92 90 90 93 97 97 97 96 97 96 94 94 94 94 93 87
94 95 94 94 97 97 98 99 99 98 98 99 99 100 98 98 97 94 98 99 100 100 98 99 100 98 96 98 98 96 92 93 93 92 93 94 94 92 91 90 94 96 98 97 97 96 94 94 94 94 94 95 92 91
97 95 95 95 100 100 99 98 98 98 99 98 98 98 98 98 93 93 97 98 98 98 98 98 98 98 98 99 97 96 91 95 95 88 86 86 91 94 95 97 97 97 96 95 95 94 95 95 94 94 94 94 94 94

GFSWCAN_sfc_rhum_045.txt.gz
RH
69 65 65 63 63 63 65 68 63 61 60 60 59 59 57 57 60 72 88 90 97 99 91 88 78 83 72 74 85 96 90 92 96 96 95 91 88 72 79 89 87 95 96 99 98 98 92 55 65 79 72 79 76 88
72 69 69 64 63 64 69 67 66 65 62 59 60 54 58 54 57 63 93 84 87 99 93 88 82 77 81 83 87 92 88 90 86 93 96 96 95 86 83 82 76 85 80 89 78 76 56 67 72 73 72 74 83 84
74 72 72 68 63 64 66 68 66 67 66 58 57 54 56 54 57 61 88 90 95 98 96 98 92 79 72 78 76 93 95 84 90 88 94 91 99 88 91 83 73 65 62 77 85 68 70 68 74 72 70 74 72 85
75 74 73 69 64 64 66 68 61 65 66 59 58 60 58 57 59 59 87 87 92 96 99 92 72 86 85 88 88 86 86 93 90 92 94 93 88 87 91 88 84 74 67 71 76 65 71 75 78 72 67 65 67 74
78 81 73 71 67 66 71 71 61 66 66 64 65 62 69 69 68 62 86 85 83 96 97 93 84 90 87 91 94 89 89 92 97 99 98 92 87 93 93 91 94 73 73 79 78 61 67 74 76 67 67 70 67 70
77 78 76 70 66 66 71 70 61 66 65 68 67 73 74 76 72 80 97 98 89 93 99 99 91 93 91 91 97 98 97 96 97 97 94 87 77 82 96 89 73 67 62 57 62 67 70 72 70 66 67 70 67 69
80 79 77 68 65 70 74 67 65 65 68 67 69 75 76 75 89 92 97 98 88 95 98 99 97 89 87 90 96 98 98 98 95 96 95 88 86 85 89 93 67 58 57 65 63 66 76 74 75 65 65 66 62 59
79 78 72 67 68 72 72 65 66 69 69 69 71 75 68 60 71 89 91 83 89 98 98 100 97 95 86 95 97 96 99 99 98 96 94 92 93 92 98 86 79 70 71 68 75 72 69 70 68 68 67 64 65 61
81 76 73 70 70 74 72 68 69 70 70 69 71 77 83 89 96 98 90 90 96 99 100 100 100 98 93 93 95 99 99 99 95 98 96 98 94 99 90 86 77 77 77 78 80 76 75 75 73 73 75 71 64 58
81 76 75 70 71 76 72 69 71 70 70 71 85 98 100 97 87 90 99 100 100 100 99 96 94 92 94 87 97 97 98 99 100 98 98 99 95 86 70 74 76 78 86 83 84 91 94 91 82 76 74 60 54 54
80 76 75 70 76 74 71 70 70 68 75 92 92 98 92 86 99 99 100 100 100 100 98 95 93 92 87 95 94 94 99 100 100 99 99 100 99 84 68 72 79 84 87 88 86 79 81 80 69 69 66 54 52 47
80 73 74 72 77 73 72 72 68 88 87 85 92 90 97 97 100 100 100 100 100 99 98 98 97 94 94 94 97 97 100 99 99 93 99 97 93 77 75 77 80 84 85 82 80 71 84 76 66 62 57 53 49 46
81 78 74 74 76 73 72 72 65 68 75 90 99 100 100 100 100 100 99 100 100 100 100 99 100 97 93 97 99 99 100 99 88 97 99 100 84 79 81 82 84 80 74 75 75 72 76 81 82 74 55 48 45 46
83 80 76 76 76 72 73 68 66 79 95 99 99 99 96 99 98 98 98 99 100 100 100 99 100 99 95 100 99 98 94 89 92 98 95 98 93 86 82 80 85 87 82 78 79 76 77 80 78 57 49 45 46 47
83 83 80 79 72 72 71 63 67 93 88 90 95 97 94 96 100 100 100 100 100 99 100 100 100 96 100 99 99 98 94 85 81 94 99 99 94 91 85 82 86 89 86 83 80 77 72 68 62 55 50 48 47 48
79 78 88 77 76 68 64 77 88 94 98 96 96 97 94 99 99 99 99 100 97 97 100 100 100 100 97 98 98 86 85 86 98 99 98 98 92 91 90 85 88 89 87 83 79 77 72 65 60 56 53 51 50 49
76 93 81 72 73 64 68 95 98 99 95 84 95 89 97 98 99 98 90 88 82 97 100 100 99 94 99 99 97 91 90 98 98 98 99 93 93 93 92 91 92 92 90 88 83 77 74 68 62 58 63 64 63 62
91 87 73 70 77 74 91 100 98 92 90 94 92 95 85 87 91 87 82 81 92 100 100 100 99 99 98 99 98 99 98 97 98 98 97 94 92 90 88 94 90 95 96 93 92 91 91 84 75 73 80 80 77 68
88 90 79 74 76 92 97 97 96 95 95 96 93 92 91 88 84 76 80 78 82 93 98 99 99 98 96 98 96 99 99 98 97 95 91 87 90 92 93 92 92 95 95 96 92 86 82 78 77 75 70 64 63 61
82 84 81 70 68 95 92 97 97 98 97 97 96 96 92 91 84 83 82 84 82 96 96 97 90 94 94 96 97 98 98 95 96 98 94 92 90 94 93 90 87 94 96 94 95 83 94 80 78 73 65 62 62 63
95 92 87 80 92 94 96 98 98 99 98 98 98 96 96 95 96 91 90 95 92 100 100 95 93 92 94 93 86 87 89 91 94 95 94 97 92 85 79 84 87 88 92 96 96 92 81 85 82 79 81 62 61 61
99 91 90 78 94 94 96 96 98 98 98 98 98 96 98 98 97 94 97 91 89 94 96 96 97 96 95 84 93 92 85 79 83 88 83 88 96 97 94 85 82 91 85 91 97 95 86 78 73 71 71 71 66 62
87 78 87 92 85 86 82 94 98 98 99 98 98 98 98 98 98 95 98 93 94 95 96 96 95 95 92 90 84 79 81 92 93 93 91 94 94 92 94 94 94 92 90 81 96 96 92 77 70 72 68 66 64 67
81 98 96 97 95 97 86 97 95 98 98 97 98 95 97 98 97 96 96 96 95 98 96 96 96 94 95 93 96 95 91 93 90 96 97 97 95 91 92 87 83 86 89 92 94 95 91 80 72 73 71 71 73 77
96 96 94 98 96 86 93 98 98 99 94 93 94 94 95 98 99 100 98 93 99 99 98 98 97 96 93 99 96 95 91 93 92 91 95 95 94 92 93 93 83 83 96 96 94 97 96 93 85 76 74 74 78 80
97 94 96 90 91 82 85 94 94 93 92 93 92 96 98 97 100 89 89 95 98 97 96 94 94 98 97 93 95 96 92 96 96 95 90 93 93 94 98 96 94 86 88 89 97 96 97 96 96 89 80 79 80 87
97 99 93 72 77 76 79 77 75 92 91 89 94 97 96 95 85 75 90 96 96 96 95 93 91 90 86 93 96 97 96 97 92 92 93 93 91 91 92 94 93 84 91 93 92 92 96 96 95 95 95 96 95 94
88 77 87 84 85 86 84 89 86 84 84 82 80 92 89 78 66 78 91 96 98 99 99 99 98 97 96 97 97 98 97 99 98 97 94 91 90 91 92 91 90 87 88 90 94 93 93 96 95 95 95 94 95 95
92 85 82 96 94 89 85 76 79 83 74 82 84 83 84 80 92 95 95 96 99 96 94 94 93 100 100 99 99 99 99 100 100 100 100 95 90 92 93 94 95 95 96 96 89 90 95 96 95 95 95 95 95 95
98 90 91 92 93 93 88 90 95 90 84 87 85 89 88 90 93 97 97 99 96 92 96 97 98 100 98 100 98 97 97 96 96 97 98 95 92 92 97 97 94 90 92 92 94 94 89 97 97 98 97 96 95 95
89 95 92 91 93 97 94 85 89 81 92 97 96 96 91 94 89 96 98 98 98 100 100 100 100 100 100 100 100 100 97 94 96 93 92 91 91 91 91 92 92 92 92 93 95 96 96 97 96 95 95 95 95 94
97 95 94 98 98 94 91 97 97 97 96 97 96 99 96 97 94 90 99 99 100 100 99 99 100 96 96 97 98 97 93 94 94 93 95 94 92 90 91 93 94 95 95 95 95 97 97 93 93 94 95 95 95 95
97 98 97 94 96 98 97 93 96 97 97 99 98 98 99 98 87 88 97 98 96 95 95 96 96 98 98 99 98 98 91 96 98 90 88 85 78 85 95 96 95 96 96 96 97 95 95 95 95 95 95 95 95 95

GFSWCAN_sfc_rhum_048.txt.gz
RH
68 70 67 67 66 65 64 67 68 60 63 61 57 58 56 57 56 75 89 88 95 98 95 81 88 86 73 76 81 92 87 88 94 96 93 90 96 73 82 82 74 83 92 95 93 97 95 57 72 84 72 81 80 87
71 71 70 68 67 68 65 66 69 61 67 64 60 61 59 57 54 59 92 82 88 98 93 92 84 82 87 79 86 89 84 90 87 91 96 96 95 93 85 91 84 93 83 92 85 78 58 63 73 78 75 78 82 88
74 71 70 70 71 68 66 64 71 59 62 64 63 60 64 59 53 57 87 89 95 98 94 99 93 82 78 82 76 88 93 80 89 83 95 95 97 93 94 88 82 72 67 81 76 67 62 61 76 77 74 79 73 85
76 76 72 72 71 72 66 66 72 61 64 66 63 62 63 57 56 58 82 88 94 97 99 95 81 89 88 86 86 82 82 90 90 94 93 93 91 86 93 89 88 74 71 74 79 72 77 78 76 76 71 70 71 90
80 78 76 75 71 74 66 68 72 61 65 68 64 67 66 72 73 71 82 86 81 96 98 94 84 90 90 92 92 85 86 91 96 99 98 96 86 88 92 92 95 81 75 83 80 60 68 70 76 71 69 70 72 83
82 80 78 74 73 73 67 70 71 62 69 65 67 69 73 72 73 86 96 96 85 92 99 98 89 94 93 94 97 98 93 95 96 98 95 91 77 87 93 92 70 78 70 65 66 69 71 79 76 72 72 73 74 75
81 77 73 75 75 70 70 74 62 70 64 65 69 73 77 74 92 93 98 98 88 94 99 99 96 90 91 93 97 98 97 98 96 96 96 92 86 83 91 85 65 73 71 70 67 71 80 76 74 70 70 71 67 67
84 75 75 74 71 70 71 74 63 65 69 69 70 70 66 65 71 85 87 80 90 98 98 100 98 91 89 96 98 97 99 99 99 97 96 93 89 90 98 83 75 68 72 73 79 75 76 76 72 73 70 67 68 66
80 75 76 72 75 71 72 72 66 69 70 70 71 73 83 91 96 96 92 91 95 99 100 100 100 97 94 93 96 99 99 99 96 98 97 99 96 99 86 68 69 73 78 84 81 78 75 78 76 75 74 72 68 65
75 78 74 73 74 72 75 71 67 70 68 73 88 94 99 97 87 90 99 100 100 100 99 99 97 96 94 90 96 98 99 99 100 98 98 99 98 85 69 72 82 85 84 89 92 90 94 90 82 77 75 69 63 57
79 77 73 76 74 76 73 72 70 70 75 92 95 98 96 89 99 99 100 100 99 100 98 96 94 94 92 92 94 95 99 100 100 99 99 100 99 89 78 85 86 86 90 90 92 90 87 81 73 68 68 59 55 51
77 75 74 75 75 78 72 72 69 89 92 88 92 90 98 99 100 100 100 100 100 99 99 97 96 94 94 94 97 95 100 99 98 96 99 99 97 85 83 84 83 85 84 83 85 83 83 83 71 62 63 58 52 46
76 78 79 76 81 79 71 72 64 70 76 92 99 100 100 100 100 100 99 100 100 100 100 99 100 98 95 96 99 99 100 99 90 99 98 99 89 81 81 80 81 80 79 78 76 79 79 76 68 63 62 55 46 46
84 84 87 85 85 85 73 71 63 78 96 100 99 99 98 99 98 98 99 98 100 100 100 99 100 99 95 100 99 99 91 88 92 99 95 96 94 87 81 79 83 88 86 82 81 78 77 93 94 85 70 65 57 49
84 87 88 86 86 76 72 63 66 94 96 93 92 95 98 95 100 100 100 100 100 99 100 100 100 94 100 100 99 98 94 89 77 91 98 99 95 92 85 82 85 89 90 88 81 80 75 71 72 61 54 50 48 49
85 89 92 87 78 72 66 78 89 95 98 95 97 99 94 99 100 99 100 100 97 96 100 100 100 99 96 99 99 92 83 86 96 97 99 98 93 91 92 89 88 88 89 88 83 79 78 69 62 57 53 53 51 50
88 96 88 80 75 67 71 95 97 98 93 89 95 95 98 99 99 99 92 90 83 98 100 100 99 94 99 100 99 91 89 97 96 98 99 94 93 94 94 92 92 92 90 91 88 80 82 72 62 58 62 63 61 59
94 93 87 81 80 75 91 99 96 94 93 96 96 96 88 88 92 89 86 85 94 99 99 100 99 99 99 99 99 100 98 98 95 92 91 94 91 92 90 95 94 94 95 94 95 95 92 90 78 69 80 82 78 74
92 93 85 82 79 91 96 96 96 96 95 98 97 98 92 90 85 78 82 81 86 98 99 99 99 98 96 98 95 99 96 93 84 83 85 80 88 91 90 95 86 85 95 96 96 96 94 86 80 76 74 71 69 68
83 87 84 75 70 92 91 96 97 97 97 95 97 98 94 93 87 87 86 86 91 96 98 99 97 92 95 95 98 93 96 95 95 94 87 89 91 96 94 95 90 92 91 89 96 89 95 86 80 76 74 72 70 67
94 94 85 78 93 94 95 99 98 98 99 98 98 98 99 97 97 97 97 93 97 98 100 94 93 93 96 96 90 88 91 92 94 92 87 97 90 98 97 96 96 84 77 78 88 90 96 95 82 76 86 74 69 61
99 85 92 81 94 94 96 98 98 98 97 98 98 98 99 99 98 97 97 98 97 93 94 95 97 96 96 88 94 95 88 84 83 87 78 86 98 98 98 97 98 98 98 93 82 84 95 94 84 77 74 76 68 67
83 78 93 93 79 83 78 94 95 98 98 97 98 98 98 99 98 97 98 96 92 90 96 95 95 96 93 91 83 78 82 91 90 90 90 92 92 96 96 96 96 99 94 90 94 93 95 87 87 85 77 75 72 69
80 98 97 93 90 96 85 96 93 98 98 99 98 96 97 99 98 97 99 94 92 98 98 94 96 92 90 93 95 93 89 93 94 97 97 97 95 88 88 88 84 85 90 87 94 94 81 84 88 91 81 79 74 74
97 94 92 100 97 93 89 97 98 99 99 94 96 92 95 98 99 100 99 91 98 99 97 97 94 95 89 93 96 95 94 92 92 91 95 94 96 96 94 93 83 79 84 99 95 89 82 85 95 98 86 80 81 86
97 94 97 94 98 86 84 92 96 94 94 96 96 97 98 98 100 89 86 92 96 97 96 94 91 97 96 90 93 96 91 95 96 96 95 94 95 97 98 96 92 87 91 89 96 98 92 83 95 97 96 87 90 96
97 99 94 78 80 80 88 80 77 89 94 95 96 100 98 95 84 72 83 90 95 96 95 91 90 86 85 94 96 97 98 96 91 92 95 97 95 94 93 92 92 84 92 95 96 96 94 94 94 96 96 96 94 96
89 86 94 93 89 94 83 91 86 87 84 86 84 95 91 78 66 78 89 96 97 98 98 98 97 96 95 96 97 97 98 100 99 98 95 95 94 93 93 91 89 85 87 91 94 95 95 95 95 93 96 95 94 96
91 84 81 97 97 97 88 76 79 76 70 82 84 82 84 83 91 94 94 97 98 97 94 94 94 99 99 99 99 99 100 100 99 100 97 92 95 93 94 96 96 96 95 96 88 83 86 90 94 94 94 95 94 96
98 90 89 94 84 83 88 87 94 95 87 89 87 94 94 92 93 98 98 98 96 94 94 96 97 96 93 96 97 97 98 98 96 95 98 93 92 95 97 94 92 90 91 96 95 93 85 83 91 96 97 97 97 95
92 96 95 96 93 98 96 89 92 86 94 98 98 97 93 94 87 92 95 97 96 95 96 98 99 100 100 100 100 100 97 97 98 95 95 94 93 93 91 90 89 92 95 96 96 96 95 94 95 97 96 95 95 94
98 95 94 98 98 94 93 97 98 97 98 98 97 99 96 96 89 83 98 97 98 99 99 97 99 94 96 97 98 97 85 97 98 96 97 94 93 92 90 90 90 94 95 96 96 96 96 96 96 96 95 95 95 95
98 96 96 96 99 100 97 94 97 96 98 98 97 97 97 94 83 84 97 99 96 95 95 95 97 98 98 98 98 99 93 99 100 88 85 85 84 86 91 95 97 96 96 96 95 96 96 96 96 96 96 95 95 95

GFSWCAN_sfc_rhum_051.txt.gz
RH
71 71 66 68 68 67 66 67 67 70 60 64 63 57 56 56 55 74 91 88 97 98 94 88 89 95 83 81 87 92 85 88 93 94 92 91 96 74 86 80 88 90 92 93 88 97 93 59 82 84 70 81 80 84
75 71 67 70 70 69 66 68 66 70 60 63 63 63 59 62 52 60 93 83 85 99 94 89 83 82 90 89 86 90 82 86 86 90 93 92 96 95 89 98 81 90 77 86 84 79 57 59 67 69 74 77 81 86
76 72 72 71 71 70 68 68 65 67 68 62 62 65 58 62 59 56 77 90 92 98 94 99 95 85 84 89 81 89 94 79 87 86 92 95 96 94 96 93 90 76 70 86 82 70 67 61 67 71 69 70 74 76
76 76 73 73 71 70 71 69 66 70 70 60 59 64 60 66 64 57 80 90 94 98 99 91 87 94 85 88 87 80 81 87 86 91 93 94 94 87 90 90 92 78 70 76 83 71 70 76 77 71 70 69 71 90
77 77 80 76 73 72 70 69 67 71 63 60 64 64 68 68 72 80 80 88 89 98 99 95 87 89 90 92 91 89 87 91 96 98 98 96 88 86 91 90 95 84 83 89 80 65 72 72 78 76 74 72 72 91
78 82 80 81 77 71 72 68 69 74 60 66 66 65 71 73 76 82 94 95 87 94 99 100 92 95 96 96 95 92 90 94 95 97 94 91 81 84 95 96 70 79 78 75 76 74 70 74 80 78 74 73 76 86
81 85 82 76 73 74 70 69 76 64 66 68 67 71 75 74 92 93 95 98 86 92 99 99 96 94 91 94 98 99 98 98 97 97 98 94 88 84 93 96 86 74 67 73 75 81 80 80 76 72 72 76 73 78
86 83 78 72 71 72 71 70 76 62 64 68 69 74 67 76 74 85 80 80 94 97 98 100 99 93 91 98 98 96 99 98 99 96 97 95 92 94 99 77 65 64 70 75 78 83 80 79 76 77 75 72 75 74
87 86 77 77 74 72 70 77 72 63 70 69 73 67 82 90 93 95 93 89 96 99 100 100 100 97 94 95 95 99 99 99 98 98 97 99 94 98 92 80 75 79 84 85 85 85 79 77 78 76 74 76 74 71
87 81 80 75 73 72 76 76 69 70 68 74 87 95 99 98 91 94 99 99 100 99 100 94 96 97 95 94 98 99 99 99 100 98 98 99 95 96 86 72 76 86 86 92 98 94 96 92 85 78 75 71 68 66
82 77 76 76 71 78 83 72 71 70 74 92 97 99 98 89 99 98 100 100 99 100 98 94 96 95 94 94 92 97 99 100 100 100 99 100 99 99 81 89 88 92 84 93 94 93 91 90 87 72 70 66 60 57
81 76 74 72 68 78 85 71 70 88 94 89 93 91 97 99 100 100 100 100 100 95 98 99 96 91 96 95 97 97 100 99 99 98 99 99 98 89 91 89 87 84 86 83 78 87 91 90 89 74 66 63 57 51
81 74 75 77 76 81 85 71 66 69 76 93 98 100 100 100 100 100 99 99 100 100 100 100 100 97 97 96 99 99 100 99 92 99 96 99 89 87 90 84 82 79 86 80 84 82 80 77 70 69 63 55 48 50
80 82 82 85 85 87 83 72 62 79 96 100 99 99 98 99 97 99 98 96 99 100 100 99 100 99 96 100 98 100 92 89 99 99 94 94 95 90 81 80 82 87 87 86 88 84 85 90 94 84 70 66 62 50
80 82 84 88 87 86 74 63 69 94 96 97 95 97 98 96 100 100 100 100 100 99 100 100 100 95 100 100 99 99 99 96 78 87 99 97 93 92 88 85 86 88 87 87 84 80 78 77 80 75 80 75 73 57
85 87 94 86 86 80 73 80 90 94 98 97 98 100 93 99 99 99 100 100 97 96 100 100 100 98 99 99 99 96 84 84 92 98 96 97 92 92 94 93 90 91 88 86 85 83 77 77 70 64 73 69 61 53
87 97 86 88 83 82 78 95 96 97 94 94 96 94 98 99 99 99 94 93 85 97 100 100 99 96 99 99 99 92 87 93 98 96 92 95 91 93 96 90 88 88 94 91 88 87 88 80 73 60 63 62 66 69
97 94 87 88 88 79 92 99 97 96 96 96 95 96 95 95 95 91 88 87 96 100 100 100 99 99 99 97 96 96 98 98 96 92 91 90 89 92 87 94 92 88 86 92 95 96 96 93 84 77 80 86 81 76
94 95 87 88 86 95 97 97 96 97 96 98 98 99 96 96 87 83 85 87 98 99 99 99 100 94 96 98 99 99 99 98 85 82 81 80 89 89 88 95 95 96 96 96 96 93 97 95 92 85 78 73 71 70
86 86 87 86 75 94 97 97 96 97 98 95 97 98 98 98 94 89 87 89 96 98 99 99 96 95 94 94 98 98 97 94 90 83 79 82 93 96 96 98 96 93 90 92 95 78 88 95 94 87 81 76 75 72
92 93 83 78 92 92 94 98 98 97 98 96 98 96 97 98 98 98 98 95 98 98 99 95 94 92 97 98 92 92 93 92 90 82 74 92 82 97 98 98 98 86 95 97 96 92 80 83 96 93 89 75 73 71
99 86 89 80 92 93 94 95 98 96 97 98 98 97 98 98 98 99 97 98 97 94 93 95 96 96 97 92 95 95 90 88 89 88 77 83 94 98 97 97 98 99 99 100 97 94 92 92 91 87 91 82 76 71
84 83 91 91 78 78 78 93 93 97 97 96 98 97 97 99 98 97 98 93 93 89 94 97 96 96 93 92 86 84 84 85 85 86 86 92 92 96 98 96 95 100 98 94 95 96 95 89 80 88 92 91 81 76
84 96 95 88 87 89 81 94 92 98 98 99 99 96 95 98 98 97 99 94 90 94 98 96 97 95 94 92 93 84 81 90 92 97 97 96 97 88 80 86 87 90 92 89 96 97 97 96 80 82 92 96 90 82
96 93 94 100 97 94 83 94 99 100 98 97 98 95 96 98 100 100 98 90 96 97 98 97 96 95 92 92 88 90 94 92 93 91 94 94 96 97 96 93 82 80 86 98 94 97 97 97 87 81 87 95 97 94
98 93 96 98 99 95 92 90 98 97 98 100 97 98 99 98 100 86 84 92 96 97 97 95 93 94 94 89 89 93 84 90 95 95 93 92 93 94 96 95 90 92 90 92 98 97 96 98 97 95 95 94 92 94
99 99 96 79 87 83 88 82 81 95 99 96 97 99 97 92 83 70 87 95 95 97 97 94 90 88 88 92 94 94 97 94 91 92 96 95 95 93 92 92 92 87 94 95 96 96 96 95 96 96 96 94 95 95
92 91 96 96 92 94 84 95 92 93 89 86 82 94 87 78 64 77 86 95 98 98 98 97 98 97 92 94 96 96 98 98 97 96 94 94 94 96 95 92 91 85 89 95 96 96 97 97 96 96 96 96 94 94
98 90 86 94 97 97 83 75 79 82 72 87 84 81 82 82 91 92 93 97 98 97 97 97 98 98 98 98 98 98 97 96 93 89 89 86 97 93 96 97 97 96 96 95 85 81 89 95 95 94 94 94 92 94
97 92 90 95 83 80 81 83 92 95 90 91 88 94 93 90 90 97 98 99 96 93 94 96 98 94 93 92 93 93 98 97 95 89 93 91 93 96 98 96 93 92 96 95 95 94 91 92 93 92 90 90 96 97
92 95 93 94 87 96 98 97 96 88 94 98 100 96 92 95 89 92 92 94 94 97 96 96 99 99 93 96 97 98 93 97 97 94 96 97 97 96 95 93 92 93 94 96 95 95 96 97 99 97 96 95 96 95
99 95 92 98 98 98 97 97 98 97 99 99 96 100 97 96 90 84 97 98 98 96 90 91 91 86 92 95 97 97 77 98 97 97 98 99 96 94 93 92 93 94 95 95 95 95 95 96 96 96 95 97 96 96
96 98 99 98 99 100 97 95 97 94 98 100 97 98 99 96 84 85 97 98 95 94 92 94 98 96 97 96 96 99 92 99 100 92 86 84 82 82 86 92 88 95 96 96 96 95 96 96 96 95 96 96 96 96

GFSWCAN_sfc_rhum_054.txt.gz
RH
74 73 68 72 65 64 64 66 67 67 70 64 65 62 56 56 58 76 88 90 98 99 93 84 87 89 88 88 91 86 84 87 93 90 85 90 93 85 91 80 90 85 98 94 93 96 95 62 76 81 68 80 81 81
76 73 68 71 67 70 69 68 68 67 67 71 61 61 65 57 60 71 90 83 82 99 96 85 84 84 91 93 92 91 79 84 85 92 93 90 96 92 90 96 81 89 75 83 82 77 58 58 70 64 74 75 80 83
77 74 74 73 73 72 70 69 69 68 67 72 65 59 61 60 58 70 83 87 94 97 89 98 90 71 83 84 83 88 92 80 86 84 90 92 94 95 96 95 95 80 72 89 87 68 66 62 63 68 71 72 74 74
80 78 76 73 73 73 71 70 71 68 67 72 62 59 63 62 67 72 78 88 95 97 99 91 83 97 92 92 89 85 82 89 86 90 91 94 97 90 94 88 85 84 74 79 86 72 67 74 72 77 73 70 72 84
82 80 77 76 76 74 72 72 71 69 68 72 60 62 62 66 68 84 94 86 86 98 99 98 87 90 93 89 89 89 87 90 95 97 95 94 87 88 94 94 96 86 79 82 84 74 75 74 76 78 77 74 71 82
85 82 79 80 80 76 74 72 70 69 76 65 66 66 65 70 73 88 92 96 91 93 99 100 94 96 97 94 92 89 89 93 94 92 94 93 83 86 96 93 83 79 85 85 90 88 83 78 79 79 79 76 78 85
85 83 80 83 80 78 73 73 70 72 73 67 68 65 72 76 92 89 88 98 86 92 99 100 99 98 94 95 98 99 97 98 96 97 98 92 91 90 96 98 89 72 66 67 76 85 84 83 83 77 77 80 76 83
86 83 83 83 79 74 73 72 70 75 67 63 68 73 71 76 78 89 91 89 90 97 98 100 97 95 92 98 99 97 99 98 99 96 97 96 93 94 97 77 72 75 80 78 79 82 89 86 81 81 82 77 82 80
86 85 85 83 74 75 72 70 74 74 68 70 72 64 81 88 92 93 84 88 93 98 100 99 99 98 96 95 94 99 97 99 96 98 97 99 98 96 87 75 80 80 90 87 85 91 86 87 83 80 80 79 78 77
89 88 85 79 78 72 71 74 76 71 72 73 87 94 99 97 93 96 99 99 99 98 99 99 95 97 94 96 99 99 99 99 100 98 98 99 97 90 78 72 76 81 85 95 96 97 95 95 91 81 80 75 73 72
89 88 82 79 76 75 76 82 71 70 74 96 99 99 97 90 99 99 100 100 98 98 94 91 95 97 95 94 93 97 99 100 99 100 99 100 99 98 82 87 89 91 89 83 87 90 94 96 96 90 81 68 66 64
88 83 80 77 73 72 80 77 72 83 92 88 93 92 98 99 100 100 100 99 97 89 95 99 97 91 97 96 96 96 100 99 99 99 100 97 97 87 91 90 90 90 81 90 80 85 85 93 92 93 87 71 64 57
85 81 77 74 69 71 80 80 70 70 76 94 99 100 100 100 99 99 98 99 100 100 100 99 100 96 96 94 99 99 100 99 94 99 96 98 86 88 91 91 90 85 98 99 87 83 83 84 82 72 74 65 57 55
83 77 78 76 75 72 77 78 65 79 96 100 100 99 99 99 95 97 97 96 95 100 100 99 100 99 96 100 98 100 97 93 99 99 89 93 88 91 88 86 88 86 84 84 84 83 85 89 91 93 71 59 56 58
82 82 81 83 85 87 78 67 72 93 96 97 98 97 99 98 100 100 100 99 100 99 100 100 100 94 100 99 99 99 99 98 87 87 97 93 92 92 93 90 87 91 90 86 83 85 82 75 79 89 84 87 81 77
82 82 92 88 88 87 80 81 92 92 98 97 98 99 92 100 99 99 100 100 98 97 100 100 100 98 99 99 99 97 92 80 90 98 98 92 93 92 93 93 88 91 93 88 86 84 85 82 78 69 73 88 86 77
87 97 86 88 90 91 80 96 98 97 96 98 98 92 97 98 98 98 94 94 87 98 100 100 99 96 98 99 99 93 93 92 97 97 94 90 90 91 94 87 87 91 91 90 86 89 91 88 81 71 73 69 69 78
97 93 89 92 96 94 99 99 98 98 99 97 95 96 91 91 95 92 89 90 98 100 100 100 98 99 99 99 98 96 99 100 98 91 88 85 89 93 87 89 89 94 88 89 96 97 97 97 94 90 89 85 78 77
94 92 89 91 90 98 98 98 97 98 96 98 98 99 97 96 93 91 88 93 99 99 99 99 99 95 95 98 97 100 100 98 97 95 83 77 81 92 87 97 97 97 94 94 96 96 95 92 97 96 90 80 78 75
87 87 90 87 84 98 98 98 98 98 98 97 98 98 99 99 97 94 90 92 97 98 99 98 96 93 94 92 97 97 98 94 92 91 84 86 95 96 96 98 95 95 92 93 97 80 96 93 94 96 94 95 89 79
93 96 90 92 98 92 96 98 98 98 98 97 98 98 98 98 98 99 98 96 98 97 99 96 94 92 97 98 94 93 93 91 89 83 72 91 90 97 98 99 98 83 92 93 93 91 84 94 95 94 97 94 95 81
99 88 90 81 92 93 94 95 97 96 97 97 98 97 98 98 98 98 98 99 98 93 92 94 96 96 98 94 95 96 92 88 88 86 79 78 89 97 97 97 97 98 99 99 97 94 93 96 94 90 80 84 84 92
84 83 91 89 81 78 82 94 93 97 97 96 98 97 96 97 97 98 98 95 92 88 94 96 97 97 96 94 91 87 89 90 83 80 82 89 90 97 98 96 95 100 99 92 95 97 98 86 92 94 90 88 85 96
81 94 94 89 87 88 81 95 91 97 98 98 98 95 94 97 96 98 99 94 90 97 98 96 97 97 95 91 94 89 88 91 89 96 96 93 95 89 81 83 83 90 91 91 98 97 97 97 89 97 88 82 90 94
94 91 95 100 98 93 86 94 100 98 97 97 99 96 96 98 100 100 98 90 97 98 98 98 98 98 96 97 94 86 92 89 90 86 95 94 96 96 94 90 80 80 87 98 91 97 96 98 98 98 96 95 97 95
98 93 97 99 99 96 94 86 97 96 97 98 97 97 99 98 100 87 86 92 95 97 98 97 96 98 95 93 91 90 81 91 93 93 93 91 89 91 92 90 88 90 95 94 97 97 96 96 96 97 96 94 90 94
100 98 99 81 90 86 88 83 81 95 100 95 96 100 95 80 78 67 86 94 94 96 98 98 94 92 93 94 92 94 97 90 91 92 95 96 94 92 90 89 87 86 95 96 97 97 95 94 97 98 97 97 97 96
96 94 99 99 93 96 86 96 96 94 90 86 88 94 83 72 61 73 79 92 97 98 98 98 98 98 96 95 96 95 98 99 97 96 93 91 94 96 96 93 93 81 88 96 96 96 97 97 97 97 96 96 95 95
98 95 90 98 97 97 85 79 81 83 74 91 88 86 79 81 89 90 92 97 99 98 98 98 98 98 98 98 98 98 97 94 86 80 76 70 96 92 98 98 98 98 97 95 86 82 89 93 94 94 94 96 93 94
99 95 94 96 86 85 83 82 90 96 93 90 89 93 93 93 92 98 97 99 97 91 90 94 97 96 96 96 97 96 98 97 92 82 81 78 88 96 98 98 96 93 94 97 96 96 92 93 95 97 98 98 96 94
94 95 93 97 92 94 97 96 97 89 94 98 100 96 91 94 87 91 89 90 91 98 96 96 99 100 95 96 94 93 89 95 93 92 95 98 98 98 97 96 95 95 96 97 96 96 97 97 98 97 97 98 98 92
99 92 91 95 94 97 99 98 99 97 100 100 95 100 97 96 90 84 98 97 98 96 89 90 91 88 91 96 96 94 72 96 97 96 95 98 98 96 95 93 94 95 97 97 96 95 96 96 96 96 95 97 96 95
100 99 100 98 99 100 99 96 99 97 98 100 97 98 99 96 86 87 97 98 96 95 95 96 98 97 94 93 93 96 88 99 100 93 86 85 81 84 88 94 96 96 96 96 97 95 96 96 96 96 96 96 95 96

GFSWCAN_sfc_rhum_057.txt.gz
RH
84 77 75 72 72 69 65 64 66 67 68 68 70 64 64 60 56 72 83 90 97 99 91 84 85 92 94 90 91 85 86 85 94 86 83 86 91 86 85 79 84 81 91 84 88 88 88 61 80 81 69 72 76 76
87 80 75 71 74 71 70 70 70 68 69 68 69 69 62 63 59 69 87 84 86 96 95 88 88 81 85 90 95 93 77 86 86 93 92 88 96 95 91 94 78 92 79 83 75 73 55 61 67 61 66 68 72 76
90 82 75 73 73 71 73 72 71 70 71 68 69 70 63 59 64 66 80 87 92 93 91 95 78 64 71 75 72 98 93 84 87 86 92 89 90 94 98 96 93 84 70 84 84 72 67 59 61 62 69 72 68 72
91 85 82 76 74 73 73 73 71 71 71 68 67 69 60 63 62 66 91 89 89 94 94 83 76 88 85 87 87 89 85 90 89 92 90 93 92 89 94 89 93 84 76 69 85 75 70 65 70 67 71 70 68 72
91 88 82 78 77 77 75 75 72 73 71 68 72 64 62 63 64 83 96 91 85 92 97 91 81 75 95 95 97 91 90 91 94 94 94 91 88 88 96 96 98 90 87 90 86 76 82 72 69 69 72 73 69 72
92 88 82 80 80 77 78 75 75 72 70 71 72 67 68 66 71 94 95 95 87 88 98 99 91 99 99 98 95 95 94 94 94 89 91 91 83 86 95 92 79 83 87 85 85 91 88 82 85 79 77 75 74 75
91 88 86 85 81 80 79 77 73 72 70 74 67 68 67 70 92 91 89 95 84 90 98 99 100 99 96 97 99 99 96 97 94 93 97 94 92 87 98 93 84 78 76 76 78 79 88 86 88 86 81 77 76 82
91 89 88 86 82 81 81 75 74 71 71 70 64 68 74 74 81 90 94 85 86 95 99 99 99 99 95 98 99 97 99 99 99 97 97 97 96 96 98 86 78 76 82 83 89 87 84 80 89 83 80 78 80 79
92 91 91 86 84 83 77 75 71 72 74 70 69 74 82 88 92 91 81 85 93 98 100 100 100 100 98 96 98 99 94 99 96 99 97 98 96 93 88 77 72 77 86 92 92 93 89 91 88 85 77 75 79 80
91 91 90 89 87 81 77 72 71 75 71 69 86 92 99 96 85 95 98 99 100 98 99 99 94 99 96 95 99 98 99 99 100 98 98 100 98 87 76 76 75 81 86 94 96 95 96 97 95 91 87 74 73 76
93 93 92 91 86 79 74 76 77 71 76 95 99 99 97 93 99 98 99 99 98 97 96 94 92 97 95 97 98 96 99 99 99 97 100 99 98 98 79 80 83 87 92 92 90 90 87 87 94 97 94 85 74 68
93 94 93 88 81 77 76 79 76 81 91 88 93 92 98 99 100 99 99 98 99 89 90 98 97 92 97 96 96 97 97 100 99 98 100 99 95 84 81 90 91 92 95 96 89 88 86 86 86 93 95 91 80 66
94 94 90 83 78 74 78 77 76 67 81 96 99 100 100 100 99 100 99 99 100 100 100 100 100 96 96 95 99 98 100 99 96 99 92 96 87 86 92 92 92 90 98 100 99 88 83 86 86 87 72 68 68 60
94 91 86 80 72 70 75 79 70 76 97 100 99 98 99 99 97 97 97 97 100 100 100 99 100 99 96 99 98 100 98 97 99 99 94 95 85 92 89 87 87 88 84 84 86 84 81 80 86 90 87 67 55 57
88 88 81 74 72 73 79 73 74 92 98 99 100 98 98 98 100 100 100 100 100 99 100 100 100 93 99 97 96 98 100 98 90 83 96 95 90 93 92 88 88 95 93 88 84 84 84 80 77 71 80 91 87 80
87 86 91 81 82 82 78 83 91 92 98 99 99 99 94 100 100 100 100 100 98 98 100 99 100 99 98 98 99 95 97 89 88 98 98 90 94 93 93 91 89 93 95 89 84 85 87 87 85 75 64 70 81 91
87 99 82 87 87 89 86 96 97 97 97 100 98 90 96 99 98 99 96 95 88 98 100 100 99 88 97 97 99 93 96 91 94 99 97 88 87 92 94 86 86 91 89 87 91 92 93 91 89 83 84 80 76 72
98 93 88 93 96 97 99 98 97 97 100 98 96 96 93 96 98 96 95 95 99 99 100 100 99 99 99 99 98 95 99 99 99 98 97 86 81 90 88 84 89 85 80 87 97 97 98 96 97 97 96 93 84 80
95 92 91 91 94 98 98 99 97 97 96 98 98 97 97 97 94 95 95 97 99 99 99 99 99 98 93 98 96 99 100 99 96 95 92 86 77 86 82 97 97 97 94 96 93 94 95 94 97 98 94 96 96 87
87 90 92 92 84 98 98 98 99 98 98 98 99 99 98 98 98 97 96 96 97 98 99 99 97 93 93 92 96 97 98 95 96 95 93 91 94 97 96 97 92 93 90 89 96 78 96 86 91 92 94 95 94 97
93 97 95 94 99 97 98 98 98 98 98 98 98 98 98 98 98 99 99 98 97 96 99 95 94 92 97 98 94 94 94 93 92 90 88 94 95 96 98 99 99 84 89 89 90 86 79 84 92 96 98 83 80 83
99 88 92 80 92 94 94 96 98 97 97 97 97 97 98 98 98 98 98 99 98 94 92 95 96 96 97 94 96 96 93 88 87 83 73 78 92 98 99 97 98 95 97 96 97 95 92 96 96 97 97 95 83 77
82 79 87 89 81 78 88 93 93 97 96 97 97 97 97 97 97 98 98 96 92 90 96 98 96 97 97 95 92 88 92 92 91 88 87 86 84 96 98 96 96 99 98 93 96 96 97 82 89 94 98 96 83 80
77 92 94 94 89 90 81 96 91 97 98 97 97 94 94 97 96 99 98 93 90 98 98 96 96 97 93 94 97 96 94 95 92 96 96 92 96 90 84 83 78 84 85 92 97 97 97 96 88 98 98 98 96 97
93 95 94 100 99 92 89 95 99 97 97 97 97 94 96 97 98 98 93 89 96 97 97 98 98 98 97 98 97 94 94 89 84 78 94 93 96 96 95 93 81 78 85 97 94 95 96 97 98 98 97 97 97 96
100 97 97 96 99 96 96 88 97 95 98 98 98 98 98 97 94 83 83 88 91 93 95 97 98 99 98 94 96 91 81 86 87 86 90 87 87 88 92 89 92 86 94 90 96 96 96 97 97 97 96 95 90 95
100 100 96 81 91 88 90 84 81 95 100 95 96 100 94 77 77 66 81 89 90 92 96 97 96 94 95 96 93 90 95 89 87 88 93 92 90 86 86 84 83 84 89 94 97 96 96 96 97 97 97 96 98 96
96 97 99 99 94 97 88 97 96 94 91 87 90 98 86 76 74 76 74 89 95 98 98 98 97 97 96 96 97 95 98 98 97 96 96 96 97 97 97 95 96 78 92 95 95 96 97 97 97 97 98 97 94 94
96 89 92 99 96 97 88 82 83 85 74 92 89 89 83 79 89 89 89 96 99 98 98 98 97 99 98 98 98 98 98 93 85 79 80 80 92 86 98 98 98 98 98 98 86 82 93 96 94 94 93 94 92 94
96 94 96 98 90 90 88 86 91 95 93 92 90 93 92 92 92 97 98 99 96 89 85 92 96 96 95 98 97 96 97 96 92 81 84 79 85 95 99 98 98 98 98 98 97 97 91 94 95 95 98 98 97 96
96 95 95 99 94 95 97 96 97 90 94 99 100 96 91 94 88 91 89 86 79 98 95 91 98 100 96 97 96 97 92 94 92 90 94 98 98 99 98 97 96 97 98 98 98 98 97 97 98 97 96 97 98 95
99 96 94 98 95 97 99 100 100 98 100 100 94 100 96 95 90 83 98 97 98 94 88 89 89 82 91 97 97 96 76 95 97 95 92 98 99 98 97 96 97 97 98 98 96 96 96 96 96 95 95 96 96 96
100 100 100 99 99 98 98 96 99 98 100 100 97 97 98 94 84 87 98 99 95 95 95 95 98 97 95 95 94 97 85 98 100 91 89 85 81 84 90 96 96 97 99 98 96 96 97 96 96 96 96 96 95 95

GFSWCAN_sfc_rhum_060.txt.gz
RH
91 90 83 79 73 70 69 69 65 66 68 68 68 70 64 63 61 65 70 78 84 87 77 74 74 78 87 74 70 73 71 72 75 76 65 64 62 65 69 59 65 63 73 78 69 77 73 44 63 75 62 55 53 54
93 91 86 82 77 74 70 69 70 71 69 69 68 68 69 64 63 67 79 71 75 81 70 72 70 70 73 74 92 78 68 66 61 68 70 66 67 84 68 77 64 65 51 57 55 48 39 44 53 48 55 49 52 56
95 92 89 84 80 76 78 72 72 71 71 70 70 67 70 66 60 70 73 79 92 92 73 73 63 48 46 70 69 96 75 69 69 63 68 66 68 69 79 66 67 60 53 55 60 48 44 40 43 55 56 57 54 54
95 94 91 87 82 81 78 74 74 73 72 71 70 66 68 62 61 66 82 82 90 86 90 63 48 74 55 62 69 74 70 73 70 72 72 72 65 67 66 63 67 56 58 55 55 51 50 47 52 61 60 55 54 53
95 95 92 89 85 83 80 76 75 74 72 73 69 69 70 64 64 76 87 80 76 85 83 72 55 46 45 80 79 86 76 81 83 81 77 72 72 72 72 77 78 62 57 59 51 47 51 55 65 76 64 61 58 56
94 95 93 90 87 84 80 78 76 75 75 72 70 73 68 68 70 80 87 86 79 78 98 90 70 76 78 92 90 93 89 86 84 76 79 74 69 63 76 72 53 58 63 62 55 66 65 62 64 66 64 61 57 57
86 93 93 91 89 83 82 82 77 77 73 71 72 69 67 68 80 89 74 83 85 85 98 95 92 81 84 98 98 98 95 95 86 78 79 76 78 73 83 81 52 64 61 59 60 63 65 66 65 62 65 62 61 60
86 87 92 92 88 86 85 82 78 76 74 70 71 67 68 74 78 92 77 83 82 95 98 99 97 99 93 97 98 98 98 96 94 85 93 86 82 89 97 74 63 63 61 62 70 70 69 66 69 69 64 61 63 60
87 86 88 92 89 89 87 80 79 76 72 73 70 70 78 81 87 84 80 81 88 92 99 99 100 100 97 88 98 94 94 98 96 98 92 93 96 96 84 74 69 61 67 73 73 73 73 77 76 74 75 68 65 59
84 86 88 91 90 90 86 80 78 73 74 69 79 87 97 88 78 88 98 99 100 99 99 99 98 99 96 90 94 90 87 92 100 94 97 99 93 87 70 68 67 68 71 76 80 82 88 95 87 76 74 75 74 69
85 87 88 93 92 91 87 82 76 76 77 91 92 96 98 94 99 98 100 99 99 100 99 96 91 97 88 95 95 90 99 100 100 99 99 100 99 94 74 75 77 79 78 77 76 77 77 78 81 79 77 75 75 75
86 86 89 92 94 91 83 79 79 78 88 88 89 90 98 99 100 100 99 100 100 94 82 92 82 91 94 94 96 95 97 100 99 98 99 98 85 80 72 77 76 77 82 87 89 93 87 85 83 87 82 67 70 75
86 86 90 95 92 85 81 79 78 67 81 89 94 100 100 100 100 100 96 100 99 99 100 100 99 94 93 87 96 94 100 96 96 100 88 81 83 77 77 76 77 81 98 100 99 98 87 82 83 90 88 55 53 58
87 93 94 93 87 82 78 81 72 80 92 96 99 99 100 99 96 94 89 94 97 99 100 98 99 98 88 95 88 98 95 98 99 96 87 78 78 74 74 76 75 83 75 76 78 77 78 80 81 78 86 86 62 53
95 94 93 89 83 80 78 81 75 88 95 100 100 97 98 93 100 100 100 100 98 96 99 99 100 91 99 100 88 98 98 95 83 71 81 88 80 80 71 71 75 78 75 70 71 74 75 74 69 65 60 75 90 86
92 91 91 83 82 83 88 85 87 87 97 99 98 97 88 98 100 100 100 100 96 95 97 97 100 99 94 90 95 90 91 84 78 91 86 80 76 73 72 68 71 76 76 68 67 72 76 78 77 71 63 64 62 65
87 98 86 84 85 88 80 92 92 99 96 98 97 85 92 96 96 95 97 94 85 98 100 100 93 90 94 92 92 89 91 87 91 87 81 81 83 76 75 68 71 75 63 67 72 74 77 78 76 75 82 79 72 63
94 90 90 94 96 97 99 97 96 95 100 97 90 89 82 87 89 89 97 97 98 99 99 100 99 100 95 95 89 87 88 92 88 82 78 75 75 80 80 65 73 66 58 70 78 80 82 84 79 80 77 79 84 78
94 94 93 86 91 95 96 96 95 96 95 92 90 90 89 87 86 83 86 96 99 99 100 99 100 97 83 86 90 94 92 86 76 77 73 68 65 74 75 86 86 80 72 75 66 61 62 69 73 70 65 71 79 85
89 90 90 84 82 93 95 97 97 95 96 92 94 95 92 90 86 87 88 90 93 97 99 99 90 77 74 75 80 80 79 74 75 78 77 74 74 88 85 81 69 70 60 69 69 65 63 55 60 62 73 77 78 79
96 96 93 91 95 94 95 96 96 96 96 95 95 94 94 94 94 96 97 94 95 94 94 82 78 74 86 83 79 79 79 77 74 68 69 78 73 75 79 81 86 69 57 54 52 53 60 57 62 66 86 74 69 68
99 90 97 90 92 91 93 93 96 94 94 95 95 95 96 96 96 96 95 98 96 88 82 76 77 78 84 84 82 87 83 82 77 65 69 75 80 83 80 78 85 79 76 74 70 66 62 62 64 70 74 73 73 72
79 73 81 85 81 80 94 87 92 95 92 95 96 95 96 96 96 96 96 92 90 83 87 88 88 89 86 85 86 84 86 85 75 70 66 58 62 73 74 76 76 82 79 68 67 67 72 66 68 70 75 74 74 72
73 89 92 92 85 92 79 94 85 92 93 92 93 87 90 94 94 95 94 89 85 84 84 87 88 86 83 90 86 82 80 79 75 74 71 68 71 64 68 66 62 69 68 65 73 73 72 72 73 78 77 80 80 79
90 98 93 100 96 92 92 93 96 90 92 94 93 90 92 93 92 93 85 86 84 84 79 80 86 88 91 88 81 80 88 79 77 74 69 68 64 67 72 70 62 60 67 84 74 75 78 79 79 80 78 79 84 89
99 97 95 94 98 90 93 91 93 90 93 96 94 92 94 92 87 82 79 82 82 81 82 86 87 89 88 84 81 80 76 78 72 69 66 73 68 72 80 71 70 67 68 66 78 76 78 80 83 88 82 84 83 88
99 100 91 76 86 84 84 78 75 85 96 91 90 98 90 82 78 66 71 73 74 80 82 85 86 85 82 84 84 81 74 84 84 76 73 74 74 69 77 76 73 65 70 79 81 79 79 80 82 84 88 87 87 88
93 95 98 98 90 89 88 91 91 89 81 78 85 98 89 81 74 75 72 75 83 86 89 89 90 92 92 89 87 83 86 90 88 84 78 76 80 84 86 83 82 69 85 83 82 84 86 88 91 91 92 92 90 84
93 86 88 99 95 94 88 81 81 77 69 85 86 84 82 76 83 79 76 83 92 92 89 85 87 96 94 92 91 90 88 89 84 80 70 61 71 77 84 87 88 89 90 88 82 84 94 93 91 91 93 91 89 89
90 95 97 99 94 94 88 85 88 88 85 86 83 85 82 82 83 87 87 90 89 82 77 84 88 93 88 94 92 94 93 90 82 70 74 74 79 80 86 87 87 88 89 88 88 90 86 89 91 94 94 93 92 91
96 96 95 99 96 94 96 92 91 84 90 94 96 92 83 87 83 82 80 76 74 89 90 82 88 93 89 90 92 91 87 91 89 87 89 88 86 87 88 88 87 88 90 91 92 93 94 95 95 95 94 95 96 92
100 98 97 98 95 96 95 99 99 97 96 97 90 100 93 91 87 77 83 92 91 87 81 82 86 77 86 82 90 88 74 84 87 91 92 91 90 90 90 91 94 94 94 96 96 95 96 96 94 94 94 96 95 95
98 99 100 98 97 96 99 94 98 98 98 98 95 94 94 90 82 79 90 93 89 87 86 87 89 89 91 92 91 89 85 92 98 87 88 87 88 88 92 94 94 96 97 96 95 94 96 96 95 95 95 95 95 95

GFSWCAN_sfc_rhum_063.txt.gz
RH
95 93 91 89 83 78 73 71 70 66 68 68 69 69 69 68 63 66 60 61 65 62 55 48 52 67 79 79 73 68 69 65 68 72 66 59 53 49 54 45 51 58 64 66 62 75 74 36 52 53 64 50 47 48
95 95 93 91 87 82 77 72 72 70 70 71 70 71 69 69 71 67 72 60 59 76 58 51 50 45 47 62 92 75 67 54 52 59 51 52 53 59 49 60 48 57 44 49 50 49 37 39 47 42 47 54 52 53
89 94 94 92 89 85 80 75 74 73 74 72 70 71 68 68 70 64 68 81 85 86 64 58 56 41 38 43 67 98 69 61 58 54 56 50 58 52 63 53 53 46 38 48 49 41 39 35 38 45 51 54 51 49
85 88 94 94 92 88 83 81 78 74 75 70 71 70 71 68 70 64 82 77 82 82 87 52 32 45 43 52 44 71 78 69 69 68 66 60 53 51 53 59 53 52 47 50 47 40 44 47 43 49 56 53 52 49
88 91 90 92 94 91 87 84 83 79 75 71 72 72 70 72 67 74 77 67 70 88 80 69 50 42 39 43 57 66 72 74 85 81 69 64 53 53 52 61 58 45 50 56 49 38 40 50 55 62 59 57 55 55
80 85 87 90 91 92 89 86 85 83 79 75 76 72 72 71 68 67 70 74 74 80 99 82 51 51 55 50 47 78 89 88 90 77 67 61 52 54 62 60 41 37 39 44 47 54 54 54 60 60 58 58 56 55
79 83 85 85 88 91 91 88 87 82 78 78 74 72 73 70 74 80 66 81 78 85 99 88 84 85 58 69 76 92 95 96 91 77 72 69 66 66 65 67 42 41 45 50 52 56 59 56 57 56 56 56 56 55
74 81 83 85 86 88 89 89 88 84 81 76 72 71 68 69 72 87 67 81 79 94 98 98 88 98 82 89 84 83 94 95 93 80 78 72 69 72 82 56 46 43 53 55 54 58 58 58 57 58 61 58 60 58
79 81 82 84 83 88 89 89 88 87 82 75 72 69 74 81 84 74 76 81 85 84 98 99 98 100 81 92 94 92 91 99 96 92 82 82 92 93 71 61 59 56 60 60 65 67 66 66 66 66 64 65 66 61
81 82 83 84 84 86 88 91 89 87 81 78 70 81 88 74 82 88 97 99 100 95 99 97 96 99 96 95 97 94 95 95 100 91 93 98 92 66 66 61 60 59 61 66 70 73 80 88 82 68 65 62 64 66
79 81 82 82 84 86 84 92 89 84 83 90 83 88 95 87 95 98 100 99 97 100 98 97 97 99 98 95 96 90 98 97 100 96 99 98 93 85 71 74 73 76 74 73 71 70 70 71 74 75 74 71 70 67
82 83 83 84 86 86 84 93 87 87 89 86 86 88 97 99 100 100 99 99 99 93 89 89 84 95 97 92 96 89 100 100 100 97 99 93 83 77 70 72 73 68 70 76 78 85 90 84 82 85 90 84 60 54
86 87 87 84 85 88 93 86 87 80 85 84 88 100 100 99 100 100 95 99 99 91 90 98 98 98 97 90 96 97 100 100 97 100 88 76 83 74 69 69 71 81 96 100 98 97 98 87 80 86 91 86 68 50
87 87 87 86 87 88 89 89 84 84 88 93 100 100 100 100 94 86 83 90 90 98 99 94 96 98 84 98 89 99 95 98 97 92 83 67 76 66 67 69 90 98 84 77 75 72 72 75 79 81 81 90 89 65
87 88 88 88 92 91 89 87 83 86 92 100 100 96 97 86 100 99 100 96 95 92 98 99 100 89 99 99 85 96 98 93 78 72 81 86 75 73 69 68 86 67 63 58 59 64 67 67 66 61 57 56 59 82
88 89 94 90 88 89 88 90 92 87 100 100 100 98 83 98 100 100 100 100 96 92 98 97 100 100 98 89 96 93 87 80 78 96 88 76 70 63 61 62 62 64 59 53 55 59 59 68 70 69 64 68 65 58
82 97 89 89 90 92 86 96 97 100 100 99 96 82 86 96 99 97 95 98 92 96 100 100 99 91 95 89 90 87 89 92 98 86 78 73 76 63 57 57 62 62 49 54 56 58 63 64 68 65 68 68 76 71
96 93 91 92 93 96 98 99 99 92 87 93 88 82 74 81 98 95 96 99 99 99 99 100 100 100 87 85 84 85 88 97 85 78 74 72 70 72 72 60 64 59 50 57 68 71 70 71 57 58 62 66 70 81
93 93 90 85 81 90 99 97 98 87 87 87 80 80 80 80 81 82 76 96 99 99 100 100 100 93 79 79 91 100 97 83 66 69 65 60 60 66 70 84 83 74 68 65 55 46 48 54 56 59 56 62 65 69
90 92 86 78 72 88 92 97 94 90 91 85 88 90 86 85 79 80 80 85 93 100 100 98 86 71 66 70 75 77 74 68 67 70 69 65 60 87 86 79 65 65 49 55 65 63 54 51 52 52 59 68 69 64
96 95 89 80 88 89 90 91 91 89 90 88 89 87 88 90 92 94 94 90 95 92 86 71 69 66 80 74 70 72 70 66 65 61 61 71 64 69 75 76 79 60 47 42 41 41 58 50 51 56 75 66 63 62
97 83 89 75 88 87 88 89 91 89 89 91 91 91 92 93 93 94 93 96 93 84 70 66 65 67 69 73 69 78 77 77 73 65 66 68 72 77 76 75 79 78 73 71 62 60 56 53 55 58 64 64 65 64
75 70 75 77 80 74 93 82 87 90 92 93 94 93 93 94 94 93 95 91 86 77 80 81 86 86 82 76 77 77 78 84 75 68 60 59 58 76 76 76 76 86 84 69 62 62 70 61 60 65 63 68 66 66
67 86 90 88 78 90 73 88 76 84 87 86 88 86 90 94 92 95 94 92 84 78 77 87 80 76 77 92 82 76 75 74 74 70 63 59 65 53 56 60 56 67 68 61 66 68 65 64 65 69 72 73 73 74
88 96 92 99 90 87 88 86 87 81 85 87 87 87 89 89 90 93 90 87 84 82 79 72 70 76 85 82 75 75 86 77 78 76 68 64 57 56 65 60 52 52 59 80 68 68 71 75 74 75 76 76 80 86
97 94 93 91 94 88 84 89 88 85 82 90 86 87 90 88 88 85 78 82 83 80 81 83 82 78 73 74 76 76 73 75 75 77 71 70 62 66 79 74 72 67 60 62 77 73 74 79 80 86 80 81 79 84
98 98 85 69 73 73 72 65 63 72 87 88 85 92 88 90 83 70 68 67 72 79 78 81 80 77 76 77 76 76 72 80 84 81 71 70 70 62 74 77 72 67 69 75 78 77 79 80 82 82 84 84 86 88
86 89 96 91 84 79 86 77 82 85 74 65 73 93 90 83 76 76 74 71 77 80 82 81 82 84 85 84 84 82 82 83 87 83 78 73 74 79 85 82 82 66 82 83 82 83 83 84 85 86 89 91 89 86
92 84 83 98 93 88 85 81 77 66 58 70 80 77 78 71 79 78 74 76 83 83 81 78 82 90 88 87 88 88 88 86 86 83 81 74 76 78 83 84 88 88 88 87 76 80 94 93 92 90 91 91 90 90
92 85 91 98 96 92 84 76 80 78 70 74 75 73 73 75 78 79 78 79 80 78 75 75 83 88 79 83 79 89 92 88 85 78 78 74 75 84 87 87 86 87 88 88 88 88 79 85 89 92 94 93 91 92
89 92 95 90 93 86 88 82 82 71 78 86 87 88 75 83 79 76 73 67 70 74 80 78 78 87 81 81 82 78 77 89 88 85 84 88 86 86 87 88 88 88 90 90 91 91 92 93 95 95 94 95 96 90
93 97 97 99 93 90 88 93 90 90 88 91 89 90 86 86 86 76 75 82 84 78 76 74 79 74 84 80 86 85 67 89 89 91 91 87 88 88 88 90 93 92 93 94 94 95 96 98 96 95 94 95 95 95
93 93 95 95 95 91 92 91 89 92 92 92 88 87 87 84 82 74 76 84 84 84 83 84 85 86 90 89 86 84 79 89 87 80 78 79 79 86 94 94 94 95 96 96 96 96 97 96 96 95 95 96 95 95

GFSWCAN_sfc_rhum_066.txt.gz
RH
94 96 94 92 90 89 82 78 75 73 70 70 70 70 71 70 70 75 76 72 76 72 61 51 49 57 61 79 97 88 86 78 87 84 87 74 65 60 64 57 60 63 83 86 76 91 86 55 58 65 73 61 60 65
86 91 94 94 93 92 85 82 81 79 77 71 72 70 71 71 70 74 86 65 66 89 71 58 56 53 55 57 91 93 98 83 74 82 76 67 68 72 64 65 59 68 59 66 64 72 52 49 59 55 60 62 66 69
87 88 89 93 94 93 90 87 84 80 79 74 74 71 70 71 68 75 84 86 88 95 79 69 60 47 43 46 50 87 90 79 78 84 88 68 72 72 68 56 60 56 50 61 60 53 51 45 52 62 68 67 58 59
88 88 88 88 91 94 92 90 87 82 79 76 74 69 70 73 70 72 90 87 90 95 97 62 38 45 41 46 49 60 62 77 77 85 93 83 73 62 70 64 73 63 58 60 62 53 55 61 52 60 66 66 65 59
74 79 83 87 90 90 92 92 89 85 82 78 77 71 72 73 72 80 88 80 82 91 88 77 63 51 44 44 52 60 68 79 96 96 95 87 70 69 70 79 82 66 69 74 72 60 59 82 76 71 72 72 70 70
72 75 76 78 81 87 87 86 91 89 88 84 82 79 75 72 71 83 86 87 78 84 100 98 66 50 47 55 52 64 69 80 96 98 90 79 65 70 80 76 54 50 51 52 67 70 69 68 72 74 73 73 71 69
70 71 73 76 78 79 85 88 87 91 89 87 86 84 74 73 87 88 80 91 83 90 99 96 90 74 82 63 67 76 81 90 96 97 93 81 83 76 83 82 56 53 57 62 65 72 79 69 75 70 70 67 64 70
69 70 70 71 73 76 81 85 88 87 90 86 87 77 70 72 76 85 76 79 85 94 99 99 93 94 85 90 91 77 86 93 95 96 88 86 81 86 91 72 59 55 61 67 67 74 74 72 72 74 78 75 78 74
71 71 70 70 72 74 75 77 87 84 90 89 85 75 80 89 93 89 75 80 90 93 97 93 96 98 92 91 89 92 89 100 95 97 90 90 90 92 80 71 68 70 71 73 75 76 78 79 79 81 83 81 83 80
73 72 71 71 73 76 77 78 82 83 92 85 84 86 94 87 85 82 96 99 100 100 99 95 82 98 98 93 98 95 98 99 100 98 95 98 96 77 73 72 74 76 75 76 86 88 86 90 89 87 82 79 81 81
73 73 73 75 78 81 80 80 81 90 87 97 96 90 99 86 94 98 100 99 97 99 98 89 89 99 97 99 99 96 100 99 99 100 98 99 94 87 84 85 83 77 74 75 75 74 74 78 88 90 89 86 86 80
74 75 77 79 84 84 82 82 84 94 97 88 89 93 98 99 100 100 98 97 99 93 97 99 94 96 97 98 98 96 100 99 99 97 98 91 82 88 82 82 75 71 72 75 84 91 94 86 82 85 88 89 82 63
78 79 80 83 86 86 84 82 86 84 82 89 94 100 100 100 99 99 97 99 99 98 98 99 99 99 98 96 96 99 95 99 96 96 93 93 94 83 78 75 87 95 98 100 98 98 97 92 84 85 86 84 89 76
82 84 86 87 88 86 87 87 86 88 93 98 97 99 99 99 98 94 98 100 99 100 98 96 99 98 90 100 96 99 99 99 100 99 92 93 90 80 77 80 95 98 96 96 93 80 79 74 73 82 81 78 82 90
83 86 88 88 88 89 90 87 84 91 94 98 100 96 98 94 98 100 100 100 97 99 99 100 100 96 100 100 96 99 99 98 86 86 97 98 87 83 83 85 95 71 67 62 62 68 71 72 74 73 70 70 67 64
84 88 91 86 87 92 90 92 94 95 100 100 100 99 93 98 99 100 100 100 99 98 99 100 100 100 100 99 99 94 93 87 91 100 99 94 87 82 82 83 74 70 64 61 64 64 66 77 82 80 76 81 84 74
89 99 90 88 92 93 88 97 99 100 95 98 96 90 94 98 98 99 99 99 96 99 100 100 99 99 99 98 96 91 94 96 97 98 97 88 82 77 75 74 77 72 59 64 66 70 75 76 80 76 77 76 77 90
97 96 93 95 91 91 99 100 99 95 96 97 98 96 84 84 94 99 100 99 100 100 100 100 100 99 97 93 91 95 99 99 97 97 95 90 85 83 73 75 75 67 64 71 80 88 88 86 70 75 78 86 85 92
94 93 87 80 85 97 98 99 100 96 95 96 93 93 91 84 88 92 95 99 100 100 100 100 99 99 96 97 100 98 100 98 92 90 87 83 82 87 84 90 89 88 87 87 76 63 67 68 70 76 72 79 87 86
92 92 83 73 74 94 96 99 97 96 97 97 93 90 84 84 88 94 92 95 98 100 99 98 91 87 89 92 96 96 95 89 89 90 88 86 86 94 92 93 89 84 75 82 91 71 89 74 67 66 71 86 90 83
96 91 79 84 94 92 94 94 91 96 96 93 96 90 85 90 92 92 92 98 99 98 98 96 89 82 92 92 88 88 89 86 87 87 86 95 88 96 97 96 94 76 68 64 65 63 61 72 72 84 91 80 80 80
98 80 89 79 92 94 96 95 94 88 92 95 90 91 91 92 91 95 98 97 97 96 95 83 91 93 92 83 88 92 88 88 87 85 73 78 91 95 96 96 94 92 88 86 90 88 91 90 86 85 90 93 84 92
74 74 86 89 86 86 98 94 96 96 94 94 99 97 99 99 99 98 99 97 96 94 96 96 95 94 94 92 88 87 87 96 95 92 88 88 85 96 96 94 94 94 96 95 94 94 93 75 79 88 92 92 93 94
68 88 92 93 90 96 83 96 88 95 96 97 98 99 98 99 98 99 98 97 96 96 94 93 96 95 96 96 98 96 94 96 95 95 93 91 91 87 88 91 84 93 93 95 93 93 93 92 75 91 94 94 94 95
88 96 96 100 96 91 95 97 97 94 93 97 95 97 98 98 98 98 97 95 97 96 96 94 90 92 97 97 96 95 93 96 97 97 96 93 94 91 91 85 71 73 86 90 91 92 94 95 94 94 94 95 95 93
98 96 95 94 97 92 95 95 96 93 94 98 96 98 98 98 97 90 92 93 94 94 94 93 94 95 94 92 95 95 95 95 95 96 95 88 83 86 89 91 92 86 81 82 92 89 90 93 94 94 95 90 80 89
98 96 87 72 84 82 86 78 76 92 94 91 97 99 96 92 89 82 92 91 90 94 94 95 94 92 91 95 94 95 94 95 94 95 94 93 94 92 90 87 84 83 90 85 88 88 88 90 93 93 94 97 96 96
88 91 96 96 95 96 92 92 90 87 91 87 90 98 93 85 81 91 91 92 94 94 94 95 94 93 93 92 95 96 96 96 95 94 93 90 86 88 92 96 93 66 93 92 92 93 92 92 94 95 96 96 97 97
98 90 92 99 97 98 95 90 92 92 77 94 93 92 90 92 92 90 88 92 95 94 89 85 83 92 92 97 97 97 97 96 92 86 86 86 93 88 92 92 93 94 95 94 69 87 95 97 97 97 96 96 96 96
100 97 97 99 97 95 94 95 95 94 88 92 93 93 94 92 88 95 94 94 90 82 75 78 79 93 86 91 88 93 94 93 90 84 83 82 86 94 97 96 96 98 98 98 98 97 78 90 92 98 98 98 99 99
98 97 97 97 98 96 98 96 97 87 93 98 98 97 92 93 91 94 87 77 74 81 90 79 76 95 92 92 92 93 85 94 90 88 88 97 96 96 97 97 97 97 97 97 98 98 99 99 100 100 100 100 99 94
97 100 99 100 96 97 98 98 100 99 98 99 97 99 98 97 94 87 91 91 94 89 76 76 94 86 93 94 96 96 70 96 98 97 95 98 96 96 96 97 97 98 98 98 99 99 100 100 100 100 99 98 97 97
99 99 99 99 98 97 97 96 96 97 98 100 96 96 96 94 85 81 97 98 90 92 96 98 98 98 97 96 97 98 83 97 87 74 74 78 81 91 98 98 98 98 99 100 100 100 100 100 99 98 97 97 97 97

GFSWCAN_sfc_rhum_069.txt.gz
RH
95 95 94 93 91 90 88 86 82 79 74 72 71 71 70 71 69 85 90 79 86 96 85 66 58 74 74 78 90 92 95 94 93 96 97 93 76 65 71 67 80 80 73 95 91 94 92 63 61 74 71 69 66 68
91 92 93 94 94 93 92 91 87 85 82 78 74 72 71 71 72 76 94 72 72 94 90 70 62 59 65 70 86 91 96 96 92 88 88 80 77 80 76 84 69 77 69 70 73 72 55 58 66 67 66 64 65 70
88 89 89 92 92 93 94 93 90 88 85 82 76 73 73 70 70 75 96 88 90 99 85 87 84 60 58 56 56 90 81 70 95 91 99 91 79 79 88 78 60 57 58 65 62 56 53 53 61 70 70 70 67 64
88 87 87 88 90 89 88 89 89 90 89 83 77 76 74 70 73 73 96 90 96 98 99 78 49 56 50 54 60 60 56 54 71 97 98 94 85 70 80 69 67 66 64 65 68 61 58 55 57 66 70 68 67 67
81 81 81 81 83 86 88 89 90 84 88 88 83 81 78 73 70 83 95 93 87 97 97 84 69 59 57 55 56 64 65 72 89 94 99 95 82 70 78 82 88 74 74 75 78 62 62 79 84 75 76 76 73 78
73 73 73 74 74 76 77 83 88 89 84 89 89 88 83 77 70 90 95 93 91 94 100 97 82 75 57 61 62 60 71 79 93 91 94 87 78 73 85 92 67 61 64 62 66 79 77 77 76 74 76 75 75 79
69 68 66 66 67 70 74 76 80 83 88 87 90 89 86 77 90 92 85 88 84 93 99 96 97 77 84 71 76 81 79 93 90 92 94 92 90 86 91 88 57 57 58 71 74 73 81 78 79 74 72 73 71 79
66 64 65 66 66 67 70 73 74 77 83 88 93 88 83 75 75 93 78 80 90 96 95 99 95 93 85 90 92 86 95 94 91 91 91 91 87 92 98 83 62 58 64 76 77 78 76 76 78 81 82 79 84 82
68 68 68 68 67 67 69 70 73 76 82 86 92 86 89 89 99 94 77 81 93 92 96 97 100 96 90 95 96 96 90 96 92 96 91 94 97 97 88 77 70 76 75 75 82 81 79 81 82 85 85 85 86 86
73 72 71 70 70 71 74 74 75 78 82 88 91 96 100 95 84 82 93 99 100 100 99 98 91 98 96 96 100 95 95 100 99 90 95 98 98 80 74 72 79 82 79 83 86 88 88 90 88 88 88 87 88 90
73 73 72 73 73 76 79 79 78 80 83 96 99 99 99 84 96 99 100 100 98 98 96 91 79 94 91 99 99 97 100 99 100 98 92 99 97 91 86 90 88 85 81 80 78 77 80 79 85 92 93 92 92 83
73 73 73 75 76 78 80 82 80 93 97 93 94 95 98 99 99 99 97 96 97 91 92 95 94 97 97 96 99 99 100 100 99 98 100 98 88 92 90 89 82 78 83 89 86 91 90 85 83 84 87 87 86 83
74 74 75 76 78 80 81 85 82 85 87 95 98 100 100 100 99 98 96 98 98 99 99 100 100 99 97 100 98 99 98 99 97 98 91 87 94 90 87 91 98 96 98 98 98 97 92 89 84 84 84 84 85 85
75 77 79 80 82 83 84 83 84 84 97 99 99 99 99 97 92 93 94 99 99 100 99 98 100 99 97 100 98 99 99 98 99 99 94 89 93 88 83 90 97 99 98 99 99 99 98 96 88 84 72 68 66 68
82 84 86 86 86 88 88 86 81 94 99 98 99 96 98 92 98 100 100 100 98 98 100 99 100 98 100 100 99 99 99 98 93 90 96 99 90 88 91 96 91 94 96 77 70 69 71 72 76 77 77 80 77 72
86 89 91 86 88 87 89 88 93 97 100 100 100 99 96 98 98 100 100 100 100 98 100 100 100 100 100 100 98 98 98 93 89 99 99 96 90 89 91 96 76 70 63 64 66 65 70 76 82 82 77 70 79 90
92 93 85 86 90 91 84 98 99 99 97 99 98 94 98 99 98 99 99 100 98 100 100 100 99 98 99 99 98 99 98 96 100 99 99 91 86 86 89 85 79 68 62 67 68 70 75 74 77 70 64 70 79 92
99 96 87 90 90 92 99 100 99 98 98 98 98 97 91 90 97 94 97 100 100 100 100 99 100 99 98 98 96 96 100 99 99 98 97 91 85 84 80 82 78 66 65 68 78 90 91 85 72 74 81 90 89 91
94 92 88 86 84 98 99 99 100 96 94 98 97 98 95 92 88 88 95 98 99 100 100 100 99 99 99 99 100 100 99 100 95 92 91 88 86 81 79 92 90 88 90 91 76 66 67 69 67 75 73 82 89 90
88 88 84 79 78 96 97 99 96 95 97 94 97 96 96 97 90 95 97 94 92 99 99 99 96 94 97 97 94 94 96 93 93 91 90 89 90 96 92 93 86 82 77 86 93 74 92 75 70 70 73 82 92 87
94 91 80 84 93 92 96 95 96 99 98 96 98 96 95 97 91 91 93 96 99 98 99 97 94 90 96 94 90 90 90 89 90 91 90 95 90 96 98 97 95 84 74 69 67 67 66 70 73 86 94 75 82 83
98 83 92 81 94 93 95 95 98 96 96 98 97 98 98 98 97 96 98 98 93 96 97 86 92 96 93 80 88 94 88 87 89 92 79 82 91 97 98 97 95 92 90 85 84 77 78 88 92 92 92 95 87 95
87 89 92 90 85 86 97 93 96 96 94 95 98 98 100 100 98 99 100 98 95 97 98 96 96 95 94 92 91 87 88 96 94 92 93 93 92 96 97 96 95 93 93 90 94 92 92 79 80 89 96 94 96 96
77 95 95 92 85 94 84 97 90 97 97 98 100 100 99 99 98 99 99 97 95 98 96 92 96 94 91 92 97 95 93 96 96 98 98 97 94 90 92 93 93 94 92 96 95 94 95 92 81 93 96 96 96 96
96 97 94 98 95 88 94 96 98 96 94 100 99 98 96 98 99 100 97 94 98 97 97 97 92 91 92 94 94 95 94 97 97 98 96 95 96 94 93 92 81 80 95 93 93 92 94 96 94 94 94 96 95 96
96 97 92 95 97 88 93 94 97 93 97 98 97 98 100 98 98 87 91 93 93 93 94 90 90 96 94 88 88 92 90 96 97 98 95 95 91 89 92 90 90 77 85 80 89 86 87 91 92 92 93 90 80 89
98 98 89 73 84 81 87 82 78 92 96 90 98 100 96 91 91 79 92 95 88 93 94 95 93 91 84 88 93 93 96 94 92 93 96 95 96 93 88 87 85 77 88 87 86 84 83 86 90 91 91 96 96 94
90 92 94 96 95 96 91 95 92 88 92 91 87 97 90 83 78 89 90 92 96 96 94 96 94 92 90 90 95 97 97 97 96 95 92 88 86 87 87 86 87 73 91 89 87 90 88 86 88 91 94 94 96 98
97 91 91 98 97 97 94 89 90 94 82 94 89 91 91 90 93 91 84 91 97 93 85 77 75 94 92 97 98 98 98 96 91 86 82 79 91 83 94 90 89 94 95 92 67 86 92 95 95 95 94 96 96 98
100 98 95 99 95 90 94 96 95 97 89 91 92 93 92 91 87 95 95 95 87 77 69 75 85 91 78 92 89 92 95 93 90 83 79 75 82 94 98 97 96 96 97 95 96 97 82 91 95 97 97 98 98 99
99 98 97 99 97 97 98 97 98 91 94 98 99 94 89 93 90 91 86 74 73 77 94 80 79 89 89 92 96 96 88 94 92 89 88 97 96 95 96 97 97 97 97 97 97 97 98 98 100 100 100 100 100 98
97 100 99 92 90 97 98 99 100 100 100 100 96 100 98 97 94 87 95 95 94 88 77 78 89 74 93 94 97 96 72 95 97 97 96 98 98 96 97 98 98 97 97 97 98 99 100 100 100 100 100 100 99 98
100 100 99 100 97 96 97 94 95 96 99 100 98 99 100 95 84 84 96 99 95 96 96 97 99 98 98 97 98 99 85 98 98 78 75 79 86 98 100 98 97 97 97 99 100 100 100 100 100 100 100 99 98 98

GFSWCAN_sfc_rhum_072.txt.gz
RH
93 92 91 92 92 91 90 88 87 82 79 76 74 74 73 71 69 88 90 87 90 98 92 75 66 73 77 79 91 76 59 94 97 99 96 95 96 75 77 76 85 91 90 94 92 97 93 64 65 77 71 77 78 74
94 94 94 94 94 90 90 90 90 87 85 84 80 76 75 72 72 76 88 79 73 93 86 76 75 71 64 65 84 89 89 86 98 99 97 89 85 86 80 88 79 74 68 79 80 78 55 59 61 58 71 70 66 72
94 94 93 91 90 91 92 91 92 90 89 88 83 78 75 74 71 76 92 90 91 98 93 90 90 75 71 71 62 87 82 66 80 99 99 97 83 80 90 86 77 67 64 68 66 56 55 55 64 69 71 71 68 68
91 91 90 90 88 87 86 86 84 88 89 88 85 82 78 78 72 75 96 94 95 98 99 90 58 60 53 65 73 68 65 60 78 91 96 96 98 72 80 66 70 68 65 68 72 63 60 54 60 71 75 71 68 67
92 91 91 90 90 88 87 86 87 88 84 82 83 87 84 84 75 83 94 97 92 98 98 88 75 66 65 63 64 75 74 75 91 95 94 90 97 84 80 83 88 75 75 73 73 59 60 60 78 70 77 76 76 74
87 84 82 80 78 78 79 79 81 82 87 90 88 89 88 89 81 86 93 90 96 93 100 97 82 85 68 63 72 71 78 83 91 95 93 91 79 94 90 88 65 68 69 60 63 79 75 80 79 79 79 80 78 78
77 75 74 74 74 74 75 74 75 76 77 80 87 89 86 85 92 87 87 84 86 89 99 96 95 78 81 79 78 82 74 86 85 91 96 92 82 93 98 91 58 62 60 63 70 77 84 82 74 69 70 74 74 80
72 70 70 69 68 68 69 69 69 70 74 77 84 89 92 85 88 95 84 82 83 94 96 96 94 89 79 94 87 92 97 99 98 92 91 90 83 90 97 88 65 61 68 82 83 81 76 84 84 81 82 81 84 83
72 71 70 69 68 67 66 67 69 72 79 86 92 90 93 94 98 92 78 82 91 91 95 93 99 95 86 98 97 92 96 98 91 96 85 86 89 99 93 81 77 71 72 77 86 84 84 84 84 84 84 85 86 86
75 74 72 71 69 69 71 72 72 78 84 79 90 97 100 94 81 82 92 100 99 100 99 98 91 97 94 90 99 93 96 97 97 83 91 97 96 84 78 78 78 77 82 85 88 90 88 88 87 87 88 88 89 90
76 75 73 72 72 73 76 78 77 82 79 95 99 100 98 86 95 99 98 96 95 99 96 92 91 86 80 97 100 99 99 99 99 96 99 99 97 93 90 90 88 88 86 86 83 83 80 75 80 85 89 91 93 91
75 74 73 73 75 76 76 79 82 90 97 93 96 94 97 99 100 99 97 96 98 93 88 95 96 97 97 97 99 99 100 100 99 96 96 96 88 94 92 91 89 80 84 87 85 87 86 84 85 85 87 88 86 84
74 73 72 74 75 75 77 81 79 84 87 94 98 100 99 100 99 100 98 98 100 95 98 100 100 98 98 98 99 100 99 99 96 99 95 90 94 93 93 98 98 94 96 98 97 93 87 87 84 84 84 84 81 85
73 74 76 78 78 79 80 87 84 85 94 98 96 99 98 99 96 94 95 99 98 100 98 98 99 100 98 100 99 99 99 99 98 99 97 88 92 93 94 98 98 99 99 99 99 99 99 99 99 99 96 80 70 66
74 76 78 82 83 84 83 88 82 95 99 99 98 97 98 90 98 98 100 100 98 98 99 98 100 99 100 100 100 99 98 98 97 97 96 99 92 91 95 98 98 98 99 99 89 85 87 86 86 82 80 79 80 79
78 81 86 84 84 84 85 89 94 98 100 99 98 98 95 98 98 98 100 98 98 98 99 100 100 99 99 100 98 98 98 98 98 99 99 97 91 91 94 93 87 93 90 72 70 69 72 77 80 82 65 64 76 91
91 98 84 86 88 87 86 97 99 100 99 99 98 96 99 99 98 99 92 98 98 100 99 100 99 98 99 98 99 99 99 99 99 97 100 93 86 86 92 91 79 67 64 68 69 70 71 71 79 62 55 67 82 90
99 96 85 87 90 91 98 100 99 98 98 99 99 96 97 94 98 96 93 99 99 99 100 99 99 100 98 99 98 99 99 100 99 98 98 94 87 88 90 86 79 66 65 67 76 89 90 85 70 66 80 89 88 91
94 95 90 88 85 97 98 99 100 98 95 97 98 98 97 95 95 95 96 95 99 99 99 99 99 99 98 99 99 100 99 99 97 93 92 89 86 84 84 93 92 88 89 90 72 65 67 67 62 71 69 78 83 89
90 90 85 79 80 94 97 98 98 96 96 94 98 98 98 97 96 97 94 93 90 98 99 99 97 94 97 97 97 97 97 89 91 91 89 90 91 96 90 92 85 80 78 87 94 78 92 71 72 73 74 76 92 88
92 95 91 95 99 97 97 97 97 99 100 98 99 98 98 98 97 97 98 97 99 96 98 98 94 92 95 92 91 91 90 92 91 89 90 95 90 97 97 97 97 85 79 78 75 70 68 71 68 87 94 72 77 86
98 93 99 99 98 98 96 96 97 97 98 99 97 98 98 98 98 98 98 98 89 94 97 93 96 97 96 82 85 94 89 87 89 92 85 88 93 97 98 98 98 94 93 90 86 79 75 81 93 94 94 94 87 96
97 96 98 98 96 95 97 95 97 97 97 98 97 96 98 100 98 97 99 98 95 95 97 97 96 96 94 93 89 83 85 95 94 92 90 93 94 96 98 97 96 95 95 93 92 87 87 73 84 91 95 94 97 97
87 97 97 96 92 98 91 96 86 93 96 98 100 100 100 99 98 100 99 97 94 98 98 93 98 94 92 90 93 89 88 94 95 98 98 99 99 95 92 94 93 95 94 97 96 94 94 92 82 94 96 96 96 97
95 97 96 99 96 90 96 94 94 90 92 99 99 96 95 98 99 100 99 93 98 98 97 98 98 96 91 92 87 85 91 96 97 97 95 97 97 96 94 93 88 92 97 98 95 94 94 96 95 94 94 94 92 94
95 95 92 92 95 88 90 91 94 92 94 98 97 97 100 99 100 90 91 93 95 95 95 93 89 94 94 90 89 91 88 93 93 97 93 97 96 95 96 95 94 88 86 86 94 91 90 92 92 91 91 88 78 85
99 99 89 72 81 80 84 80 77 90 95 89 97 100 98 96 92 80 92 96 92 93 94 92 88 86 78 81 92 94 97 96 91 90 96 96 94 94 92 92 91 88 91 90 90 87 84 84 86 87 88 96 94 93
90 90 94 95 93 95 89 92 91 88 88 85 86 93 90 82 77 87 90 92 94 97 96 95 93 90 88 85 93 95 96 98 96 95 91 86 87 90 92 88 88 80 91 93 90 90 88 84 86 87 90 91 92 97
96 89 88 98 97 97 93 88 88 88 81 91 88 88 88 86 91 91 83 92 98 96 86 72 68 94 90 96 97 96 96 97 90 83 78 75 85 81 96 96 96 96 97 95 74 85 92 94 92 92 92 95 96 98
99 97 95 98 92 91 94 95 95 96 89 90 90 93 93 92 90 96 94 95 90 78 71 83 88 90 82 88 82 88 96 94 90 82 83 78 82 92 98 97 97 97 97 96 95 98 77 91 92 97 98 99 99 99
97 96 96 98 91 96 97 95 96 91 95 98 100 95 90 95 90 93 93 86 87 93 92 82 83 93 89 90 96 96 86 93 91 89 89 97 97 97 96 96 97 98 99 98 98 97 98 100 99 100 100 100 100 100
96 100 96 76 86 96 98 100 100 99 100 100 98 100 97 96 93 86 96 97 95 93 82 92 97 90 96 96 98 96 75 97 97 97 95 98 98 98 98 98 99 98 98 98 98 98 98 98 99 100 100 100 100 100
99 100 99 99 94 92 97 94 96 97 99 100 99 99 100 96 83 85 99 98 98 98 98 97 98 98 98 99 98 98 88 99 100 85 82 79 83 93 100 99 98 97 96 97 99 99 100 100 100 100 100 100 100 99

GFSWCAN_sfc_rhum_075.txt.gz
RH
93 91 90 90 90 89 88 88 87 84 80 78 77 76 74 73 74 89 92 89 90 89 84 79 75 74 78 81 88 78 71 84 92 99 99 98 94 80 85 83 90 92 92 97 94 95 92 61 74 75 68 79 79 76
93 91 90 91 91 91 90 90 90 88 86 83 82 78 78 75 74 81 96 85 76 94 86 69 65 60 60 68 83 79 85 86 95 95 94 97 99 88 84 90 83 84 79 91 84 80 58 62 68 67 71 74 75 74
94 92 92 92 93 93 93 91 88 88 85 84 85 81 78 77 74 81 96 90 93 99 95 88 92 75 76 81 78 91 88 75 87 98 98 95 99 89 88 86 83 78 68 72 71 60 61 57 63 68 73 78 70 71
94 93 93 94 93 91 86 86 86 88 88 85 83 84 83 79 79 76 97 94 93 97 99 90 66 73 58 77 85 77 71 73 90 94 99 99 94 91 95 74 73 73 68 71 75 67 67 59 56 62 76 78 77 70
95 95 94 93 90 88 86 86 83 83 85 86 87 87 88 86 84 87 94 92 88 92 96 93 77 74 69 67 75 84 82 83 95 95 97 95 90 94 95 94 88 75 73 73 76 60 57 56 71 65 77 77 75 74
94 94 93 92 91 90 89 88 86 86 86 85 87 88 88 85 86 86 97 87 96 93 100 98 81 84 75 73 74 78 81 88 94 94 94 88 79 92 93 99 68 71 70 58 58 65 69 82 84 82 78 79 76 77
93 92 91 88 86 84 81 80 80 77 76 76 80 86 88 88 92 95 94 83 90 90 99 95 94 75 73 85 80 86 85 93 93 90 94 86 76 98 98 98 69 59 65 69 72 78 85 85 81 81 73 72 73 78
85 83 82 81 78 76 76 76 74 73 73 71 76 83 88 84 88 96 91 82 84 97 93 94 91 88 74 94 88 95 97 96 97 94 92 87 75 85 95 70 52 68 62 80 78 82 76 84 84 84 85 82 83 82
79 79 77 74 71 71 72 72 73 76 82 86 89 86 92 95 99 93 77 81 91 90 97 91 98 94 84 91 98 98 97 98 91 98 90 80 85 97 83 71 73 77 73 74 88 88 87 85 86 86 84 86 86 85
78 77 76 73 72 72 73 74 76 82 85 80 88 95 99 96 77 81 95 99 100 99 97 92 86 97 86 87 96 97 96 96 98 87 90 88 91 68 61 87 82 86 81 88 88 92 89 90 88 88 86 86 86 88
80 79 76 74 74 76 78 76 81 80 79 95 96 96 99 84 97 98 97 96 97 99 88 90 93 95 85 97 97 99 99 99 99 97 92 98 96 94 90 90 88 89 88 88 87 88 84 84 87 90 91 90 90 94
78 77 77 77 77 79 81 80 81 91 95 92 92 93 94 99 99 96 97 95 98 94 88 94 97 98 97 99 99 99 99 100 99 90 98 98 96 94 91 90 92 92 92 93 89 88 85 83 83 85 88 89 87 86
79 79 77 78 79 79 81 82 78 85 87 96 96 100 98 98 97 93 94 95 97 97 96 100 98 99 99 99 99 100 99 99 98 99 98 98 92 93 94 98 98 94 95 97 94 88 86 88 85 84 85 76 73 75
78 77 77 78 78 79 82 85 83 86 93 98 96 98 96 92 86 94 93 94 92 100 99 93 97 96 90 100 99 100 99 99 98 98 96 98 95 92 95 96 98 99 99 99 99 99 99 100 99 97 91 83 70 70
77 76 78 81 82 84 86 84 80 94 96 99 95 98 99 91 97 98 98 95 93 88 92 92 99 97 97 99 99 99 98 98 96 98 98 98 94 92 97 99 100 99 99 99 93 95 93 90 88 88 82 81 87 86
75 77 86 83 84 84 88 87 93 98 100 98 98 98 89 100 97 97 95 97 96 93 96 97 99 99 96 99 99 98 98 97 99 99 96 99 91 91 92 97 98 97 93 89 82 77 78 81 85 87 61 63 80 89
82 97 87 85 87 87 86 97 100 100 99 100 98 90 95 98 97 97 93 91 95 96 96 98 97 98 98 98 99 99 99 98 100 99 99 96 89 85 93 90 96 84 69 68 68 68 69 72 80 65 53 66 83 84
98 93 86 87 88 91 98 100 100 99 98 99 99 97 89 95 97 86 89 95 98 95 99 96 100 96 99 98 97 98 96 99 99 99 92 94 90 88 91 91 81 69 66 68 75 90 91 87 70 60 79 89 86 88
92 95 87 89 85 96 99 99 100 98 96 97 98 99 97 94 96 95 91 94 98 98 99 96 97 98 95 97 98 100 99 100 99 95 88 89 88 85 88 94 94 88 89 89 77 65 68 66 58 66 66 74 75 83
86 88 93 84 78 97 98 98 99 96 99 95 99 100 98 98 96 97 97 95 95 98 99 98 95 94 95 96 98 97 98 94 93 86 83 85 91 94 92 93 89 84 80 88 93 78 90 70 69 72 75 75 85 84
88 97 94 94 99 98 96 99 98 97 99 98 99 97 97 99 99 97 97 96 99 94 97 92 96 92 96 97 96 92 91 92 91 90 87 93 86 97 98 97 97 85 81 80 77 74 70 74 66 82 93 78 80 82
98 90 98 98 98 98 96 98 97 99 98 98 98 98 99 99 99 98 98 99 96 94 94 96 97 97 97 88 87 93 87 87 87 91 83 88 97 97 97 97 99 95 95 92 90 86 82 81 92 92 91 91 86 96
93 95 98 98 96 95 97 98 97 98 96 98 98 98 98 98 98 97 98 97 95 93 96 98 97 96 95 94 91 84 83 93 89 82 83 89 93 96 97 97 96 97 96 94 95 93 90 77 79 89 95 93 97 97
85 97 97 96 96 96 95 98 92 94 96 97 98 99 100 98 98 99 99 96 94 98 99 96 98 96 93 88 92 93 92 94 93 96 97 98 97 94 94 95 94 95 94 97 97 97 96 91 79 94 95 94 96 96
97 97 97 96 97 94 96 98 96 95 96 95 96 96 96 98 97 100 99 92 97 99 98 98 99 97 90 93 93 90 93 94 97 96 91 95 98 97 95 91 86 90 97 99 98 96 95 97 96 95 94 94 92 94
95 96 92 94 96 88 92 93 94 92 89 94 94 94 98 97 96 85 89 92 95 96 95 94 91 93 94 91 89 88 83 96 96 98 90 92 91 94 96 96 95 91 94 92 96 95 94 94 94 93 92 88 77 84
98 99 92 74 81 80 87 80 76 85 91 88 94 98 95 90 89 78 88 95 94 93 96 96 87 84 80 86 92 94 97 96 91 89 94 96 95 94 93 93 90 88 94 94 94 91 89 90 90 89 87 94 93 91
90 90 93 94 92 94 93 88 90 88 86 84 85 92 85 78 74 86 86 89 90 96 97 97 94 90 89 88 93 94 94 98 98 96 93 87 88 90 91 88 88 82 89 94 92 94 92 90 88 88 89 88 90 97
95 86 86 96 95 94 88 84 84 85 79 90 88 88 85 81 89 91 89 94 100 96 86 82 77 96 92 95 95 94 96 97 89 79 76 74 84 79 97 98 98 98 97 97 83 84 93 94 92 92 91 93 95 98
99 96 93 98 91 91 94 94 95 96 88 89 87 92 91 91 91 97 95 96 90 85 86 88 92 90 83 90 81 85 95 92 88 79 78 75 79 92 98 96 95 96 98 98 97 96 76 90 85 100 100 100 100 100
96 97 94 97 92 97 98 95 95 88 93 98 98 96 92 95 88 96 97 98 97 98 95 94 94 98 95 93 98 97 88 95 95 93 92 97 96 97 96 97 97 98 99 98 97 97 100 100 100 100 100 100 100 100
95 98 93 79 89 96 97 99 100 99 100 100 98 100 97 96 91 85 99 99 96 93 90 100 98 95 98 98 98 97 92 92 97 97 96 97 96 96 98 99 99 99 99 98 98 98 98 98 99 99 99 100 100 100
98 98 99 96 91 89 96 92 96 97 99 100 99 100 100 96 83 86 99 99 97 97 98 98 98 98 97 98 98 97 93 98 100 93 83 80 83 93 100 99 98 98 96 97 98 98 100 100 100 100 100 100 100 100

GFSWCAN_sfc_rhum_078.txt.gz
RH
95 94 92 89 89 88 88 87 85 84 80 78 77 76 74 75 79 84 93 90 87 97 92 80 76 84 83 84 81 80 83 85 94 97 99 94 97 88 86 84 92 88 97 97 97 97 92 63 77 76 66 79 81 80
95 95 93 90 89 89 89 89 88 87 85 82 81 79 77 76 79 83 96 88 83 93 91 76 73 66 68 70 74 82 89 89 90 95 95 96 97 98 85 91 86 87 81 93 85 78 58 66 72 72 73 78 78 80
95 95 93 90 89 89 90 90 90 89 86 83 84 82 80 78 77 84 96 95 94 99 93 96 89 79 80 76 68 97 81 77 86 93 99 95 97 97 97 86 84 82 75 76 76 61 67 62 62 68 75 78 78 68
95 94 93 91 91 91 91 91 91 89 86 82 81 83 83 81 79 83 98 94 94 97 99 90 70 75 67 85 89 79 74 86 91 96 97 97 97 95 96 96 97 78 76 75 77 67 68 59 61 58 71 77 78 78
95 94 93 93 93 93 93 92 89 85 85 83 81 84 88 87 85 91 96 92 87 94 98 96 84 78 73 78 93 93 92 90 97 98 99 95 92 95 94 95 95 74 73 74 73 59 57 55 66 62 74 78 76 74
96 95 94 93 93 92 91 85 84 87 88 89 87 87 87 87 88 90 96 88 93 92 100 97 83 85 76 78 82 90 93 95 96 98 97 91 76 98 100 98 86 68 70 70 63 66 64 82 83 81 78 80 79 78
96 95 94 94 92 90 90 90 90 87 84 82 82 84 86 88 93 94 91 85 91 92 98 96 94 77 77 85 87 91 91 98 97 97 96 93 89 97 97 93 71 64 58 69 78 83 83 84 81 84 83 75 74 82
96 95 94 92 91 89 88 85 80 76 75 74 78 81 90 85 84 94 96 86 87 95 87 94 93 85 73 94 94 92 97 97 99 95 97 97 83 90 95 76 56 44 53 73 73 84 80 86 84 86 86 82 83 85
94 92 90 87 84 83 81 76 76 75 77 77 85 83 89 94 98 96 86 86 93 92 98 94 100 95 83 94 96 98 99 98 92 98 94 91 89 96 75 61 55 61 81 73 86 87 88 87 88 88 86 86 86 87
86 83 81 80 80 79 76 76 80 88 90 82 88 93 99 97 85 85 97 99 99 100 100 88 85 94 90 88 97 96 98 98 99 89 92 96 90 60 51 60 77 84 88 85 87 90 89 90 89 90 88 88 88 89
79 79 79 80 80 80 81 78 85 84 79 93 92 96 98 85 97 92 96 97 98 96 94 85 94 96 91 96 97 98 98 98 99 97 95 97 97 96 92 84 87 89 90 90 88 88 83 82 87 90 92 92 93 93
80 81 82 83 84 82 80 85 83 90 93 90 94 94 96 98 98 94 96 96 98 94 90 98 96 95 91 99 99 97 99 99 98 96 97 98 100 100 96 94 96 93 93 93 90 91 90 89 88 90 92 89 88 87
82 82 83 84 83 82 83 82 79 84 86 93 94 98 96 98 99 95 94 90 94 97 96 99 98 97 99 99 99 100 100 99 99 98 98 99 100 99 99 99 97 94 94 95 93 88 86 87 84 84 82 79 72 71
82 81 82 83 86 86 85 80 82 84 91 95 95 99 97 98 86 95 93 93 91 91 95 88 95 98 92 100 98 100 99 98 98 98 96 99 98 96 95 97 97 99 99 99 99 99 99 98 98 89 82 76 70 76
79 83 85 86 85 86 86 82 81 94 94 98 93 97 98 92 97 96 96 96 90 82 89 95 99 97 100 99 99 99 98 97 97 98 99 96 98 95 97 99 100 99 99 99 97 99 99 99 97 89 74 77 87 88
80 82 90 85 84 88 89 84 92 98 100 97 98 99 86 99 100 98 98 93 95 90 98 99 99 99 98 99 98 97 98 97 99 100 99 98 96 90 97 100 99 98 97 92 80 76 76 80 83 84 60 66 85 88
79 96 87 86 87 89 82 98 99 100 97 100 99 92 95 95 98 98 95 96 96 94 95 98 98 98 99 98 99 97 97 96 99 99 99 96 97 98 99 99 99 97 78 69 66 65 66 74 80 74 59 62 83 84
96 94 86 85 86 91 98 100 100 100 98 99 99 98 86 84 98 94 92 96 95 97 97 99 100 99 94 99 96 96 98 99 99 99 96 94 92 86 88 98 97 85 68 67 72 88 91 88 72 60 76 90 86 86
95 90 88 85 87 96 100 99 100 98 96 98 97 99 97 96 96 95 88 96 95 98 99 98 98 95 92 97 96 99 99 99 99 98 92 86 90 85 86 95 93 90 89 91 79 71 65 67 60 60 65 70 70 77
87 90 88 85 80 97 98 98 98 96 99 95 99 99 98 98 98 97 94 96 92 98 100 99 90 94 95 94 98 98 97 92 94 89 93 88 87 95 90 93 92 90 81 87 92 75 87 67 66 66 71 70 74 75
92 97 92 94 99 98 95 98 99 97 98 98 99 98 98 99 100 98 97 96 98 97 98 95 93 92 96 98 96 96 92 92 89 83 82 94 89 96 96 93 96 88 83 79 80 77 73 78 69 80 90 76 80 85
99 91 98 98 98 98 96 97 96 98 97 98 99 99 100 100 100 100 98 99 97 95 96 96 97 97 98 94 93 94 87 84 87 90 82 88 96 98 97 98 98 97 96 93 92 87 86 87 94 91 87 86 85 95
93 95 99 99 97 96 97 97 97 98 97 99 98 96 98 97 99 97 99 97 95 95 96 97 96 96 95 94 92 86 86 95 90 81 77 80 85 94 97 96 96 97 96 94 95 93 94 86 89 90 94 92 96 97
89 98 98 97 95 96 95 97 94 97 98 98 99 100 100 99 98 99 99 96 94 98 99 96 99 97 96 90 94 91 91 93 93 97 96 98 98 93 90 94 94 95 94 97 97 96 97 96 86 94 95 93 96 95
98 97 97 97 97 95 97 98 100 98 99 99 98 98 97 98 100 100 100 93 97 98 98 98 98 98 94 94 95 93 93 94 95 93 95 96 97 98 96 93 87 86 95 98 97 98 97 97 97 96 96 95 92 93
96 96 94 94 96 89 96 98 99 97 97 99 97 99 98 97 98 88 89 93 94 95 96 95 92 95 93 91 90 89 85 96 97 96 91 95 95 95 95 95 93 86 94 93 96 96 96 97 96 96 95 91 82 87
98 98 93 77 87 87 94 88 86 96 97 92 95 97 97 95 90 79 89 93 91 92 94 95 89 84 77 86 93 95 97 97 90 86 93 97 95 94 92 90 87 88 96 95 96 94 93 92 92 93 92 96 93 91
89 90 96 96 97 98 96 98 97 95 89 85 84 94 88 82 72 82 82 91 95 97 96 96 96 94 92 92 94 94 94 98 98 95 91 86 86 90 93 90 89 82 90 96 93 94 93 93 92 92 93 90 92 96
96 90 92 100 98 98 96 89 86 86 76 85 88 87 84 82 89 91 89 95 98 94 85 84 87 97 94 96 97 95 97 97 84 75 71 66 88 77 98 98 98 98 98 97 84 84 96 96 94 94 92 94 95 98
99 97 94 97 94 93 94 90 96 95 87 88 86 94 93 92 93 97 96 96 89 88 92 94 97 94 92 94 91 88 96 94 91 85 83 81 86 94 98 97 96 96 98 98 98 97 84 92 88 99 98 99 100 100
95 94 93 96 92 96 96 92 93 87 93 98 98 96 92 92 86 97 98 99 100 100 96 97 96 100 98 98 99 100 92 97 99 98 99 96 94 97 96 96 96 98 98 98 98 97 100 100 100 100 100 100 100 100
95 97 93 86 91 97 97 97 98 96 96 97 96 99 95 94 88 92 98 99 96 93 85 100 96 92 97 99 98 98 95 94 95 96 99 98 96 96 97 99 100 99 99 99 99 98 99 100 100 100 100 100 100 100
97 97 97 92 92 89 95 92 93 94 96 98 98 100 100 98 82 89 98 100 96 94 96 98 98 97 96 98 98 98 96 99 100 96 88 85 78 84 96 100 99 99 98 98 98 98 99 100 100 100 100 100 100 100

GFSWCAN_sfc_rhum_081.txt.gz
RH
96 96 94 93 92 88 86 85 83 82 80 78 76 76 76 75 73 84 97 92 86 94 91 81 77 85 86 89 90 84 83 86 92 92 97 96 95 95 93 86 91 85 95 97 97 97 90 61 72 69 63 75 78 78
96 95 94 93 91 88 86 86 85 84 84 81 79 78 76 79 75 81 96 90 86 94 82 79 76 68 68 72 78 92 85 91 92 97 97 98 93 96 97 96 87 90 82 91 83 76 60 68 63 66 71 72 76 78
96 95 95 93 91 89 89 89 88 87 86 85 82 80 78 78 78 82 96 96 94 98 92 92 80 77 85 81 72 92 93 76 90 89 98 95 100 99 94 96 96 93 73 85 79 63 68 61 61 66 66 72 74 67
95 94 95 94 91 90 90 90 89 88 87 85 83 83 82 80 79 83 96 96 95 98 99 87 71 81 76 84 83 80 80 92 88 94 96 98 93 94 95 98 91 81 77 79 78 64 66 61 61 56 60 72 76 75
95 94 95 93 90 90 91 90 90 89 82 79 84 87 87 86 82 92 97 94 88 94 94 96 85 80 76 86 92 92 90 88 97 96 97 95 93 92 93 93 92 85 78 76 76 57 59 54 58 61 62 75 75 71
94 94 95 94 91 91 91 91 91 89 82 81 85 87 88 89 90 95 98 93 94 94 98 96 85 84 75 82 88 98 96 96 99 95 95 94 80 86 96 93 78 81 71 60 66 66 64 67 82 80 72 77 79 76
94 95 95 94 93 93 92 91 89 86 86 88 88 87 85 90 93 92 88 86 92 94 98 98 94 75 77 82 91 89 93 99 98 97 98 94 89 84 99 95 67 66 60 63 67 79 80 81 80 85 82 81 76 79
94 94 95 94 94 94 92 92 91 90 89 86 85 90 89 82 83 94 95 85 87 92 85 96 94 83 74 91 95 92 96 98 99 97 97 98 87 94 92 74 61 50 53 58 65 75 81 88 85 88 87 83 85 85
94 95 95 95 94 92 91 89 85 82 81 88 89 85 90 94 98 99 86 85 95 90 98 92 99 95 83 90 94 99 99 99 89 97 97 94 88 95 74 69 63 55 64 81 86 83 82 87 86 88 85 85 88 89
95 95 94 92 91 88 85 81 78 80 91 84 88 92 99 99 86 92 95 98 100 100 96 91 90 95 92 94 97 93 97 99 99 92 97 97 89 66 63 62 68 71 85 88 92 89 88 89 89 88 88 88 87 90
94 93 91 87 83 80 78 83 86 88 79 93 96 98 99 87 92 91 96 92 97 91 89 79 81 96 88 95 96 93 98 98 99 95 98 98 96 99 97 94 90 87 86 89 89 86 82 82 88 91 93 93 94 93
91 88 83 80 80 83 88 87 80 90 94 90 92 93 94 95 96 90 98 98 98 92 92 98 97 93 93 96 99 93 99 99 98 96 99 99 100 100 99 98 98 95 94 90 88 92 91 89 88 91 95 94 93 89
82 80 81 82 83 86 86 79 77 83 80 91 93 98 94 98 98 94 96 92 94 96 96 99 99 98 99 100 98 99 98 97 97 98 97 99 99 98 99 99 98 94 92 92 90 88 91 86 83 81 81 77 70 66
81 83 84 83 85 87 81 82 80 85 90 94 94 100 94 100 94 92 91 92 89 89 97 95 95 94 94 100 99 98 95 100 98 97 97 98 96 98 98 99 99 99 98 98 98 98 98 95 91 87 84 78 75 80
85 87 86 86 87 84 85 82 82 91 92 97 90 94 99 90 97 97 96 97 94 90 91 89 99 97 99 99 99 97 98 97 96 97 99 96 98 98 98 100 100 99 99 99 99 99 99 99 99 89 63 76 85 86
85 82 89 88 88 87 84 82 94 97 99 96 98 98 90 98 100 100 98 97 94 87 95 97 99 99 98 99 99 97 97 97 98 97 99 96 97 99 99 100 100 99 99 90 73 75 78 79 81 74 56 62 80 80
81 97 91 92 91 86 80 98 99 100 97 99 99 94 95 97 98 99 95 94 94 87 92 94 100 92 95 98 98 97 98 96 99 99 99 96 95 96 99 100 100 98 96 95 62 62 65 75 77 70 57 58 82 84
89 92 87 89 86 90 98 100 100 99 99 99 99 98 89 86 97 96 97 97 96 95 97 95 97 96 88 94 97 97 100 99 99 99 98 96 92 91 88 100 99 99 95 69 75 90 90 86 67 60 73 90 84 86
88 86 88 86 88 96 100 100 100 98 97 97 96 97 94 94 91 95 88 94 96 98 99 99 94 92 84 95 96 98 99 99 99 98 97 88 87 88 86 96 95 93 85 89 77 73 70 65 62 58 62 66 66 70
80 81 89 83 81 96 97 98 96 95 98 96 97 99 98 98 95 95 94 96 98 98 99 97 84 88 93 93 98 96 99 98 96 91 81 90 88 94 93 94 88 91 88 86 88 77 86 66 66 66 68 67 68 66
92 91 86 90 98 94 94 99 98 98 99 98 98 99 100 97 99 98 98 96 99 98 98 93 89 91 95 98 95 95 96 89 88 91 80 88 83 96 96 95 96 90 89 86 83 79 74 81 72 77 87 71 75 76
99 90 99 97 98 97 96 97 97 97 95 99 98 98 100 100 100 100 99 99 97 94 94 94 97 96 96 93 92 95 94 89 88 90 82 87 94 93 96 97 97 95 95 93 94 89 87 88 94 93 87 83 82 94
91 93 99 99 96 93 97 97 96 97 98 99 98 95 97 97 99 96 99 97 95 94 96 98 97 96 96 96 92 87 88 94 93 87 77 78 82 92 96 95 95 96 93 90 96 93 94 88 94 93 94 91 89 96
86 97 97 97 95 97 95 97 93 96 98 99 99 99 100 98 98 98 98 96 94 97 99 96 99 98 97 93 97 95 93 92 90 96 96 97 97 91 89 93 93 95 92 94 97 97 97 96 90 96 96 95 95 94
97 97 97 98 98 94 96 98 99 98 100 100 100 100 98 99 100 100 100 92 97 98 97 98 98 99 97 95 90 89 94 93 94 92 93 96 97 97 94 94 83 82 94 98 97 96 96 97 96 96 96 95 93 92
94 96 95 95 96 90 96 100 98 97 98 100 98 99 100 98 100 88 91 93 94 96 97 96 94 98 98 95 89 86 80 94 96 95 91 94 94 93 92 92 86 77 96 96 96 96 96 97 97 96 95 93 86 90
98 99 92 78 88 88 95 89 86 96 100 97 98 100 97 93 90 80 90 95 91 94 96 97 92 92 92 92 91 92 97 98 91 87 93 97 95 93 90 87 83 84 96 96 96 96 94 93 94 94 93 96 94 92
86 91 96 97 97 98 96 99 99 98 95 90 86 93 90 83 73 83 86 93 96 97 96 96 97 97 96 92 94 95 94 98 97 94 90 88 87 90 95 90 90 82 91 97 95 96 95 94 93 93 94 92 92 94
96 92 93 100 100 99 97 94 94 95 82 90 89 89 84 84 91 92 94 96 98 94 90 90 90 98 96 96 98 98 99 98 82 78 79 80 91 86 97 98 99 99 98 97 85 85 96 97 97 95 94 95 96 98
96 97 97 99 97 96 94 96 96 96 90 89 86 94 93 93 96 98 96 95 92 91 94 96 98 98 96 97 94 88 97 98 96 91 92 88 90 96 96 96 96 97 98 98 97 97 86 91 92 98 98 98 98 99
98 96 93 97 94 98 99 94 95 87 93 96 95 96 93 94 90 98 97 95 96 98 94 93 94 100 96 98 99 99 90 98 99 99 100 96 95 94 93 94 96 97 99 99 98 98 100 100 100 100 100 100 100 100
97 96 94 90 94 97 95 97 98 97 97 97 96 99 94 94 86 92 98 98 94 90 86 100 95 91 96 99 99 98 94 95 96 95 99 98 96 95 94 94 98 100 100 100 100 99 100 100 100 100 100 100 100 100
99 98 98 96 93 92 96 92 93 92 94 96 96 99 99 97 82 90 97 99 95 94 95 96 96 96 97 98 99 99 94 99 100 94 90 88 83 81 88 97 96 98 100 100 100 99 100 100 100 100 100 100 100 100

GFSWCAN_sfc_rhum_084.txt.gz
RH
90 87 91 96 94 93 90 85 83 82 81 80 77 74 73 73 72 73 83 77 59 56 63 62 59 63 66 65 70 64 64 68 67 81 86 80 77 79 86 78 87 80 89 82 74 86 73 47 56 51 38 51 51 56
88 87 87 95 94 92 91 87 84 83 82 81 79 77 74 74 74 75 84 74 67 70 64 61 55 53 54 58 66 75 70 69 69 69 76 73 66 71 80 67 68 84 66 59 57 48 46 45 37 36 44 47 50 56
87 84 94 94 95 93 90 87 86 84 83 82 78 78 77 74 73 74 85 83 80 83 73 66 67 59 67 63 54 74 71 63 72 74 80 82 91 72 64 71 75 98 93 74 63 40 48 44 39 46 46 47 48 52
87 86 94 94 94 92 91 88 87 86 85 84 78 78 79 79 74 76 90 82 83 84 76 68 58 66 58 63 68 62 65 68 69 79 82 81 74 70 67 67 71 55 68 92 60 49 43 40 42 37 40 44 49 55
88 86 94 94 94 93 91 89 90 88 86 84 83 84 82 83 80 92 94 86 79 86 73 80 66 61 59 67 73 71 70 69 86 85 84 79 67 68 58 59 53 38 48 66 61 56 50 41 45 43 45 47 52 58
89 88 94 93 93 94 92 91 90 88 87 87 87 88 87 86 90 96 92 86 85 82 89 87 70 66 55 63 77 83 79 83 98 86 82 75 62 70 70 66 40 38 38 39 47 53 55 51 49 57 52 52 60 59
88 94 93 93 93 93 92 92 89 87 86 88 90 90 90 91 94 88 73 80 84 78 86 92 79 60 60 67 74 78 82 98 95 86 87 72 66 76 82 62 36 40 56 42 39 49 67 59 58 61 61 61 66 65
90 94 93 94 93 93 92 91 88 83 83 86 86 89 88 84 85 92 91 82 76 80 74 90 82 66 60 78 85 82 93 97 98 78 82 80 72 80 80 50 44 42 45 45 35 38 64 62 67 68 67 64 67 68
94 95 93 92 93 93 92 91 88 88 90 92 88 82 85 93 96 99 83 84 82 77 85 84 85 83 69 73 83 98 98 91 75 83 75 77 68 87 62 62 53 45 46 43 60 70 75 73 72 72 69 68 66 69
95 93 93 93 94 93 92 91 91 92 88 77 79 85 98 98 89 86 95 90 91 90 86 77 74 79 74 78 84 80 88 84 92 69 84 84 71 55 65 96 90 70 47 62 64 68 83 86 81 75 69 68 65 68
93 93 93 94 94 93 91 90 88 82 72 89 91 96 98 88 88 83 86 84 84 88 78 72 71 79 77 86 86 79 91 90 96 83 85 86 81 96 99 98 88 81 65 70 67 72 73 72 70 76 78 76 75 74
94 94 94 93 91 90 87 82 75 87 91 87 92 93 95 86 88 85 95 93 88 81 82 81 80 83 85 87 86 82 93 95 92 84 90 87 92 100 99 99 98 86 80 80 80 85 81 80 76 76 78 79 78 76
93 92 91 89 88 86 79 74 77 80 79 90 91 100 90 94 95 92 97 93 92 86 86 89 98 91 98 99 90 92 95 91 92 92 82 88 98 93 99 99 99 94 86 85 84 80 79 78 76 75 74 70 63 62
92 89 87 85 82 80 77 82 75 80 88 94 94 98 92 98 87 83 77 83 77 85 88 87 88 85 87 99 91 98 76 97 97 94 85 80 86 92 86 99 99 99 98 96 97 93 90 87 89 87 82 76 72 70
90 88 86 83 79 82 77 78 78 90 93 97 92 86 98 80 92 88 89 90 89 86 86 86 90 81 96 99 95 92 96 92 87 86 86 92 90 90 89 99 100 100 99 99 99 99 99 99 98 82 62 65 68 69
86 86 86 83 82 80 82 86 93 94 99 95 90 92 85 90 99 98 93 94 88 81 88 92 94 94 87 94 96 93 92 89 88 96 94 94 88 82 99 100 99 99 99 97 91 78 77 80 73 59 48 54 62 63
81 91 85 85 83 80 85 97 98 100 97 96 98 81 87 90 91 91 85 82 82 86 95 92 92 88 88 94 96 87 92 90 96 89 94 94 85 85 88 99 100 99 99 100 95 55 52 62 65 57 44 46 60 61
91 88 89 88 84 92 99 100 100 100 98 98 94 96 82 80 86 87 84 89 90 91 85 93 89 98 91 88 87 84 95 97 93 92 95 91 79 78 78 92 99 100 100 100 96 75 70 67 56 48 55 64 66 69
90 90 89 85 91 97 100 100 99 98 98 95 91 90 87 86 85 85 85 87 90 90 97 96 94 89 79 78 87 92 95 91 86 87 86 81 79 78 78 88 90 94 98 95 92 69 57 54 50 49 48 51 47 49
92 90 88 79 79 94 95 99 93 92 96 94 94 97 93 93 89 88 93 97 96 96 98 97 81 69 69 74 80 83 90 88 88 80 68 65 78 86 86 84 78 84 86 87 80 74 69 60 54 54 55 52 51 48
91 90 83 88 94 91 95 97 98 95 97 96 96 92 98 95 95 96 97 96 98 97 94 80 73 70 81 82 85 87 86 85 80 74 68 73 70 80 83 84 88 83 78 73 72 68 71 70 63 59 73 57 58 57
99 89 98 93 95 92 94 93 95 94 93 98 96 94 100 99 100 97 95 97 96 90 81 76 77 77 81 83 80 86 87 91 89 83 79 77 78 76 74 78 85 87 88 87 85 83 79 74 73 72 70 66 63 63
89 92 99 98 91 87 96 93 94 94 97 98 96 95 97 98 97 94 98 94 89 80 82 86 90 90 86 86 85 83 84 88 84 78 73 61 61 74 82 81 82 92 90 82 84 83 85 80 82 82 80 76 72 67
84 98 98 95 91 97 91 95 87 93 95 95 94 98 98 97 94 97 97 90 86 84 86 91 90 87 88 94 89 86 84 81 78 74 72 71 75 62 66 71 72 78 82 81 86 87 85 83 81 84 84 83 80 77
98 96 92 97 94 92 95 96 96 93 98 96 99 99 97 94 98 100 97 90 87 87 84 86 88 89 91 88 70 65 82 77 70 65 68 75 71 73 72 66 60 60 72 87 82 84 84 85 84 85 84 84 85 87
93 94 93 93 95 89 93 97 98 97 96 100 98 96 96 95 98 90 84 86 86 86 90 93 93 92 90 87 75 65 66 79 77 70 69 78 75 72 79 72 68 60 73 77 84 84 84 84 85 90 84 86 84 86
98 99 89 74 82 84 91 85 81 90 98 96 97 97 93 88 87 73 75 79 79 85 87 89 87 82 77 74 76 77 81 88 84 78 78 79 79 77 83 81 77 66 79 84 87 86 85 83 83 84 85 83 83 82
85 90 94 95 94 93 95 97 97 97 92 84 82 96 85 81 73 74 80 85 87 87 86 84 86 87 84 83 84 81 81 88 88 85 78 74 78 85 92 88 88 86 86 90 89 90 91 91 90 88 88 88 87 82
94 89 88 100 100 99 96 93 92 90 78 84 85 84 83 78 82 84 84 86 90 89 84 84 85 89 85 83 86 86 88 86 78 76 79 71 76 79 89 88 89 89 91 90 82 81 91 95 96 95 94 92 88 87
96 95 97 100 97 98 96 93 94 94 87 86 82 84 83 82 89 91 89 90 89 91 93 94 93 89 87 85 86 82 87 89 89 85 87 86 84 88 90 90 88 86 90 92 91 90 84 87 88 96 92 90 89 89
95 95 93 98 96 97 98 93 93 85 90 92 93 93 88 91 85 90 90 92 93 93 90 90 89 92 89 88 89 88 85 93 97 96 96 96 94 93 91 90 90 91 92 94 94 94 94 94 97 97 93 92 95 92
96 96 92 91 96 98 97 96 97 96 96 96 95 95 92 91 87 89 87 89 91 90 81 91 89 86 89 90 92 93 92 93 95 95 99 97 95 93 92 92 94 96 95 96 96 97 97 100 100 100 96 97 98 99
99 98 99 96 97 96 96 92 94 92 96 96 93 93 93 92 82 85 90 93 90 87 87 88 90 92 94 96 95 95 92 96 100 93 93 90 88 84 86 94 95 94 95 94 94 95 98 100 99 99 99 99 98 98

GFSWCAN_sfc_rhum_087.txt.gz
RH
75 85 87 90 90 96 94 92 88 84 84 79 78 75 72 71 69 62 74 69 52 38 52 48 46 50 55 50 53 55 58 65 58 74 76 70 63 59 66 55 73 77 85 92 83 85 68 37 48 47 40 44 41 47
74 82 87 89 90 95 94 90 86 84 83 79 78 74 72 72 68 65 70 65 51 53 59 47 45 46 48 49 53 58 61 56 61 65 71 70 62 63 64 56 56 71 71 87 55 50 44 40 35 36 32 35 39 49
74 80 87 90 88 89 94 90 85 85 83 81 79 73 73 70 69 66 74 72 62 66 63 57 59 54 52 53 45 63 57 54 60 64 74 69 82 60 52 49 64 68 87 83 60 40 39 38 36 34 36 38 39 42
75 80 88 90 90 93 94 90 85 85 83 81 74 74 75 74 71 72 86 74 65 63 66 64 50 59 52 54 57 53 58 55 55 64 76 72 70 58 56 50 60 39 57 83 75 54 45 35 38 40 38 34 39 40
77 83 91 91 94 94 93 90 86 84 84 81 80 80 76 81 81 86 89 77 68 76 60 69 57 52 49 53 59 61 62 63 77 82 81 76 62 64 53 51 54 36 38 42 46 59 61 46 44 44 47 43 41 44
80 86 92 90 95 93 92 91 89 87 86 84 85 84 84 82 80 82 89 80 75 74 80 82 63 56 50 57 64 67 66 68 77 82 76 66 53 66 74 61 38 32 30 30 34 42 44 51 49 50 55 53 47 53
82 86 92 92 95 93 92 91 89 88 89 88 88 89 86 84 87 86 79 81 75 68 77 90 75 56 50 62 66 72 71 85 90 83 82 67 66 73 83 65 37 33 34 35 48 54 44 52 62 55 59 57 62 58
84 87 90 94 94 93 92 91 90 90 89 89 89 91 82 79 79 90 85 73 66 70 66 89 80 62 56 72 82 77 88 96 93 76 78 74 70 74 78 50 46 49 43 36 40 45 54 42 64 58 62 60 63 64
85 90 92 95 93 92 92 91 90 89 89 91 90 83 85 86 91 98 80 76 74 75 80 78 84 86 61 67 73 91 86 88 75 83 74 78 67 85 58 55 72 71 71 47 42 58 61 77 78 65 66 65 61 62
90 92 95 94 92 92 91 90 90 90 90 82 74 72 93 96 86 85 86 79 82 85 76 67 62 74 68 69 76 79 84 85 93 71 75 83 70 50 51 95 99 92 72 65 53 59 53 71 73 68 67 62 60 62
90 93 95 93 92 92 91 90 91 84 71 86 86 98 97 84 86 80 88 81 81 84 72 62 60 70 66 77 78 72 89 86 89 80 83 80 76 80 96 98 98 89 70 58 51 52 58 70 72 68 71 69 67 66
91 95 93 92 91 90 91 89 79 88 91 87 91 90 91 87 87 84 87 85 84 76 70 73 72 74 81 76 79 76 88 93 86 79 88 84 76 96 91 95 98 96 80 73 74 81 84 84 86 82 76 75 73 71
95 93 92 91 91 91 86 78 80 81 76 84 85 99 88 94 91 89 92 89 86 76 79 85 92 83 96 91 83 84 92 87 85 88 77 70 81 79 88 93 97 97 95 89 88 88 88 89 88 89 86 73 60 60
94 92 92 92 89 85 84 79 74 79 87 94 99 98 91 96 85 79 69 78 73 79 82 78 84 83 84 98 86 95 75 95 95 90 78 74 80 81 79 86 99 99 99 97 98 97 96 93 96 93 90 84 75 68
92 91 90 88 88 85 78 75 76 86 91 97 94 92 95 85 92 88 93 86 80 76 78 78 82 73 90 90 89 92 93 88 77 76 82 86 84 77 86 98 100 100 99 99 99 99 99 99 94 61 51 55 59 59
92 89 90 86 83 80 80 82 88 89 100 97 92 94 85 91 97 91 96 94 81 74 77 76 89 88 81 82 88 84 82 82 84 92 87 85 78 71 82 99 100 99 99 99 95 81 74 71 66 54 43 44 53 54
82 94 88 86 83 81 80 94 93 100 100 95 96 85 85 91 88 84 78 73 65 77 90 84 90 82 88 89 89 77 87 90 94 86 86 88 88 77 82 90 99 99 100 100 100 94 64 53 56 52 46 41 50 53
95 89 81 75 73 86 95 100 100 100 97 96 94 92 75 71 77 78 72 76 80 86 85 91 82 92 90 90 81 81 88 96 88 86 84 85 80 72 73 78 99 99 100 100 99 95 77 72 62 50 58 64 66 70
87 84 82 82 86 96 100 100 100 96 97 93 89 82 80 78 79 70 70 74 83 83 96 93 89 88 77 73 86 99 95 85 74 74 79 70 74 76 79 93 91 94 99 99 99 98 97 81 58 51 50 51 50 46
86 88 89 85 86 99 99 100 98 94 95 92 89 91 88 88 83 85 86 91 90 99 96 95 80 64 57 63 73 74 78 78 81 80 70 60 61 92 89 87 78 81 77 78 91 92 85 70 59 53 55 53 52 50
92 96 87 88 94 92 94 95 95 92 93 92 94 88 96 91 95 96 97 96 98 95 91 76 66 57 70 69 73 77 76 74 77 67 66 71 63 69 74 81 85 80 73 67 67 67 70 73 67 61 75 59 56 54
98 86 96 88 94 90 91 91 91 88 89 94 94 89 96 97 96 96 95 97 93 86 76 68 68 66 72 74 68 79 74 82 82 80 81 78 76 78 73 75 78 86 87 84 82 80 77 75 78 75 72 69 66 63
88 90 98 98 88 83 97 88 91 90 92 97 94 92 95 95 94 92 95 88 86 75 78 78 83 86 81 79 78 77 80 85 77 76 74 70 60 70 78 78 77 90 89 81 82 82 85 79 80 82 83 81 78 73
80 95 94 93 84 97 85 93 82 89 90 90 91 94 95 95 92 95 94 86 81 78 77 87 79 76 79 94 82 74 73 73 71 71 69 60 69 61 60 65 58 65 76 74 80 83 83 83 79 84 86 87 85 83
94 96 91 96 90 90 93 94 94 88 93 92 92 94 95 91 94 96 90 83 83 83 80 78 78 78 84 81 66 57 81 76 77 76 67 66 66 65 74 70 56 55 69 84 76 77 81 86 85 86 86 86 87 88
94 93 89 88 93 87 90 94 95 94 90 95 92 91 92 92 97 92 82 82 84 84 87 87 86 82 73 73 69 61 62 70 70 66 70 70 68 77 88 79 74 73 71 70 83 82 82 86 86 91 86 86 81 86
95 97 84 69 75 79 83 78 74 83 94 94 91 96 91 91 85 73 70 70 76 82 80 84 81 76 74 72 72 73 75 80 86 82 77 78 78 77 86 86 82 77 80 83 84 84 86 85 86 86 86 87 89 87
82 84 94 88 84 83 92 89 92 94 87 78 78 94 90 80 76 76 76 76 81 80 80 77 77 79 79 79 82 78 82 84 86 85 79 78 79 85 91 87 88 78 86 90 90 92 92 92 93 92 92 92 92 92
88 81 80 100 96 91 89 87 87 81 70 78 84 79 79 73 84 81 77 80 82 83 80 80 84 85 84 82 82 83 84 84 82 79 74 68 82 89 87 87 87 86 86 86 77 79 88 94 95 95 94 94 93 94
93 85 89 96 95 95 92 87 88 88 78 78 76 77 76 78 83 81 82 81 82 85 88 88 89 90 88 85 85 82 86 86 88 86 87 84 86 88 88 88 88 87 88 89 90 88 81 85 87 96 96 96 93 92
87 89 93 90 93 93 92 86 86 77 84 88 87 86 81 84 77 81 79 83 86 90 88 88 89 89 86 87 89 88 88 92 97 94 93 92 92 93 91 90 90 91 93 94 95 95 94 94 94 95 94 97 93 89
90 90 88 91 96 94 91 92 92 90 90 90 90 90 85 82 83 79 79 86 89 87 79 84 82 83 87 87 88 88 86 91 92 92 94 93 93 91 91 90 92 94 95 95 95 95 96 97 97 94 96 98 96 95
94 92 94 94 95 93 91 88 85 91 89 90 88 89 90 84 81 75 76 84 86 86 86 86 86 86 90 92 91 88 87 91 98 89 87 87 86 84 85 89 89 94 95 95 96 94 96 96 96 97 97 98 97 97

GFSWCAN_sfc_rhum_090.txt.gz
RH
68 71 67 82 80 84 90 90 96 93 89 84 82 81 80 81 71 74 83 78 73 68 63 50 49 57 64 60 66 71 75 79 76 82 80 73 67 71 82 67 77 84 94 94 90 97 92 57 55 59 60 58 55 61
67 72 66 83 82 87 88 91 95 91 88 83 81 80 78 75 71 72 80 71 60 75 72 52 56 57 57 60 66 69 72 64 81 90 94 93 92 91 78 90 75 80 89 93 97 81 55 53 54 47 48 49 54 64
69 74 72 74 81 90 88 95 93 91 88 85 81 76 74 71 69 71 82 82 77 77 77 70 69 60 54 58 54 78 71 62 73 80 96 92 92 87 89 85 76 85 85 88 84 58 63 56 48 53 50 52 50 52
71 74 74 77 79 84 90 94 92 89 86 82 75 73 74 74 72 73 89 84 78 76 87 84 54 69 59 60 62 61 65 63 68 82 94 90 86 74 86 73 75 63 58 68 81 64 60 58 61 59 58 55 49 52
71 76 76 74 80 89 91 94 92 87 84 78 78 78 77 79 80 85 90 87 82 87 85 84 64 58 55 58 66 67 65 66 79 91 95 93 74 79 72 70 76 55 53 60 64 56 73 72 48 59 68 67 61 56
70 73 72 76 84 90 93 93 90 87 83 82 82 83 83 80 79 88 91 89 81 87 93 95 76 65 63 66 70 74 68 77 86 90 86 76 58 79 92 90 51 43 38 44 59 67 62 53 50 66 67 72 69 67
68 72 71 81 90 94 94 91 89 86 87 85 86 84 81 80 91 93 89 90 75 80 93 96 92 66 61 71 75 71 71 93 94 92 90 76 73 87 95 90 48 44 54 67 52 47 63 48 58 53 68 71 70 73
73 72 73 84 91 95 92 90 89 88 87 88 86 85 82 78 81 92 89 77 74 82 84 96 93 86 66 82 93 85 96 96 96 92 87 82 75 91 88 64 52 54 84 83 71 45 57 63 69 78 73 74 77 78
77 76 76 85 91 95 91 90 90 89 90 87 85 81 86 90 95 98 77 79 85 88 96 95 92 98 76 76 91 92 88 96 89 91 81 87 80 95 74 65 95 98 97 95 78 69 61 73 83 82 81 78 79 76
78 80 83 89 94 92 90 90 89 90 89 85 84 84 98 98 82 83 86 88 93 92 91 90 79 94 83 73 90 95 92 94 98 84 83 89 80 63 72 96 97 99 92 78 84 82 71 73 75 77 78 76 76 77
80 84 88 94 93 91 91 89 90 90 84 93 96 99 97 84 89 91 94 92 93 94 87 80 81 93 79 82 89 82 96 96 96 93 92 91 85 97 88 87 86 97 95 69 78 70 72 88 83 84 81 79 78 75
82 88 93 94 91 91 89 91 88 91 92 90 92 91 94 90 93 90 93 92 88 87 82 92 93 91 90 86 78 85 94 96 91 86 96 88 95 98 92 82 85 97 97 85 82 89 89 91 92 92 91 87 84 80
84 92 95 92 90 89 90 86 80 79 75 91 91 97 94 96 94 88 92 95 95 90 94 97 93 87 88 85 84 84 96 95 92 96 80 92 88 83 88 79 86 97 98 98 96 96 94 95 94 95 95 94 90 84
88 94 93 90 89 89 87 84 73 81 90 95 92 96 94 99 92 89 89 92 94 92 91 87 86 94 92 98 88 96 86 95 97 98 88 92 91 91 83 92 99 99 99 99 99 99 99 99 99 99 98 94 76 68
92 94 91 91 88 88 81 76 73 89 94 94 97 93 97 96 98 98 98 95 95 83 84 91 89 70 95 97 93 96 98 93 91 92 95 94 92 88 90 94 100 100 99 99 99 99 99 99 85 64 51 59 64 66
94 92 91 89 87 82 74 76 90 92 100 93 92 96 88 94 99 99 96 95 88 87 93 95 89 90 80 80 93 86 76 90 93 92 91 92 92 86 89 97 100 90 91 94 97 83 71 67 70 62 49 48 59 60
84 94 90 86 81 78 79 94 95 100 99 96 99 92 97 94 94 94 86 82 75 92 95 89 89 89 94 87 89 85 86 96 96 98 97 92 93 90 91 96 100 98 94 98 99 100 96 71 62 60 58 47 54 60
94 92 86 83 81 81 98 100 100 100 98 99 97 99 94 85 87 87 79 80 87 95 95 89 93 93 88 90 95 95 97 96 98 98 97 95 92 85 85 88 96 98 99 98 99 99 99 99 85 67 66 76 75 79
92 89 84 83 82 96 100 100 100 97 98 98 99 98 93 89 87 88 88 89 95 96 96 94 92 93 95 95 97 98 99 98 95 94 93 89 89 89 89 95 96 99 99 99 99 99 99 98 97 95 76 57 59 57
90 89 88 84 82 98 97 99 100 96 98 98 98 97 96 96 94 89 91 95 97 99 98 98 94 90 85 89 96 96 97 93 94 95 92 89 85 96 95 95 93 91 91 90 98 90 100 98 94 95 78 62 60 60
87 90 86 91 99 96 97 99 98 98 98 96 97 94 98 98 96 94 97 99 98 98 98 96 90 82 82 92 90 91 91 91 95 92 87 94 87 93 94 96 96 91 90 89 89 86 75 88 88 89 87 70 68 66
99 89 98 94 98 98 96 97 97 95 95 98 97 94 92 96 98 98 98 99 98 95 96 90 93 92 94 85 85 89 86 86 90 92 84 86 93 96 95 95 95 95 96 95 97 96 94 95 96 95 94 92 85 86
91 92 99 98 95 92 98 96 96 96 97 98 98 98 96 95 99 98 99 97 96 96 96 96 95 94 93 93 88 85 87 95 94 93 93 92 89 94 94 92 93 96 96 93 97 97 96 84 91 94 97 96 96 95
80 96 97 96 91 98 91 98 88 96 98 99 97 100 98 99 98 99 99 97 96 96 95 94 96 96 97 97 97 96 93 93 94 95 94 92 91 79 78 85 76 84 93 94 95 96 96 96 86 96 97 98 97 97
89 97 95 97 96 93 96 98 97 96 98 97 95 100 100 99 100 100 97 95 97 97 97 97 96 96 97 97 95 90 90 96 96 96 95 93 93 92 90 87 68 65 93 92 95 95 94 97 98 98 97 98 98 97
94 96 94 92 96 90 95 96 96 96 96 98 99 98 99 99 99 93 94 95 96 98 98 97 97 97 96 96 94 93 92 94 93 92 92 94 93 92 93 90 92 91 94 95 96 96 94 94 97 96 97 94 81 91
95 99 84 69 80 82 88 84 82 94 97 96 97 98 97 94 92 88 95 95 97 98 96 97 98 97 96 95 95 94 96 96 94 93 94 94 94 95 94 92 93 96 97 97 98 98 98 97 97 97 96 97 97 96
86 86 94 93 91 95 94 96 96 95 96 89 86 96 87 82 85 95 97 96 96 96 96 95 95 96 95 96 97 96 96 96 95 95 97 97 97 97 97 97 96 73 89 95 95 98 99 96 96 99 99 99 97 97
92 86 87 98 97 96 95 94 95 95 82 93 92 94 92 92 96 97 96 97 97 96 96 96 94 97 97 96 96 97 97 97 80 74 76 89 95 97 98 97 97 97 97 97 82 82 90 93 96 97 97 98 98 100
96 95 93 97 95 97 100 98 98 96 88 88 88 94 93 96 98 97 97 97 97 96 97 97 96 96 93 92 92 92 98 98 98 94 94 95 96 98 98 98 97 97 98 99 98 96 90 93 92 97 99 99 100 100
93 97 96 96 98 100 99 95 96 89 95 97 98 97 96 96 94 97 96 97 97 97 97 94 95 96 94 96 97 96 95 99 99 99 100 99 100 99 97 97 97 98 100 98 97 97 97 98 99 99 98 94 97 97
97 96 94 96 99 98 97 98 98 97 98 97 97 97 95 94 89 96 97 97 98 97 86 94 94 93 97 98 98 98 84 99 99 98 99 99 98 97 95 95 96 97 98 97 97 97 97 97 98 98 97 95 97 99
98 97 97 97 99 98 98 94 95 94 96 97 97 98 98 96 82 92 96 98 97 96 96 96 97 98 98 98 99 99 89 98 99 83 86 84 83 82 87 95 96 97 96 97 97 100 100 99 98 97 96 96 96 97

GFSWCAN_sfc_rhum_093.txt.gz
RH
64 62 64 66 69 74 77 79 88 87 94 95 92 86 83 85 75 64 80 88 73 81 71 64 60 66 66 69 80 77 82 84 86 89 94 95 87 85 88 82 86 84 96 96 88 99 95 56 56 61 62 61 62 67
65 64 66 72 68 76 76 82 88 93 94 93 91 85 85 84 68 69 70 76 70 80 79 68 72 70 66 70 79 80 78 77 90 94 97 97 96 96 86 94 71 85 92 92 99 91 85 77 64 63 60 57 57 74
73 68 68 72 69 68 74 87 88 95 93 90 87 85 85 75 67 72 88 85 83 86 85 83 83 71 64 70 66 86 82 70 84 88 97 96 92 95 94 92 81 90 88 95 82 66 65 85 63 62 69 66 61 58
76 73 71 74 70 72 79 90 95 94 92 90 82 85 81 73 73 77 88 90 80 78 93 92 63 72 60 69 66 68 72 74 78 91 97 98 91 82 93 83 84 73 67 76 82 62 71 72 52 65 72 72 74 63
77 75 73 75 71 75 81 92 95 93 88 86 84 81 80 80 81 87 96 95 89 77 94 94 71 64 66 71 74 70 72 83 94 97 97 96 87 85 87 85 90 68 64 70 73 67 69 68 52 63 63 72 74 75
78 75 75 74 73 74 84 90 93 92 91 89 87 86 86 82 72 82 73 79 88 80 90 97 83 73 77 76 79 74 78 85 94 95 95 85 62 86 96 98 66 55 57 59 67 64 68 64 60 59 74 76 73 76
78 75 77 74 72 74 85 92 93 92 88 88 88 86 82 82 93 91 78 80 76 84 90 96 97 73 78 80 74 79 86 95 96 97 94 82 76 91 99 98 63 58 88 91 81 76 77 58 67 66 72 79 77 74
77 75 76 75 74 77 91 93 91 89 88 88 87 82 80 76 80 91 89 79 78 86 86 96 97 88 76 87 94 87 97 95 94 98 91 86 82 94 98 76 66 82 96 89 95 90 80 61 73 80 81 85 86 82
76 74 75 76 76 86 93 92 90 87 86 86 85 78 85 92 97 95 78 79 87 81 94 93 93 98 79 86 92 94 91 96 92 94 87 83 90 95 78 75 87 98 99 96 83 84 83 72 70 75 82 85 89 79
76 75 77 78 85 93 91 91 89 84 82 74 81 89 99 98 80 82 86 86 91 93 94 94 91 94 86 84 94 94 92 96 100 86 84 91 92 71 76 94 88 90 96 92 92 88 84 80 87 87 82 77 78 82
77 78 79 84 93 91 91 89 82 78 73 93 98 99 97 83 88 91 96 92 96 95 90 89 91 96 82 89 94 87 96 96 95 94 96 95 92 94 90 86 83 85 96 96 84 89 94 96 94 92 90 84 80 77
78 80 82 89 93 90 89 85 82 88 96 92 92 91 96 93 96 89 92 94 95 87 91 94 97 97 96 84 82 85 94 96 87 89 99 84 90 94 86 82 81 86 96 96 86 91 91 91 93 93 91 90 88 82
79 83 85 88 91 88 85 83 80 82 74 91 92 98 97 96 96 84 91 97 98 94 98 98 96 86 93 81 85 89 96 98 95 96 78 88 93 88 90 81 88 96 97 98 97 97 96 95 97 96 97 98 97 98
84 85 88 92 88 86 86 85 74 73 92 96 94 98 94 97 96 90 88 92 95 93 90 92 98 96 96 97 90 99 80 97 98 96 92 95 92 92 90 94 99 98 98 99 99 99 99 99 99 99 99 98 97 81
82 88 92 89 88 87 82 75 79 93 95 99 97 96 99 97 98 99 98 95 95 84 92 94 94 83 97 96 95 96 98 98 87 92 96 98 93 90 93 94 100 96 98 98 99 99 99 98 94 66 52 59 64 69
87 94 89 90 89 83 78 81 94 95 100 98 98 98 90 94 99 98 97 94 86 92 94 93 89 90 92 91 92 90 79 86 86 98 98 93 93 89 93 92 99 91 91 94 95 86 73 67 70 68 56 50 58 60
94 92 92 89 86 84 80 96 97 100 99 98 99 95 98 97 97 98 88 83 87 90 97 95 91 86 90 86 90 72 85 92 92 100 98 90 90 92 92 96 99 98 95 97 98 94 97 89 73 59 57 52 49 56
97 93 88 87 85 86 99 100 100 98 98 100 96 99 98 97 92 91 86 87 89 97 96 92 93 93 86 85 91 94 100 92 99 98 98 95 95 91 90 93 94 99 99 98 98 99 99 99 99 94 77 79 75 74
89 88 87 83 80 96 99 99 97 96 99 99 99 99 97 95 90 92 89 91 96 96 95 97 95 98 95 96 98 98 100 96 98 95 95 93 92 92 91 96 97 98 97 96 99 99 99 99 99 99 99 97 79 60
88 84 82 82 88 97 98 99 98 94 98 98 99 98 97 99 97 97 95 97 98 99 98 99 94 91 92 90 98 98 98 96 95 96 94 94 94 98 96 96 93 93 92 92 98 88 99 98 97 96 97 97 86 70
90 95 92 93 99 94 97 98 98 98 98 97 98 98 98 97 98 98 99 99 97 99 99 96 93 88 86 95 91 92 94 94 94 93 91 96 91 97 96 97 98 92 90 89 89 88 82 89 92 96 94 79 74 71
99 91 98 94 97 98 97 97 97 98 97 98 98 96 98 98 98 98 98 99 99 96 97 93 96 96 96 87 86 91 85 88 92 94 86 86 93 97 97 97 96 94 97 96 98 97 96 96 94 96 97 94 90 94
90 93 99 99 96 96 97 98 96 97 96 98 97 97 98 98 98 96 100 98 96 98 98 97 96 96 94 95 90 86 88 95 94 92 94 96 95 98 97 92 93 95 93 92 98 97 97 83 92 94 97 98 98 97
87 97 97 97 95 97 95 97 91 96 97 98 96 100 98 98 95 99 99 97 96 98 96 94 97 97 97 96 97 96 95 96 96 98 98 98 97 90 81 82 82 86 91 95 97 96 97 96 85 97 98 99 99 99
92 97 96 97 96 93 96 98 98 93 99 98 96 100 98 98 100 100 98 93 98 98 98 98 98 98 98 100 98 95 94 98 98 97 96 97 97 94 92 90 72 72 96 92 92 96 96 96 96 96 98 99 99 97
94 96 93 94 97 90 96 98 97 96 95 99 100 99 100 99 100 92 95 96 97 98 99 98 97 98 97 97 95 94 91 97 96 96 95 97 95 92 92 90 89 91 98 97 96 96 95 96 97 96 97 96 88 92
96 99 84 71 84 84 89 84 82 92 97 95 98 100 97 96 94 86 96 98 98 98 98 99 98 97 96 97 97 96 97 98 93 92 95 97 97 98 94 91 91 95 98 97 98 99 100 98 98 98 98 97 97 97
87 87 94 94 92 95 94 95 95 94 97 91 87 96 86 80 82 93 96 97 97 97 97 97 97 97 96 97 97 97 95 97 97 98 97 96 98 98 97 96 94 73 90 94 94 97 98 98 96 92 95 99 97 97
93 86 86 96 96 95 96 95 96 97 86 92 92 95 92 94 96 97 97 97 98 97 96 93 93 99 98 98 98 98 98 96 75 67 70 89 96 96 98 98 98 98 98 98 88 88 95 96 96 96 96 96 95 97
96 93 91 96 94 98 100 98 98 96 88 89 88 95 94 96 98 98 97 98 96 96 98 97 98 94 92 90 91 89 99 100 98 91 88 90 92 98 98 98 96 96 97 98 98 97 93 96 97 98 99 98 98 99
92 95 95 96 99 99 99 96 96 90 94 97 98 94 94 96 93 98 97 98 99 98 94 93 94 100 95 96 96 95 92 98 100 100 100 100 100 99 97 97 96 97 99 100 98 98 98 98 99 99 99 100 98 92
94 96 94 95 98 97 97 97 98 97 97 96 95 97 94 92 80 95 97 97 98 95 86 97 93 89 97 98 99 99 85 100 99 99 100 100 98 96 96 96 97 98 100 98 96 96 97 97 98 98 98 98 98 97
94 95 97 97 99 97 97 93 93 93 96 98 97 99 98 94 74 89 97 98 95 95 95 96 98 98 98 98 99 100 91 99 100 86 84 83 79 81 87 97 96 96 96 98 98 100 100 100 100 98 98 98 97 96

GFSWCAN_sfc_rhum_096.txt.gz
RH
72 75 73 69 68 66 68 71 75 76 79 87 95 92 86 88 71 72 87 84 65 76 78 78 73 68 70 72 77 78 77 82 89 90 94 94 90 88 91 82 90 85 96 97 93 99 94 92 77 81 80 69 60 71
74 73 77 72 70 70 70 73 73 75 85 90 95 93 88 84 66 65 82 69 68 81 82 72 73 76 72 69 81 84 74 84 88 94 98 97 95 97 88 92 72 91 93 91 93 85 89 88 92 67 76 73 76 73
76 72 76 75 71 70 72 70 70 74 82 92 94 92 88 84 65 68 84 84 80 85 82 81 80 70 64 76 68 82 87 76 87 90 96 96 86 95 94 92 86 83 88 95 89 74 59 95 90 88 77 79 79 79
78 74 75 75 72 73 73 72 71 79 87 93 92 90 90 81 70 73 85 89 73 79 92 90 62 67 60 71 69 70 76 80 84 90 97 98 90 86 94 87 89 77 76 76 85 66 80 79 64 65 77 72 76 79
83 79 75 77 74 75 74 72 79 84 93 90 90 90 80 76 80 85 91 91 86 75 93 93 72 68 74 74 71 72 77 87 94 95 97 95 90 87 92 91 95 77 72 76 76 72 73 68 60 51 63 74 81 86
83 82 78 79 75 76 72 78 86 94 92 92 90 82 83 78 71 71 69 74 86 82 90 97 85 82 84 78 76 79 83 93 96 94 95 93 76 87 97 98 73 65 67 73 78 78 75 70 66 58 79 82 74 81
85 83 81 79 77 75 74 80 95 93 90 90 88 85 79 81 93 81 69 78 80 79 90 96 94 72 84 81 73 84 90 97 96 98 96 92 86 91 99 99 66 73 95 88 86 94 96 77 70 62 65 78 76 79
84 82 82 78 79 77 75 82 93 91 90 90 90 88 82 76 78 82 84 79 78 85 84 97 96 91 82 77 92 86 95 91 92 98 94 84 88 94 99 82 75 83 86 92 87 90 95 90 80 72 80 88 92 89
84 83 81 78 79 78 78 89 92 92 92 90 87 82 84 93 94 90 75 75 87 77 90 91 92 95 80 92 94 94 92 98 95 96 89 84 89 97 78 76 87 78 93 96 86 84 86 88 77 73 84 82 91 93
84 82 79 79 79 80 87 91 92 88 85 81 79 89 97 96 81 81 80 76 88 92 93 94 90 96 90 90 93 95 95 98 100 90 87 95 93 75 72 86 92 89 87 93 94 90 91 92 92 88 88 86 86 94
82 79 78 78 79 88 92 89 86 83 79 95 98 98 97 87 88 89 95 83 93 89 89 94 89 98 86 94 98 92 98 97 90 96 93 95 94 91 91 90 81 81 83 94 93 90 87 94 96 96 93 86 84 84
79 77 77 78 84 93 88 86 84 89 94 91 92 93 98 93 96 82 93 95 90 74 95 96 96 97 97 87 95 88 91 96 92 91 98 89 89 91 92 79 78 81 89 94 94 91 92 90 93 93 92 90 90 88
77 78 82 85 87 90 85 82 77 83 76 91 92 96 91 96 93 82 87 94 98 97 99 99 99 92 95 81 89 92 99 97 93 97 80 88 86 93 95 86 96 96 96 97 97 97 97 98 98 98 98 98 97 98
80 77 82 93 89 86 82 86 79 73 92 97 96 99 96 98 95 90 89 90 93 96 92 94 95 94 94 95 79 92 86 92 98 96 90 92 90 91 93 88 99 92 94 98 99 99 99 99 99 99 99 99 99 97
81 82 88 90 86 87 86 83 84 94 97 99 90 94 99 96 99 100 98 97 98 82 93 95 96 91 99 98 96 94 100 98 82 89 92 97 92 93 96 90 100 90 93 95 97 99 99 99 98 91 54 55 63 74
83 87 91 88 90 87 90 91 96 96 100 98 95 98 92 97 100 98 96 96 90 90 94 93 94 93 96 93 97 92 90 92 86 95 97 96 94 92 93 92 99 93 91 93 95 89 75 66 68 70 64 55 52 57
88 98 90 90 89 91 91 97 96 100 99 96 100 96 97 95 97 98 85 86 89 90 96 94 90 87 93 95 96 88 88 90 95 99 99 93 93 92 92 96 99 98 94 95 93 91 91 95 98 86 67 55 52 48
97 93 88 89 88 91 98 99 100 98 98 99 98 100 98 98 98 95 92 87 90 97 95 90 92 91 95 93 94 92 100 96 99 98 98 95 95 94 90 95 90 98 99 98 96 97 99 99 99 99 99 98 95 87
90 89 89 88 88 95 99 99 97 97 99 99 99 99 99 99 94 94 91 92 95 94 94 97 95 97 94 94 95 97 99 90 95 97 96 93 94 93 92 96 97 97 93 94 99 98 99 98 98 98 99 99 98 98
88 88 88 88 88 98 98 99 97 95 98 98 98 98 98 98 99 96 94 94 95 96 92 99 85 83 88 90 97 99 98 95 96 97 95 96 96 98 96 96 96 94 94 94 99 89 98 95 95 96 96 96 98 92
91 96 92 93 99 95 97 98 98 98 98 97 98 98 98 98 99 98 99 96 95 98 97 96 92 89 90 96 92 93 95 95 94 92 90 97 93 98 99 99 98 96 89 87 87 85 82 90 92 98 98 90 85 82
99 91 98 94 97 98 96 98 98 98 97 98 98 98 98 98 98 98 98 98 100 96 97 93 97 97 97 88 88 93 87 90 92 94 88 86 93 97 97 97 97 94 95 94 96 97 96 97 98 98 99 97 94 97
91 93 99 99 97 96 98 98 97 98 97 97 97 96 97 98 98 96 98 96 96 97 98 98 96 97 96 97 90 87 89 95 94 93 95 96 95 98 98 96 94 93 92 90 97 97 97 84 92 96 98 98 98 98
88 97 97 97 96 97 96 97 96 96 97 96 96 96 97 97 96 98 98 96 96 98 97 95 97 97 96 95 96 96 96 97 96 99 99 98 99 97 94 91 82 88 94 95 97 97 97 96 84 97 98 98 98 99
92 97 97 97 98 95 96 96 97 96 96 96 95 97 97 96 99 100 96 93 98 98 98 98 98 98 96 100 98 96 95 98 98 97 97 98 98 96 93 93 80 86 98 94 93 95 96 97 97 97 97 98 98 96
95 96 95 94 96 92 96 96 96 95 95 96 96 96 98 98 99 90 92 95 97 98 99 97 96 99 98 98 95 94 92 98 97 97 96 98 97 95 93 90 90 92 98 97 96 96 97 97 98 97 96 94 88 96
96 98 83 71 83 85 90 86 81 88 93 93 96 99 97 95 91 84 95 98 98 98 98 98 97 96 95 98 98 97 98 99 95 95 97 99 99 98 95 92 92 96 98 97 97 97 98 97 97 97 97 96 98 97
87 87 92 94 92 95 93 93 92 91 93 87 84 96 87 80 82 93 96 98 97 98 97 98 98 98 96 97 98 97 95 99 100 99 97 96 98 98 97 97 97 78 94 96 98 99 99 99 99 98 98 96 94 96
93 87 88 98 96 95 96 94 94 95 85 86 90 94 89 94 97 97 97 97 98 95 93 93 97 99 98 98 98 98 98 96 73 64 67 86 94 95 98 98 98 98 98 98 89 89 97 96 94 94 96 98 97 97
98 95 95 96 94 97 97 94 95 94 87 88 87 94 94 97 98 98 98 97 95 94 97 98 99 95 95 91 90 88 98 100 97 88 86 88 90 97 99 99 98 97 99 99 99 98 93 96 99 100 99 97 98 97
95 95 95 93 96 96 96 93 94 86 91 95 96 93 95 96 93 97 97 98 98 96 90 94 95 100 94 96 95 94 91 98 100 100 100 99 100 100 98 97 97 99 100 100 98 98 98 99 100 100 99 99 98 97
94 94 92 96 98 97 97 97 98 96 96 94 93 96 93 91 80 95 98 98 98 93 86 95 92 90 97 98 99 99 85 98 99 99 100 100 100 97 97 97 98 100 100 98 99 100 100 100 100 99 98 98 97 98
95 94 96 97 99 97 96 92 92 92 94 96 96 98 99 93 73 90 98 99 96 95 96 96 98 98 98 98 98 100 97 99 100 86 84 81 77 79 85 99 99 99 99 99 99 100 100 100 100 99 98 98 98 96

GFSWCAN_sfc_rhum_099.txt.gz
RH
75 72 69 73 71 72 70 63 66 72 75 75 89 94 93 92 79 70 83 84 64 86 84 79 78 67 68 71 71 78 71 79 89 89 93 95 91 88 91 86 92 94 91 87 92 99 93 93 79 80 87 80 83 88
79 75 71 74 71 70 73 65 70 75 75 74 87 95 93 90 74 70 71 69 64 83 83 72 73 76 84 77 82 86 66 85 85 92 98 98 97 98 89 90 78 93 86 90 87 80 87 93 87 74 82 85 85 93
80 79 73 73 72 72 74 68 72 76 76 74 81 95 92 89 76 69 77 79 78 84 80 78 83 72 63 79 76 80 88 81 90 90 96 96 88 93 93 93 87 81 88 94 89 82 74 90 94 88 84 90 86 82
81 82 79 74 74 74 75 73 74 74 73 76 85 94 92 90 82 70 79 83 72 78 88 87 59 72 70 74 73 73 79 86 88 90 97 97 90 89 94 87 90 79 80 80 85 75 91 89 72 65 61 80 79 85
84 84 82 80 76 77 78 75 77 76 74 77 89 93 91 89 77 85 93 91 74 69 91 84 74 72 80 72 75 76 79 87 92 94 96 95 91 88 93 92 96 83 77 79 75 71 76 72 65 67 68 65 79 84
82 83 85 83 78 75 80 76 78 79 78 82 94 92 88 80 71 70 70 74 76 78 89 93 81 88 82 79 85 90 90 95 96 93 95 94 82 86 97 97 74 75 69 75 83 89 91 88 81 73 71 75 77 79
83 83 85 84 78 78 80 77 79 79 82 95 94 92 83 70 89 80 74 75 75 75 88 95 93 75 84 82 87 91 92 96 94 98 96 92 88 91 99 99 69 76 92 92 81 87 92 90 84 85 83 71 78 87
83 82 85 84 80 81 79 79 80 86 94 90 86 81 77 77 77 82 85 77 76 78 81 95 96 88 83 90 94 89 91 94 94 98 97 89 90 94 98 85 76 76 87 82 87 85 81 91 92 75 69 84 90 95
84 84 85 84 82 81 79 80 92 92 89 86 82 77 84 93 92 90 75 75 81 73 88 90 96 99 86 97 94 95 95 98 97 95 95 87 90 98 78 79 75 85 87 82 84 85 81 90 89 80 88 89 87 88
88 85 86 83 82 80 82 85 92 89 85 81 81 93 100 98 82 79 77 75 84 91 93 89 89 98 94 96 96 93 97 99 100 89 91 94 93 77 74 76 85 90 89 89 97 84 93 90 94 89 97 90 89 91
86 87 84 82 80 81 76 92 87 82 79 95 98 100 99 87 90 90 92 80 89 87 90 93 92 98 89 93 94 90 99 97 92 92 94 98 96 92 87 91 92 84 80 86 91 91 92 89 93 96 94 90 88 90
87 84 82 81 79 77 90 86 80 90 96 90 92 93 96 94 97 87 87 93 85 71 98 96 97 96 97 90 93 95 94 97 94 94 97 95 89 89 95 90 85 83 84 88 89 95 92 92 93 96 94 95 96 95
83 81 81 80 73 82 87 79 77 82 71 87 91 96 95 97 94 86 87 96 95 98 99 99 98 95 90 92 96 96 89 97 90 96 95 90 83 89 96 89 95 91 88 96 96 97 97 98 98 99 99 99 99 100
81 81 82 77 89 86 80 82 79 71 92 97 97 99 94 98 94 88 89 90 92 96 93 94 98 95 92 93 89 98 87 89 98 92 91 92 83 91 95 95 97 84 89 96 98 98 99 99 99 96 95 91 96 95
81 83 77 91 90 84 80 76 76 94 97 98 91 89 99 95 98 99 98 98 99 83 91 96 96 90 98 98 95 94 99 91 90 88 91 93 89 94 97 94 99 89 92 92 94 96 99 97 95 88 63 56 60 69
73 80 84 83 90 85 82 93 97 97 100 95 94 99 95 98 99 99 97 96 88 82 92 89 95 94 96 94 98 99 94 97 89 94 96 96 95 94 95 96 99 90 89 93 94 90 78 73 77 78 72 67 54 55
85 95 88 93 89 91 90 97 97 100 98 95 99 93 96 96 98 99 87 89 81 86 95 94 88 84 94 98 98 91 92 90 92 99 99 94 93 93 93 96 98 97 94 95 94 90 89 88 96 98 96 70 71 58
97 97 90 90 90 93 98 100 100 98 97 99 98 100 99 98 93 94 96 86 88 97 94 88 90 94 94 93 95 92 100 98 99 99 98 95 94 93 91 94 95 92 100 98 96 96 98 99 99 98 99 99 99 98
92 92 91 88 88 96 99 99 99 97 99 99 99 99 99 99 98 94 83 94 94 94 92 96 94 97 94 93 94 98 100 99 96 98 96 94 94 94 93 97 95 92 92 98 99 97 96 96 90 86 87 94 97 99
90 89 90 89 89 99 98 99 98 94 98 99 99 98 99 99 99 94 96 95 95 96 90 97 81 79 87 89 97 99 96 93 97 97 97 97 97 98 96 96 98 100 99 98 99 96 98 97 95 96 97 96 98 96
91 97 92 94 100 96 98 98 98 99 98 97 98 98 98 99 98 98 99 98 94 97 94 94 90 89 92 96 94 96 97 95 94 90 90 98 96 99 99 99 98 98 94 88 86 82 79 89 91 98 100 96 95 93
99 91 98 95 98 98 96 97 98 98 97 98 98 98 98 98 98 98 98 97 99 96 96 93 97 97 98 91 91 96 93 93 94 94 90 88 96 99 99 98 100 98 96 93 95 94 95 97 98 98 99 98 96 99
92 93 99 100 97 96 98 98 97 98 97 97 98 97 97 98 97 97 98 97 96 97 98 98 97 97 97 97 90 90 91 95 93 93 95 96 94 98 98 97 97 94 93 89 97 97 97 84 94 96 98 98 99 98
87 97 98 98 96 97 97 97 97 96 97 97 96 96 96 97 97 97 98 96 97 98 98 98 98 97 96 94 95 96 97 97 97 99 99 98 99 98 96 97 93 92 94 96 97 97 97 96 84 96 97 98 98 98
95 97 96 97 98 96 96 97 97 96 96 96 96 96 96 96 98 100 96 92 96 99 98 98 97 97 96 100 99 96 96 98 97 97 98 99 99 96 95 94 89 96 99 96 95 96 96 97 98 98 98 98 98 96
95 96 96 95 97 94 96 96 96 96 96 96 95 95 96 94 97 92 89 93 97 97 98 95 95 99 98 97 95 94 95 98 98 97 97 98 98 97 97 93 94 95 98 97 96 95 96 97 97 97 96 94 86 94
96 97 84 73 86 90 96 93 92 96 96 95 95 97 94 93 90 83 94 98 97 98 98 96 95 94 94 99 98 98 98 99 98 97 99 100 99 98 95 93 92 96 98 97 97 97 96 98 99 99 98 97 97 98
88 86 92 94 91 95 94 97 96 95 91 85 83 93 89 84 81 93 97 99 98 98 97 98 98 97 94 96 98 94 98 100 99 98 96 96 98 99 98 97 97 80 97 98 98 100 100 100 100 100 100 99 97 99
93 88 88 98 97 96 96 96 95 92 83 84 91 92 89 93 98 98 98 97 98 96 93 92 97 96 95 96 96 98 99 96 81 69 67 85 92 94 99 99 98 98 99 99 90 90 97 96 93 93 97 98 98 99
97 97 96 97 96 96 95 93 95 92 84 86 86 93 94 97 98 98 98 97 96 94 96 95 95 95 91 89 94 92 99 100 97 88 86 88 89 96 100 99 98 98 99 100 100 99 92 96 98 100 99 97 98 98
96 96 96 95 95 95 95 91 92 84 91 96 96 95 96 96 95 96 96 97 97 96 93 95 97 100 90 96 94 93 90 98 100 100 100 99 100 100 99 98 98 100 100 100 99 99 99 100 100 100 99 100 99 99
95 96 94 96 96 95 94 95 94 95 94 94 94 96 94 92 84 94 98 96 96 92 88 90 87 89 97 99 99 100 90 98 99 99 100 100 100 98 97 98 100 99 99 98 98 100 100 100 100 100 99 99 98 98
97 97 98 96 97 97 96 92 90 92 94 96 96 99 98 94 76 90 98 99 96 92 92 93 98 96 95 97 98 100 97 100 100 86 81 78 73 79 87 99 100 99 98 100 100 100 100 100 100 100 99 100 99 98

GFSWCAN_sfc_rhum_102.txt.gz
RH
67 68 70 71 70 70 69 69 72 72 71 75 75 82 94 85 91 71 81 79 68 86 87 85 82 66 69 71 73 79 74 83 87 89 94 96 92 90 90 87 90 90 90 82 92 94 91 91 83 80 86 88 90 93
68 69 73 75 71 70 69 71 73 76 74 77 76 79 88 92 93 69 70 68 66 80 83 73 75 77 81 78 84 86 62 84 83 89 97 98 97 98 89 92 85 95 86 91 87 83 76 87 87 86 89 91 89 92
76 74 76 78 75 72 70 72 73 76 74 77 74 78 87 94 83 67 74 78 77 80 82 81 84 71 70 81 78 77 89 82 89 90 96 95 90 92 95 94 87 82 90 98 88 84 83 83 96 80 73 87 89 88
80 81 81 81 78 75 72 71 72 75 75 72 72 79 94 92 76 68 77 80 73 74 89 87 64 80 75 78 77 75 80 88 88 91 97 97 87 88 92 82 90 80 86 87 86 76 86 92 76 78 74 72 74 84
82 83 82 81 81 79 77 77 75 78 76 74 75 81 94 87 75 83 91 87 73 67 90 89 77 78 80 80 80 78 79 84 89 92 95 94 92 89 95 93 96 86 80 81 76 72 76 77 74 81 87 81 75 83
83 83 83 82 81 81 80 79 79 81 78 80 80 85 95 88 76 69 73 80 75 74 88 93 82 84 80 79 84 89 92 95 95 92 96 95 86 86 96 95 72 82 74 66 78 92 93 92 93 90 86 84 80 73
83 83 82 82 82 81 83 80 80 82 79 80 81 88 94 89 86 79 76 77 70 72 87 95 93 77 84 83 90 91 92 96 94 97 97 92 91 91 98 98 69 76 86 93 85 88 94 92 89 88 91 81 79 90
83 82 82 82 84 82 84 81 80 81 79 80 85 91 87 84 81 81 82 76 73 74 80 94 97 89 84 92 93 95 92 94 96 98 98 90 94 95 98 85 82 80 90 88 82 86 84 78 89 89 75 80 92 89
85 85 85 85 84 84 84 81 81 80 78 85 91 83 82 93 94 91 71 71 80 68 83 90 92 97 88 97 95 95 93 98 96 94 94 90 91 97 79 80 81 76 88 85 76 85 79 83 92 93 92 92 94 91
84 84 85 88 85 84 82 82 81 79 92 84 81 94 99 98 83 81 78 74 84 91 88 81 86 98 91 97 98 95 97 99 100 88 93 97 94 76 76 76 74 88 90 91 94 90 81 82 86 81 96 90 89 91
87 86 88 87 85 83 82 81 79 91 80 92 98 99 98 87 92 91 91 82 86 87 87 88 92 96 92 93 98 89 99 94 96 90 96 98 98 92 83 82 86 90 89 88 92 90 92 94 92 96 96 92 92 94
90 90 87 84 84 81 79 85 88 92 97 93 94 94 97 96 99 96 89 91 82 70 99 97 97 95 96 89 96 97 95 95 97 93 87 96 89 89 93 92 92 90 89 92 92 92 92 92 95 97 97 97 97 98
86 84 84 82 82 79 92 86 84 84 71 78 90 100 96 99 99 89 87 97 97 98 98 99 99 95 94 94 97 96 92 96 92 94 88 90 83 87 97 94 97 90 94 95 90 96 97 98 98 99 99 99 99 99
84 83 81 81 79 84 92 89 78 68 88 95 96 99 94 99 94 88 87 89 88 95 95 95 99 94 91 93 93 95 84 89 98 95 91 92 82 90 95 95 94 85 85 94 98 97 98 99 98 94 88 86 85 89
82 79 76 74 86 93 90 80 81 94 95 97 91 94 99 92 96 100 98 95 96 83 89 96 96 90 99 97 92 95 98 92 87 90 91 92 85 94 98 88 87 84 90 94 93 96 98 95 92 84 67 65 59 62
80 75 93 83 93 90 88 91 96 95 100 94 95 98 94 97 99 99 98 96 86 81 92 90 96 95 98 94 97 97 92 94 89 94 95 95 95 96 97 91 93 88 87 91 92 88 80 77 82 92 95 73 64 54
82 98 93 87 92 92 90 97 97 99 98 97 99 93 98 97 97 96 87 93 72 84 93 93 86 82 95 99 99 92 93 89 92 96 98 94 92 94 95 97 93 94 93 95 94 88 86 87 86 96 98 95 76 72
94 92 92 91 91 93 98 100 99 98 97 99 98 100 99 96 92 94 96 81 88 97 92 85 89 98 95 91 95 92 97 98 99 100 98 94 91 93 92 96 96 90 98 96 95 96 96 98 99 98 98 99 99 99
93 87 92 89 89 96 99 99 99 97 99 99 99 99 99 99 96 89 81 90 92 90 90 95 91 96 92 92 93 98 100 99 96 99 97 94 93 93 93 97 95 88 88 99 96 95 92 92 94 85 86 90 90 90
88 86 86 81 89 99 98 99 99 94 98 99 99 98 99 99 99 92 93 92 91 93 89 90 78 76 86 88 96 97 99 97 97 98 99 98 97 98 96 96 98 94 94 96 97 96 96 97 94 96 96 96 99 97
92 96 92 93 100 97 97 98 98 99 98 97 99 99 98 99 99 98 98 98 92 96 92 94 84 90 95 98 95 97 96 94 94 91 92 100 98 98 99 99 99 100 98 94 89 84 80 92 90 98 100 97 96 96
99 91 99 95 98 98 97 98 97 98 97 98 98 98 98 98 98 99 99 96 98 95 95 88 96 98 98 95 96 99 95 93 94 94 88 91 98 100 100 100 99 100 98 97 95 92 92 97 98 98 99 98 95 99
91 91 100 100 97 96 98 98 96 98 97 97 98 97 97 98 98 97 97 97 96 97 97 98 97 98 96 97 92 93 93 95 95 94 95 95 95 99 98 99 98 98 97 92 97 96 97 85 94 96 97 97 99 98
84 97 98 98 97 97 97 97 97 97 98 97 97 96 97 97 97 98 97 96 96 97 99 98 97 97 97 93 96 97 97 97 98 99 99 98 99 98 96 97 95 94 94 96 98 98 98 96 85 96 97 98 98 98
95 97 97 97 98 95 96 97 97 97 96 96 96 96 96 96 97 98 95 91 97 99 99 98 98 97 96 100 99 97 97 98 97 97 99 99 99 97 96 96 95 97 98 98 97 96 97 97 98 98 97 98 98 95
95 97 96 95 97 91 95 96 96 96 96 96 96 96 96 96 96 91 89 94 96 97 98 95 95 98 98 97 93 96 97 99 97 96 97 98 98 97 98 94 96 97 98 97 96 94 95 97 97 98 97 96 91 98
96 98 86 76 94 92 97 93 92 95 96 96 95 95 96 96 88 83 90 94 97 97 96 96 94 92 91 98 98 97 98 99 98 96 99 99 98 98 95 93 93 97 98 97 97 96 96 98 100 100 100 98 98 98
89 86 94 95 96 97 96 97 96 97 97 94 93 96 94 84 83 91 93 94 97 98 98 98 97 95 92 96 95 97 100 99 97 96 96 95 98 98 98 98 98 85 98 98 99 100 100 100 100 100 99 99 97 99
95 89 89 97 96 96 96 96 96 95 85 91 95 89 90 92 96 95 93 94 96 97 93 91 96 93 93 94 96 98 96 96 83 74 72 85 92 94 100 99 99 99 99 98 91 91 98 96 95 95 98 99 98 98
99 98 95 97 96 96 95 94 96 94 83 85 84 93 93 94 94 94 95 96 96 96 97 93 93 91 88 86 94 97 98 99 97 89 86 87 88 95 100 99 99 100 100 100 100 99 93 97 97 99 98 97 97 97
96 96 95 95 95 95 95 94 95 93 88 90 90 91 90 92 92 92 91 92 94 95 91 93 95 95 88 91 93 93 92 98 100 100 99 99 100 100 100 99 99 100 100 100 100 99 100 100 100 100 100 100 99 100
96 96 96 96 96 96 95 96 95 92 92 92 92 94 93 91 88 92 93 93 94 91 84 89 87 87 96 99 100 100 82 94 98 99 100 100 100 99 98 99 100 100 99 99 99 100 100 100 100 100 100 100 100 99
97 96 97 96 96 96 96 95 90 92 91 89 88 90 90 88 79 87 94 96 96 93 92 94 98 94 94 95 98 99 98 99 99 90 86 81 74 78 95 99 100 100 100 100 100 100 100 100 100 100 100 100 100 99

GFSWCAN_sfc_rhum_105.txt.gz
RH
82 76 70 66 66 68 70 70 69 69 69 73 73 75 86 90 77 78 84 77 69 91 92 88 85 67 66 69 71 79 73 82 87 87 93 96 92 91 91 88 88 88 94 95 86 92 84 87 81 82 78 86 82 86
81 74 69 68 68 68 69 71 71 73 72 73 74 75 81 90 77 69 80 70 69 83 86 75 77 78 86 81 83 87 60 84 82 86 96 97 96 99 88 92 89 94 81 88 82 76 64 91 86 86 90 94 92 93
77 71 69 70 70 70 71 72 72 72 72 73 74 70 77 85 91 72 76 80 78 84 84 81 81 70 72 82 83 74 88 80 87 89 96 94 88 91 94 94 86 85 90 98 91 82 85 78 94 75 70 75 74 82
74 71 72 72 74 73 74 73 73 72 70 72 73 69 77 83 93 74 71 81 73 75 86 85 66 80 75 79 79 77 79 87 87 90 97 96 84 88 90 76 84 80 90 91 90 79 78 93 78 74 79 84 81 76
76 75 76 76 78 78 75 75 76 76 72 72 75 76 80 89 84 79 86 83 76 68 85 89 77 76 77 81 80 78 77 82 88 92 95 92 93 91 96 93 96 87 83 84 72 69 66 74 77 86 92 86 81 82
79 82 83 83 82 81 79 79 81 80 79 80 82 79 82 90 78 72 74 76 74 73 88 91 84 85 79 80 85 88 90 93 94 91 96 96 87 87 95 94 70 83 78 65 66 80 85 88 90 91 87 86 85 85
84 83 83 82 81 80 80 79 82 81 80 81 82 81 84 92 82 78 76 79 70 73 87 96 97 84 84 85 92 91 91 96 93 97 97 92 92 91 98 95 65 78 76 92 90 90 92 91 87 85 90 85 81 85
84 83 82 82 82 82 82 82 82 82 81 81 81 83 85 90 81 85 80 73 70 72 80 95 98 95 83 90 92 95 92 92 96 98 98 91 96 95 98 84 81 82 91 92 88 85 87 90 88 90 90 92 94 89
84 84 84 83 83 84 83 83 82 83 81 82 80 81 93 96 98 95 73 70 79 66 84 90 88 93 86 97 96 95 91 98 92 94 94 89 92 97 76 79 84 84 91 88 85 76 90 79 87 91 84 94 94 91
85 85 85 85 85 85 84 84 84 83 82 83 96 97 100 98 84 82 83 77 82 91 88 89 91 98 93 96 99 95 96 98 99 86 95 98 94 77 77 78 76 76 86 89 95 93 84 78 80 79 94 91 94 94
86 86 86 86 85 85 86 84 84 82 80 96 100 100 96 87 91 96 99 96 88 83 81 90 92 97 93 92 97 89 98 96 97 90 97 98 97 92 84 80 83 88 90 91 90 88 86 87 86 80 94 95 96 96
87 88 88 87 86 86 86 84 83 84 91 91 94 94 99 96 100 98 97 93 84 83 96 94 96 94 95 91 96 97 96 95 92 91 90 96 91 89 91 85 90 92 91 92 87 78 93 91 92 94 97 97 97 97
87 88 88 89 89 88 84 82 77 84 86 87 96 100 98 99 99 97 97 95 94 98 98 98 98 95 97 96 98 95 97 95 92 92 90 90 84 88 98 94 95 93 95 94 84 80 89 97 98 98 98 98 97 96
85 87 88 86 85 84 80 80 87 81 94 99 98 98 94 100 94 91 86 87 88 94 91 85 97 93 90 93 94 94 84 82 94 99 90 93 84 92 96 95 88 96 93 92 86 87 94 98 99 94 93 77 73 79
84 84 84 83 82 80 79 87 80 95 98 98 89 96 99 92 97 99 98 95 96 78 82 91 95 86 99 98 91 88 92 95 90 89 90 92 87 93 98 92 96 86 82 96 98 97 96 94 96 86 74 76 69 59
84 79 82 86 78 81 86 90 96 97 98 93 94 98 95 97 100 99 97 96 82 74 90 87 96 94 96 93 95 99 93 92 84 94 95 93 94 94 96 85 90 84 82 85 93 92 85 76 77 89 95 95 73 60
80 95 86 92 91 92 91 97 98 99 99 95 99 94 97 97 98 98 84 87 66 71 87 92 78 76 95 100 100 89 92 88 93 96 99 91 92 95 96 89 94 92 92 89 92 92 88 86 95 89 94 93 93 89
98 93 91 93 87 92 98 99 99 99 97 99 98 100 98 98 93 92 93 74 79 93 88 81 89 99 92 88 94 91 96 99 97 97 98 94 94 96 97 94 88 91 97 94 84 94 96 98 98 98 99 99 97 98
94 92 88 84 88 96 99 99 100 97 98 99 99 99 99 98 94 91 80 91 92 88 89 96 89 91 87 89 90 98 98 94 95 98 97 93 93 94 96 98 92 86 86 88 94 91 90 87 88 88 92 95 98 98
88 87 87 84 84 98 98 99 99 95 98 99 99 99 99 99 98 87 89 91 90 94 87 88 71 69 80 86 94 93 97 98 96 99 100 99 97 97 96 97 94 90 89 93 95 90 93 95 96 96 97 96 98 97
90 96 91 92 99 98 97 98 98 98 98 98 99 99 99 99 98 96 96 95 92 94 91 86 75 85 97 98 96 95 97 94 93 93 95 100 99 98 99 99 100 97 97 99 99 94 87 93 89 97 100 94 94 96
98 90 99 96 98 98 97 99 97 98 97 98 98 99 98 98 99 99 98 96 97 94 89 81 93 98 99 98 98 99 94 92 94 94 92 95 98 99 99 99 99 99 99 98 97 92 90 96 97 98 99 98 94 99
91 92 100 100 97 95 98 99 96 98 97 98 98 97 98 98 98 98 98 96 95 94 93 93 97 97 97 98 97 96 94 95 95 96 95 96 97 99 99 100 99 100 100 97 97 96 96 86 92 97 97 97 98 97
87 98 98 98 96 98 97 98 97 97 98 97 97 97 98 98 97 98 97 95 94 94 96 96 93 96 96 93 97 97 98 96 98 99 100 98 100 99 98 98 97 97 89 79 84 97 98 97 87 96 97 97 97 97
97 98 97 97 98 95 96 98 98 97 97 96 96 98 97 97 97 98 95 91 96 97 96 95 96 96 93 99 99 98 97 97 95 98 99 98 99 98 98 98 97 97 98 98 97 97 97 97 97 97 97 97 98 97
95 97 97 95 98 92 95 97 97 96 96 97 96 96 97 96 97 94 90 93 94 96 96 95 93 94 95 96 94 97 98 98 96 97 99 99 98 96 97 96 97 97 98 97 96 95 95 97 97 98 98 98 94 100
96 97 90 80 92 92 98 93 92 96 96 96 95 96 96 96 96 88 95 94 94 96 97 94 92 88 88 95 98 98 99 99 98 96 98 97 98 98 96 92 93 97 98 96 96 95 96 98 99 100 100 100 99 98
87 87 95 97 97 98 96 98 96 96 97 94 92 96 95 94 89 98 99 97 96 98 97 97 96 90 91 95 97 98 98 95 95 93 92 94 97 98 100 99 99 87 100 99 98 100 100 100 100 100 100 99 99 99
95 89 90 97 96 96 96 96 97 96 91 96 97 97 94 93 98 98 98 97 98 98 94 91 97 93 95 95 96 97 94 91 80 77 78 91 94 95 100 99 99 99 99 99 88 90 97 95 96 98 100 99 98 98
97 97 95 97 96 96 95 94 96 95 89 91 85 88 90 94 96 96 97 98 98 97 95 88 91 85 88 88 98 99 98 98 97 87 84 86 85 96 100 100 100 100 100 100 100 99 90 99 95 99 99 97 98 99
97 96 95 95 95 95 95 95 96 94 92 91 92 94 94 97 96 95 96 94 93 93 88 88 91 92 83 86 86 88 93 98 100 100 95 92 97 98 99 100 100 100 100 100 100 100 100 100 100 100 100 100 99 100
94 96 94 96 97 96 96 96 96 96 95 92 90 92 96 95 90 96 94 93 93 87 79 84 78 83 93 95 96 97 74 93 98 99 96 99 99 99 99 100 100 100 100 100 100 100 100 100 100 100 100 100 100 100
96 96 96 96 96 96 96 96 95 96 94 92 90 90 93 90 83 89 90 92 90 87 87 89 92 90 94 96 96 93 92 95 96 94 90 90 93 94 100 100 100 100 100 100 100 100 100 100 100 100 100 100 100 100

GFSWCAN_sfc_rhum_108.txt.gz
RH
91 90 87 84 77 70 67 67 67 68 70 70 70 76 78 87 87 73 79 71 64 61 69 72 70 50 50 49 46 60 54 61 59 66 70 61 54 57 62 59 65 56 65 67 66 78 54 46 63 62 61 68 67 72
91 90 87 83 76 70 68 68 68 70 72 72 71 75 76 85 78 67 68 61 56 61 68 62 63 64 69 66 57 65 46 58 52 52 70 70 62 78 61 43 60 62 47 51 53 41 47 64 62 62 68 71 63 62
90 91 87 83 75 69 69 66 68 71 72 72 71 73 71 81 79 66 65 64 60 64 64 64 64 59 59 64 64 52 56 55 60 65 73 62 66 59 53 52 57 64 59 61 69 53 53 57 66 64 56 55 59 56
92 90 86 81 73 70 71 70 70 72 72 71 70 72 74 79 84 68 72 67 57 54 66 64 57 65 62 64 67 61 60 65 62 65 72 63 51 64 51 50 51 48 64 62 64 58 58 55 60 58 57 62 61 56
92 89 84 78 72 72 72 72 75 74 73 72 72 75 78 80 86 78 79 66 58 59 64 70 66 62 62 63 66 63 60 60 66 68 66 58 61 64 62 62 56 53 54 53 37 44 40 55 53 62 66 63 60 65
89 87 80 76 76 76 76 79 79 79 80 80 79 80 81 81 87 85 85 68 68 61 80 81 70 67 64 64 65 68 69 70 71 66 64 66 68 66 65 56 39 47 49 44 39 48 52 60 65 65 62 61 61 65
86 81 78 79 81 82 81 82 82 82 81 82 81 83 83 88 95 95 84 70 65 63 76 91 84 70 66 66 71 67 71 77 72 74 73 66 67 74 76 59 38 46 49 54 54 64 72 70 61 61 68 66 72 74
81 79 81 83 83 84 84 83 82 81 80 81 81 83 84 89 91 92 80 71 66 62 67 88 88 79 66 68 70 76 72 74 78 75 78 70 72 73 79 52 52 52 54 65 66 65 64 64 66 67 69 73 82 82
82 84 84 84 84 83 82 81 82 82 82 83 82 82 95 99 99 93 75 73 72 62 74 78 84 86 71 79 78 79 73 76 76 76 73 72 65 86 54 49 54 57 66 62 67 69 68 73 66 71 70 76 88 87
86 85 84 83 83 83 83 83 83 83 83 84 86 97 100 97 82 82 84 76 77 80 72 65 71 82 73 76 84 75 80 79 86 64 76 82 70 53 52 54 50 56 61 64 73 83 84 73 69 67 80 81 89 91
84 84 84 85 85 82 82 84 84 85 85 93 98 100 97 89 92 97 100 92 81 82 66 66 70 82 77 77 79 71 87 87 89 76 82 84 80 71 62 59 57 57 63 64 63 63 60 55 62 68 76 87 91 91
85 86 86 86 86 86 86 85 85 88 92 91 93 95 99 99 100 100 98 99 96 80 78 76 80 79 84 74 77 82 86 92 83 74 86 86 73 77 74 59 60 54 63 70 71 72 74 71 74 74 77 84 84 90
87 86 87 88 86 86 86 86 88 82 83 88 96 100 100 99 99 98 97 96 95 88 90 91 92 85 86 79 84 83 92 86 74 88 77 71 63 69 82 73 74 69 73 78 76 72 73 80 83 91 84 89 87 87
87 89 88 88 88 86 86 87 86 84 78 99 99 99 98 99 90 86 78 86 78 86 86 73 87 80 75 83 82 83 70 74 91 93 76 53 60 70 73 73 79 83 80 80 74 81 85 83 91 96 86 72 57 52
87 89 88 90 88 89 88 88 88 80 96 100 100 98 98 86 93 91 92 88 90 72 71 84 86 71 86 91 73 84 96 94 77 70 63 69 70 82 80 77 94 87 84 81 76 80 83 92 89 84 63 59 54 50
85 88 90 86 86 88 90 87 92 94 100 99 98 98 88 93 98 95 94 92 76 66 74 77 87 87 83 83 94 94 82 81 74 82 75 69 77 81 87 90 87 76 76 88 90 87 81 75 63 58 77 80 74 54
80 97 89 86 83 90 84 96 97 100 100 98 97 86 88 90 92 92 79 78 60 64 80 88 81 75 86 95 89 76 85 78 80 77 75 70 80 84 86 86 85 77 82 92 89 82 76 74 76 76 78 77 85 89
94 92 89 90 88 92 98 100 100 98 97 98 98 98 91 88 88 84 84 69 70 80 80 82 84 97 86 83 81 80 83 85 81 78 76 76 77 82 86 88 87 88 90 87 79 88 89 90 86 77 92 93 88 83
88 90 93 89 86 95 100 100 99 97 97 98 98 98 94 92 90 83 68 67 79 76 86 86 80 85 75 77 80 89 90 87 86 86 78 77 78 88 89 89 89 92 93 85 79 76 76 77 79 80 78 79 75 74
92 88 84 80 85 99 98 99 100 98 96 97 96 98 98 97 92 81 75 80 82 88 86 84 63 56 60 70 76 78 86 84 84 86 88 84 82 95 97 91 84 80 77 82 85 83 86 87 86 83 80 78 78 73
91 96 91 92 100 99 97 98 97 97 98 96 98 96 99 97 97 91 91 90 90 90 82 72 62 70 90 88 83 87 90 81 74 72 80 93 85 86 93 95 89 87 87 88 90 92 94 84 65 71 83 70 71 73
99 91 99 97 99 98 96 95 96 96 94 98 97 96 98 98 98 96 97 96 93 86 77 71 78 89 97 95 93 92 87 86 89 85 88 90 94 96 96 96 98 97 95 96 90 83 72 65 71 74 76 71 70 68
90 93 100 100 97 96 97 96 95 97 97 97 97 96 98 98 98 98 98 97 92 87 86 85 92 95 96 96 94 92 90 89 89 90 90 91 94 97 97 96 96 98 99 90 85 83 79 73 76 76 70 69 68 65
86 98 98 98 97 97 94 98 94 95 96 96 96 96 96 97 97 98 96 94 91 91 90 95 90 94 95 95 94 92 90 86 91 91 90 89 96 95 90 94 92 86 82 75 76 77 78 78 76 74 75 73 72 74
97 97 97 96 96 94 97 98 98 95 96 95 95 96 96 96 96 96 94 90 94 94 91 91 88 87 94 94 90 88 91 85 84 90 92 86 94 93 94 87 82 82 82 88 81 79 82 81 77 75 76 76 84 91
96 96 96 94 97 92 95 96 96 95 94 96 95 95 96 95 96 94 89 91 93 93 94 91 89 91 86 85 86 89 88 86 84 88 96 88 86 87 94 91 86 84 79 77 83 80 79 79 80 87 80 86 89 92
97 99 94 84 92 92 97 92 88 93 96 95 94 95 95 96 95 86 89 89 90 92 90 86 84 78 82 87 88 90 89 90 90 89 88 87 87 85 87 88 87 81 79 79 77 74 78 82 84 88 90 89 88 90
89 92 97 98 98 96 96 95 96 97 96 88 86 96 96 93 91 91 92 91 93 94 94 93 91 86 88 91 92 92 94 92 91 89 84 83 88 93 94 91 90 86 90 91 89 89 88 89 92 92 93 93 92 86
96 92 88 98 97 95 97 95 96 94 91 89 95 96 95 89 94 93 92 92 93 92 92 93 97 94 94 92 91 89 88 83 75 74 74 78 83 88 93 92 94 94 93 94 83 92 96 94 93 93 93 88 87 89
98 96 94 96 96 96 95 93 94 94 91 93 93 93 85 88 92 93 93 94 94 94 92 91 93 90 94 92 94 92 88 87 83 72 74 78 81 88 94 94 94 95 95 92 92 94 84 91 88 91 89 88 88 90
95 95 95 95 95 94 94 94 95 94 94 95 93 91 87 90 88 88 90 90 92 91 91 92 92 88 87 86 83 84 85 88 89 88 89 87 90 93 95 95 95 96 95 93 93 91 93 93 92 92 91 94 97 96
95 96 95 96 96 96 95 96 96 96 96 96 94 90 88 87 86 86 87 91 91 88 79 82 81 85 86 86 85 85 71 89 93 90 92 93 94 95 95 96 98 96 95 94 94 94 96 95 94 94 92 97 98 98
96 96 96 96 96 96 96 96 95 96 96 95 94 87 86 85 84 86 86 90 89 86 85 87 88 87 90 89 90 87 85 92 92 87 87 90 94 100 99 97 96 95 95 94 95 94 96 97 95 98 100 100 100 99

GFSWCAN_sfc_rhum_111.txt.gz
RH
90 90 91 91 90 87 81 73 67 68 67 69 72 75 73 80 87 93 92 78 65 63 55 58 54 43 41 40 38 50 48 53 48 55 58 48 40 42 48 40 49 48 58 57 48 62 53 42 57 60 55 55 55 61
91 91 91 91 90 87 82 74 69 70 73 71 73 73 73 80 82 74 85 78 57 58 59 53 54 55 58 55 45 48 45 45 41 42 58 60 48 65 49 34 45 49 35 42 42 39 42 40 48 50 52 53 56 55
92 92 91 90 90 87 81 74 69 71 74 73 73 72 72 78 85 68 63 63 62 57 59 59 57 53 51 54 52 50 41 42 48 60 64 51 60 46 40 41 40 48 41 48 55 38 41 49 53 51 55 50 50 49
92 92 92 90 91 88 81 75 71 71 69 72 72 71 72 77 84 70 58 54 50 46 65 56 50 57 53 55 58 52 50 53 51 56 68 56 48 48 40 45 42 35 49 47 45 39 49 47 45 51 53 53 53 49
92 92 92 90 90 87 81 75 76 76 72 73 74 76 76 81 84 82 64 62 48 49 61 58 57 56 53 53 58 56 53 53 57 63 64 54 46 53 46 50 42 36 37 44 28 32 36 45 45 50 53 53 52 54
93 93 91 91 89 86 79 77 78 78 79 80 81 80 79 83 81 86 88 75 62 46 73 79 60 60 56 53 54 56 56 56 59 58 51 50 56 62 60 47 29 26 28 29 31 35 39 44 49 53 54 51 52 54
94 93 92 92 89 84 78 79 80 81 80 81 82 82 82 82 94 96 90 74 60 49 63 89 77 62 57 58 57 57 60 65 63 62 65 55 60 69 75 48 23 30 33 40 35 46 57 58 54 52 54 56 59 65
94 93 93 91 87 81 80 81 82 83 81 80 83 83 84 84 91 96 77 71 61 47 55 90 85 74 60 60 63 63 65 66 69 61 68 62 62 64 70 43 33 35 37 43 45 44 47 50 54 55 58 62 76 71
94 94 92 88 82 81 82 83 84 84 84 83 84 83 91 92 99 98 82 74 73 60 76 79 88 92 66 62 63 72 65 74 67 68 63 64 58 80 52 37 36 41 47 49 51 55 58 62 58 58 61 65 76 75
94 92 88 83 82 83 84 84 85 84 83 83 88 98 100 97 85 81 90 82 90 90 80 65 56 78 60 63 71 68 67 69 86 57 66 72 64 47 38 40 37 39 43 47 62 71 68 71 64 59 61 66 71 78
91 88 84 84 85 85 85 84 83 83 84 91 99 100 88 85 94 97 100 99 97 99 69 54 53 76 67 73 76 62 84 80 87 74 71 78 72 66 47 47 42 41 46 49 48 51 56 55 55 57 65 70 81 81
87 86 86 86 85 84 84 83 83 88 95 90 94 92 95 100 100 100 99 99 99 84 61 65 72 70 75 64 70 74 85 86 80 67 78 81 73 86 64 48 45 44 49 50 54 55 53 50 52 58 68 73 77 79
86 86 86 85 84 84 85 85 84 81 87 88 95 100 100 98 100 99 97 100 95 78 79 84 86 78 79 74 76 77 87 82 65 83 74 68 64 67 80 55 48 48 54 61 63 61 62 63 71 74 76 80 80 80
85 84 84 86 86 86 86 87 85 89 92 99 100 100 96 98 91 94 74 78 76 81 79 64 81 78 68 82 75 84 64 70 85 87 75 45 52 55 64 62 54 57 62 67 69 68 71 80 85 87 80 74 71 59
84 87 88 88 87 87 87 86 86 91 97 100 100 97 99 83 93 93 98 84 77 67 66 73 81 66 84 87 68 81 89 90 72 69 62 69 61 66 66 65 82 74 72 72 66 71 77 74 85 84 73 58 49 47
88 88 89 86 87 88 86 86 90 94 100 100 100 98 90 98 97 94 96 93 75 62 64 82 89 88 83 83 85 88 79 80 79 86 77 63 67 64 70 82 85 75 75 78 75 74 78 77 80 71 58 66 70 57
87 93 86 91 90 89 87 94 100 100 100 100 99 88 90 94 90 85 69 70 57 62 69 94 90 78 78 85 82 68 83 82 91 81 72 65 73 72 75 84 81 75 81 92 89 83 78 69 60 64 68 65 72 81
85 87 90 92 89 88 99 100 100 100 98 99 91 92 91 86 80 78 70 65 71 65 84 98 78 91 85 86 79 80 84 88 80 74 70 71 74 78 82 84 83 83 89 87 89 86 86 85 83 76 85 91 88 86
86 92 87 89 86 96 100 100 100 94 97 94 98 98 91 84 80 65 69 63 80 80 89 90 90 87 73 75 89 97 90 79 70 71 66 64 71 78 81 92 91 89 91 86 84 74 72 76 73 74 76 78 71 65
87 93 89 84 78 97 99 99 100 95 91 96 98 98 99 92 80 77 71 74 85 96 92 89 62 50 50 68 76 75 76 72 74 76 78 75 79 94 92 88 81 84 78 75 80 76 77 81 82 80 75 70 65 61
89 94 91 92 100 100 98 97 98 94 95 94 98 97 98 99 96 97 95 92 94 96 88 61 55 62 81 77 68 74 76 68 62 59 72 87 88 89 89 86 86 77 76 78 84 86 86 87 68 64 80 67 64 63
99 90 99 93 99 96 95 93 94 97 93 96 98 99 99 98 96 95 98 98 96 77 72 64 72 81 88 83 87 85 82 83 80 75 76 82 90 96 96 94 92 93 89 90 89 90 85 72 68 65 66 66 65 60
93 94 100 100 95 90 98 98 95 97 96 97 98 98 98 98 98 99 94 96 94 85 84 82 90 92 90 92 88 87 87 86 82 80 79 80 83 88 94 96 93 94 95 93 88 86 84 64 70 69 66 64 63 62
87 100 99 96 94 96 95 97 96 97 97 97 97 95 96 96 97 98 97 96 95 90 86 95 90 96 94 94 88 87 86 82 87 88 89 92 96 97 92 92 94 93 86 86 85 79 74 74 74 71 71 71 70 71
98 98 98 96 95 96 96 97 95 89 95 93 95 96 96 96 97 96 93 93 96 94 92 90 88 86 92 92 90 88 90 82 84 90 88 84 91 91 92 85 81 82 77 86 80 80 81 78 75 74 72 73 84 90
97 96 96 94 94 90 90 96 95 93 91 96 94 93 95 94 96 94 89 90 92 89 91 91 92 93 89 86 89 90 86 83 77 84 90 85 83 89 94 93 91 86 73 74 83 81 80 80 79 86 79 84 81 89
95 95 89 81 80 83 89 84 81 87 96 95 93 96 93 96 95 87 84 85 87 93 87 88 84 83 89 90 88 87 88 91 90 87 85 84 84 85 88 89 88 81 75 79 78 76 80 80 82 85 88 86 86 87
92 90 97 93 90 87 95 92 96 96 93 85 85 95 94 93 91 89 90 87 90 92 93 91 88 85 86 87 90 90 94 93 91 87 81 82 86 90 90 88 84 78 86 86 85 86 85 87 89 89 91 90 91 87
91 86 83 99 97 94 95 93 93 91 85 83 92 96 95 84 90 88 87 89 90 91 93 94 95 92 92 90 89 90 90 86 84 85 80 81 83 88 92 92 92 93 91 90 82 91 96 92 92 91 91 86 87 91
96 90 91 97 96 96 93 91 92 91 87 90 87 90 85 85 89 88 89 90 92 94 92 92 94 90 94 92 97 93 87 85 84 79 73 74 79 89 92 93 93 94 92 91 93 93 84 90 88 91 90 91 91 91
90 91 94 90 93 93 92 90 91 89 91 93 94 95 94 91 86 88 89 91 93 94 93 95 96 94 90 91 89 86 85 85 82 80 86 84 86 90 92 93 93 93 93 92 92 92 93 92 92 92 92 95 97 95
93 94 91 94 94 94 94 95 95 94 94 94 94 94 94 94 93 88 88 91 92 94 91 90 90 90 83 82 83 83 71 86 87 87 85 85 89 91 93 94 95 94 93 93 93 92 92 94 94 94 94 97 97 98
94 93 93 94 95 95 95 95 94 95 95 95 94 94 93 82 86 85 83 88 87 83 85 87 88 85 86 85 84 81 81 87 84 78 80 85 90 95 95 94 94 93 92 93 93 92 93 94 95 97 98 100 99 99

GFSWCAN_sfc_rhum_114.txt.gz
RH
88 89 89 90 91 91 91 85 80 71 68 68 68 74 77 77 82 93 90 79 85 76 71 62 58 60 54 55 58 61 66 70 67 74 87 84 66 67 71 54 65 71 87 89 72 80 78 59 69 81 72 71 68 73
88 89 90 91 91 91 92 88 83 76 73 71 70 73 74 75 82 84 97 84 73 89 77 59 57 57 62 66 69 62 64 58 63 70 89 91 85 90 69 73 62 70 51 70 59 66 52 60 65 66 64 66 71 71
89 90 90 91 92 92 92 89 84 78 76 72 70 72 73 72 76 85 89 93 91 82 77 74 70 60 56 59 60 78 61 58 62 81 96 84 78 80 81 80 62 62 52 65 62 52 58 56 65 63 67 68 60 59
90 91 91 91 92 92 93 90 83 78 72 68 70 72 74 75 85 80 81 78 74 70 94 80 54 68 60 61 65 64 63 62 64 78 95 94 81 65 71 61 64 54 62 65 62 54 70 58 59 64 63 62 64 62
90 91 91 92 92 92 93 89 83 78 74 71 72 76 78 78 82 92 91 73 68 78 91 79 65 61 60 62 68 68 67 68 82 91 94 90 70 71 66 74 74 57 63 66 63 47 56 65 58 59 64 65 63 65
91 91 91 92 92 92 92 88 83 80 80 80 80 81 80 80 84 92 94 80 70 70 90 97 74 71 68 65 66 69 72 73 84 89 84 74 70 85 93 87 46 38 38 36 43 54 55 59 62 61 63 60 60 66
91 91 92 93 93 93 92 86 82 81 81 81 82 83 82 84 94 98 94 91 76 66 80 95 95 75 68 72 73 76 74 86 89 90 91 81 82 89 98 92 40 39 38 48 51 61 71 68 74 65 60 61 65 81
93 93 93 94 94 94 91 86 82 82 81 79 82 84 83 85 89 94 92 79 76 67 70 97 97 89 73 84 87 78 89 90 90 90 87 83 86 88 94 69 50 44 44 52 51 56 60 64 64 65 67 72 84 75
93 94 94 95 94 94 91 86 83 84 84 84 84 85 91 93 99 97 80 73 79 82 96 94 95 96 80 80 86 88 86 97 88 94 86 83 85 91 65 59 50 47 53 54 54 65 67 71 70 70 72 81 80 70
94 94 94 95 95 94 91 88 86 86 86 85 89 97 100 97 85 85 90 93 96 97 97 95 85 96 82 84 94 89 89 94 97 86 87 93 88 59 57 56 49 46 52 54 67 81 80 83 76 72 74 76 72 75
94 95 95 96 95 93 91 88 88 87 85 92 99 99 97 85 93 97 100 99 98 99 98 85 78 92 80 92 95 84 97 96 99 92 93 96 93 82 60 53 53 49 51 56 63 65 70 74 73 70 77 74 80 81
95 95 95 95 94 93 90 89 88 89 91 87 94 95 96 99 97 98 97 98 98 93 96 84 84 92 90 84 90 86 96 97 95 86 95 96 86 90 71 63 55 50 58 60 62 65 69 63 64 68 76 75 79 80
95 95 95 94 93 91 90 89 87 82 83 93 96 100 100 99 99 98 94 94 96 93 93 90 93 93 91 95 92 88 97 95 85 96 93 84 85 84 90 67 59 57 63 70 69 68 65 75 75 76 72 71 82 85
95 95 94 93 91 90 89 89 84 86 96 99 99 99 98 98 94 92 90 88 94 88 87 75 94 91 87 94 88 94 82 89 97 99 89 75 68 76 84 70 61 67 74 75 78 79 82 83 81 84 81 80 82 90
95 94 93 92 91 90 88 86 84 91 98 99 100 97 97 88 98 98 100 96 93 76 74 86 95 86 96 94 89 90 93 95 85 83 78 86 77 77 77 65 76 76 79 82 81 84 91 92 95 94 92 83 67 58
94 93 93 90 90 89 87 87 90 94 100 100 100 99 92 82 96 99 99 98 91 72 73 90 89 95 92 92 96 92 90 88 81 88 95 84 80 77 77 78 78 78 84 85 87 88 89 84 80 78 78 76 75 65
92 94 87 87 88 88 88 94 98 100 98 99 99 96 89 91 84 96 93 92 67 71 85 96 92 86 92 98 98 86 92 86 93 97 91 84 81 80 88 87 86 86 88 89 87 83 79 77 78 73 80 82 86 90
92 86 84 88 89 90 93 99 100 99 99 100 94 96 96 96 92 93 85 77 74 86 93 92 92 92 89 88 94 92 89 96 96 92 89 88 85 88 88 91 90 91 93 92 86 85 91 89 88 90 91 97 97 98
84 85 89 88 86 96 100 99 100 98 99 99 98 90 94 97 94 86 80 78 78 90 95 97 97 94 90 93 89 90 93 87 82 82 84 86 86 90 90 90 92 93 94 94 93 93 93 92 91 92 94 96 98 95
83 87 86 84 78 99 99 99 100 98 98 99 97 96 96 98 94 88 82 84 95 99 99 97 88 89 76 82 96 95 91 76 74 80 89 90 90 93 92 91 92 92 91 91 88 82 95 95 94 93 92 90 88 80
88 90 86 92 100 100 100 99 99 99 98 98 90 95 96 98 96 98 98 96 97 98 98 97 77 70 87 93 80 83 81 67 66 71 80 96 95 93 94 94 91 90 90 86 85 84 89 93 95 96 96 90 86 79
98 87 98 94 99 99 98 98 96 93 91 96 97 97 98 98 99 98 97 98 95 88 96 76 90 93 97 90 93 91 84 82 76 73 80 88 96 94 95 93 91 92 92 89 86 88 88 92 94 92 94 95 87 89
91 93 100 100 98 95 98 98 97 96 95 96 99 99 99 99 99 96 97 96 96 97 94 96 98 97 97 97 94 93 91 86 83 87 90 93 91 91 90 90 88 92 96 96 94 96 94 79 82 92 92 91 92 92
86 100 99 98 95 97 98 98 98 98 98 99 98 98 99 98 98 99 97 98 97 96 95 98 96 98 99 98 98 98 97 93 93 94 92 93 97 98 96 96 96 95 95 96 96 94 93 94 84 91 92 92 94 94
98 98 98 97 98 96 98 98 98 98 97 97 98 98 99 97 98 98 97 97 98 93 91 95 98 98 97 98 98 98 96 91 92 97 99 92 97 98 98 94 92 87 88 91 88 92 95 93 93 92 92 94 96 98
97 97 98 95 98 92 95 97 98 96 97 97 97 98 98 97 97 96 95 94 91 90 93 92 92 95 97 93 93 96 94 94 85 94 99 94 92 94 98 98 99 95 82 95 90 93 94 93 92 92 96 94 83 99
96 97 97 93 89 90 98 96 87 95 96 96 96 98 97 96 96 93 97 96 98 98 94 87 86 86 89 94 95 96 96 95 93 93 93 92 94 96 92 93 94 90 88 92 91 88 89 91 93 95 97 98 98 97
95 92 97 98 97 97 96 97 97 97 95 93 89 99 96 91 93 99 98 97 98 97 97 98 98 92 89 90 92 93 96 93 93 91 87 88 93 92 90 86 84 81 89 93 92 91 91 92 95 96 96 98 99 98
96 93 91 99 99 98 98 97 97 99 93 94 96 99 99 93 99 98 96 96 96 97 96 96 96 94 94 94 93 91 89 87 88 92 90 93 93 96 96 92 92 93 91 89 82 93 96 96 95 96 96 96 98 98
98 98 97 97 97 97 98 96 98 98 94 98 95 98 95 97 98 98 97 98 97 97 97 96 94 92 95 94 98 96 94 91 92 81 82 83 83 92 93 94 96 97 95 95 95 84 85 95 92 98 98 98 99 98
97 96 95 96 99 98 96 97 98 96 97 98 98 97 99 98 99 98 98 98 97 96 96 96 97 96 94 94 92 93 93 89 86 91 88 87 85 89 92 94 95 95 95 95 94 94 94 97 97 98 98 100 100 100
98 98 95 98 100 98 98 98 97 97 97 98 98 97 97 97 97 98 98 98 98 96 95 95 95 96 96 93 91 88 75 85 90 88 84 84 89 91 92 94 95 93 93 94 93 93 93 95 96 98 98 100 100 100
98 98 98 97 99 98 98 97 97 97 98 98 98 98 96 96 97 95 94 96 97 97 96 96 96 96 96 92 85 81 82 88 83 77 79 84 88 93 94 93 92 91 92 93 94 94 95 95 98 100 100 100 100 100

GFSWCAN_sfc_rhum_117.txt.gz
RH
93 93 92 88 89 91 90 92 90 82 76 75 74 76 77 78 81 93 95 91 93 83 86 70 66 74 66 64 70 66 68 72 75 77 91 92 72 71 71 65 72 74 89 91 85 86 64 69 77 70 63 84 81 86
94 93 92 89 90 91 91 92 91 85 79 76 76 74 76 76 82 89 99 87 79 92 90 64 62 63 64 69 77 71 69 70 72 81 92 96 85 95 74 71 67 64 60 68 65 61 48 70 65 70 68 71 75 80
94 93 92 90 90 91 91 92 91 86 82 79 74 73 75 75 74 87 92 96 94 92 80 84 81 68 62 66 68 77 74 67 68 88 95 87 78 88 84 85 72 70 60 62 58 47 60 65 69 71 71 70 66 64
93 93 93 91 90 92 92 93 92 88 82 76 72 72 75 77 78 87 94 94 84 78 96 87 62 73 65 66 70 72 71 68 73 88 96 96 78 72 75 60 67 57 62 65 72 61 61 58 70 72 69 67 66 63
93 92 93 92 92 92 93 94 93 88 82 78 75 77 80 81 84 93 96 84 75 79 94 86 72 68 67 71 74 74 75 77 88 92 96 92 84 76 79 80 84 63 65 62 54 54 53 59 62 71 72 71 69 67
93 92 92 93 94 93 93 94 94 89 82 80 78 80 82 82 87 95 98 87 78 72 94 90 79 78 71 71 77 80 81 83 90 93 92 88 77 82 95 93 61 54 56 53 46 60 57 73 69 69 70 70 65 67
93 93 92 94 94 94 94 94 94 89 83 82 83 83 84 84 96 98 95 89 80 70 82 91 94 83 75 78 82 84 79 88 90 94 94 89 85 88 98 94 50 50 42 45 53 64 75 73 72 70 65 65 66 75
93 93 92 93 94 95 95 96 94 89 84 84 84 84 84 84 87 93 92 87 80 72 74 94 96 91 80 92 93 90 93 94 93 91 92 88 89 91 94 74 54 44 46 53 64 62 59 69 77 70 71 79 88 88
94 93 92 93 94 95 96 96 94 91 86 85 85 85 93 93 99 97 81 79 86 83 99 99 97 89 88 90 93 93 93 99 90 92 90 86 89 94 66 56 55 57 54 56 65 71 73 72 75 76 80 88 90 84
94 94 93 93 94 96 96 96 94 90 87 87 90 99 100 97 86 85 90 93 98 99 100 99 94 97 89 93 97 94 94 97 100 88 88 94 89 63 61 55 46 52 48 57 74 86 83 83 78 79 81 87 86 79
94 94 94 94 94 96 96 95 93 90 90 96 99 100 98 86 93 97 100 99 98 99 98 91 82 93 86 93 95 91 96 97 99 84 91 95 96 82 61 55 48 54 51 53 55 55 66 71 72 76 82 85 83 75
94 94 94 94 95 96 96 93 90 91 92 90 94 95 98 99 100 98 96 97 99 92 98 97 85 88 90 90 92 92 94 97 98 89 97 96 79 79 75 62 66 55 53 57 68 68 74 74 69 72 84 87 85 76
95 94 94 94 95 96 94 90 88 88 85 93 96 100 99 99 99 99 97 98 99 97 98 94 95 90 92 96 94 93 97 97 88 99 92 84 69 71 88 73 65 60 60 65 74 74 75 77 75 78 84 84 79 82
95 95 95 95 96 95 92 90 92 86 88 100 99 98 98 99 91 88 90 92 87 93 91 79 98 88 89 96 89 92 83 90 100 100 93 75 58 50 77 74 68 73 71 71 78 77 82 80 85 84 84 83 75 76
95 95 95 96 96 93 92 92 89 85 98 99 100 97 97 90 98 94 95 96 95 80 79 89 95 86 98 91 93 93 98 96 84 82 78 59 60 71 79 72 80 79 79 78 81 84 88 88 88 91 90 84 83 88
94 96 98 95 94 92 92 91 92 98 100 100 100 99 96 92 100 100 99 97 93 74 84 88 93 95 92 93 98 96 93 91 83 90 88 81 73 77 81 77 82 81 81 86 86 89 91 92 94 93 92 84 74 67
97 99 96 93 92 92 91 94 98 100 99 99 99 95 95 92 87 97 94 91 74 76 90 95 92 91 91 99 100 90 93 87 84 92 92 79 75 78 82 88 87 88 88 89 91 91 92 88 87 79 87 87 88 80
99 97 93 92 91 92 96 100 100 99 99 98 98 99 92 93 88 90 94 88 87 92 93 90 89 99 96 93 94 91 92 90 96 94 90 81 79 79 79 86 90 89 90 89 90 92 92 91 85 85 89 91 97 99
92 92 92 91 90 98 100 100 100 98 97 99 98 90 93 96 93 84 82 78 89 92 91 96 91 98 96 93 92 91 89 86 63 88 88 80 77 86 89 92 92 92 91 90 88 87 84 87 89 92 95 98 98 98
91 91 90 92 89 100 99 99 100 98 99 98 98 93 95 97 96 95 93 86 94 98 100 99 96 94 93 84 93 93 93 89 87 92 96 90 85 92 93 92 92 94 96 97 96 93 96 97 96 95 96 95 95 88
92 93 93 93 100 100 99 99 99 99 99 99 98 93 99 99 99 97 97 95 95 99 95 93 74 75 79 92 82 81 82 80 72 69 83 96 94 89 94 94 93 92 94 95 95 96 94 96 96 97 97 92 85 83
96 92 100 97 99 99 98 99 96 99 98 98 97 96 98 98 98 96 96 98 98 92 90 80 80 72 87 82 82 90 88 81 76 79 81 85 96 97 96 94 92 93 92 91 90 91 97 97 94 95 94 96 87 90
91 93 99 100 98 97 98 99 97 99 97 98 98 98 98 99 98 96 98 98 94 94 86 93 94 95 85 96 95 94 92 88 90 94 92 90 88 89 92 90 87 91 94 94 93 92 94 93 82 86 87 87 87 93
90 99 99 98 96 97 98 97 97 98 98 98 97 97 98 98 98 99 98 98 87 96 94 92 94 99 100 99 99 98 97 90 95 97 94 93 95 95 89 89 88 88 88 92 94 94 89 88 81 84 83 86 93 95
98 98 97 97 98 95 96 97 97 98 100 98 100 100 99 98 98 98 97 93 88 88 86 89 90 83 88 92 97 98 98 92 95 97 96 88 94 98 98 98 97 98 93 95 92 87 92 88 86 87 88 92 95 97
96 98 96 95 96 91 97 100 100 99 99 100 98 98 99 98 100 95 94 92 90 89 88 92 91 92 93 88 94 97 97 97 91 96 99 94 90 92 97 97 98 97 91 87 87 89 89 86 85 91 94 89 86 98
96 97 97 94 92 93 98 94 94 96 100 97 98 99 97 97 95 88 97 97 99 99 98 86 85 86 91 98 96 96 97 96 92 95 96 97 97 93 90 95 97 92 90 91 87 83 85 84 88 92 96 98 97 96
96 94 96 99 98 97 97 98 98 96 94 95 91 99 95 91 88 97 95 97 99 96 98 99 99 98 97 97 95 95 96 95 95 92 89 90 93 95 94 92 92 88 91 88 86 84 83 85 90 93 94 96 100 99
98 95 91 100 100 99 97 95 96 99 95 94 93 96 93 97 98 98 97 98 95 97 98 96 97 96 96 96 96 96 94 92 94 97 96 98 97 96 95 91 91 90 88 86 80 89 94 91 92 92 94 95 98 99
100 97 96 99 96 99 98 98 100 99 98 97 96 98 96 98 98 98 98 95 96 97 98 97 96 95 95 94 96 96 96 96 96 83 88 92 90 94 92 90 90 89 87 86 88 85 80 90 92 99 99 98 98 98
98 96 97 97 100 99 99 99 99 98 98 99 99 97 97 97 97 98 99 98 99 97 97 97 97 97 95 94 93 95 96 91 92 89 87 88 90 90 90 89 90 90 90 92 94 94 93 97 95 97 97 99 98 100
97 96 96 98 99 98 98 98 98 98 99 97 96 96 99 100 98 98 98 99 99 97 95 96 96 96 95 91 92 90 76 89 92 88 87 85 87 88 90 92 92 92 91 90 90 90 90 92 95 96 97 99 100 100
97 97 97 97 97 97 98 97 97 98 97 96 97 96 96 98 96 98 98 97 97 98 97 97 97 97 97 96 94 92 92 95 88 83 82 82 86 89 90 91 91 90 88 90 92 90 92 94 96 98 98 99 100 100